GFSMA_925_rhum_000.txt.gz
RH
82 84 85 83 74 68 60 51 52 47 43 42 41 38 42 44 43 44 41 41 43 45 48 73 78 78 79 78 82 84 81 75 75 81 88 89 88 91 92 88 78 81 89
83 86 66 54 49 48 45 44 42 40 39 37 33 33 37 37 38 32 41 38 36 37 40 58 59 69 78 73 70 67 67 70 74 81 81 79 86 89 92 91 92 89 86
76 59 53 45 44 43 42 40 37 32 25 27 27 24 24 27 26 38 37 27 39 31 30 31 47 47 53 52 54 56 56 56 56 58 58 64 68 66 70 80 84 91 91
61 56 35 36 38 38 37 32 24 18 27 19 21 22 17 26 34 28 17 31 28 34 25 34 28 23 30 43 52 50 52 50 46 48 57 67 71 71 70 74 77 74 71
34 29 30 26 26 28 24 19 18 20 28 20 23 23 16 35 34 16 18 34 18 32 24 24 17 19 26 45 40 45 47 46 46 51 56 56 57 67 72 74 75 78 82
26 22 22 22 23 20 18 20 17 15 29 28 30 20 22 37 31 20 24 16 34 29 25 25 19 16 29 29 38 41 43 45 53 59 56 62 66 69 72 73 72 74 78
23 23 21 21 22 19 21 23 19 20 26 29 39 31 25 22 32 20 30 17 30 16 24 22 27 25 28 24 26 37 40 43 47 56 56 57 60 62 61 61 62 61 71
23 22 20 20 20 17 16 20 22 24 29 29 40 52 61 41 29 23 30 24 29 27 31 24 28 32 25 32 22 15 31 44 54 50 54 52 54 56 56 59 61 59 70
22 21 20 19 19 18 18 21 20 22 26 23 32 40 60 62 42 34 25 32 26 35 26 36 31 34 31 26 20 20 41 50 48 49 55 57 56 55 55 54 52 55 62
21 20 19 18 18 19 19 19 18 19 20 27 27 30 29 40 56 52 35 33 34 33 36 37 33 36 32 29 25 33 42 44 43 49 54 56 55 53 51 51 57 51 54
21 18 16 17 18 18 18 18 17 18 20 23 26 28 30 34 34 57 47 44 35 34 38 34 34 35 30 31 33 34 40 42 56 54 55 53 52 53 54 56 50 50 54
20 18 17 17 17 17 17 17 18 19 21 23 24 26 31 42 41 44 46 45 39 36 35 35 35 31 34 36 33 36 49 54 53 51 51 52 54 53 52 50 48 47 49
20 19 17 17 16 17 17 18 19 21 23 25 26 27 28 29 35 43 45 39 39 40 40 36 33 38 36 36 39 51 50 47 46 50 49 51 52 52 52 51 49 51 58
20 19 18 17 16 15 16 19 21 24 26 27 27 28 30 30 32 34 41 47 55 45 40 42 41 40 39 46 48 47 45 46 47 46 50 51 52 52 53 52 48 53 55
19 17 16 15 14 15 20 23 26 27 28 28 31 32 33 34 38 43 45 49 56 68 61 46 45 45 48 48 46 46 51 54 52 55 54 54 54 57 56 54 56 50 60
18 16 15 13 15 19 24 27 29 30 31 32 33 34 38 46 52 54 55 58 60 63 68 54 52 50 50 52 55 56 60 62 64 58 55 51 49 50 60 54 55 69 63
17 15 14 16 19 23 27 29 31 32 33 33 34 40 48 53 59 62 67 66 64 62 71 58 55 57 62 66 67 70 73 79 72 56 53 53 52 55 60 55 50 49 50
17 16 18 20 24 27 29 31 31 32 35 37 41 47 54 59 61 66 70 70 68 66 68 70 73 77 76 73 76 84 78 67 62 58 54 55 52 49 48 49 51 52 71
17 20 21 24 28 30 31 30 34 39 39 42 46 53 55 57 64 70 70 73 70 71 72 71 69 65 68 84 82 66 59 55 56 54 56 57 56 56 63 67 89 71 55
21 21 25 29 31 33 31 35 42 42 43 43 46 51 55 57 65 69 66 64 62 64 66 70 86 81 96 77 65 60 59 62 64 68 74 72 66 65 64 58 57 59 62
23 26 30 33 33 32 34 46 45 44 43 42 43 48 52 57 64 62 59 62 65 74 95 93 76 82 84 64 65 66 69 68 75 92 68 66 69 70 69 68 67 66 68
27 32 35 34 33 32 41 46 47 45 42 43 45 51 54 60 64 64 64 62 64 69 69 83 95 82 72 69 72 75 81 95 78 65 67 75 72 73 75 75 71 65 62
33 35 34 34 33 31 44 47 50 52 50 55 56 56 60 66 71 75 75 71 71 71 94 73 76 75 76 83 98 89 83 85 87 81 84 84 76 77 73 70 67 67 65
36 36 35 35 34 35 46 52 60 62 64 63 63 63 67 73 75 68 65 71 95 81 69 65 66 86 91 72 66 76 97 96 93 81 74 88 74 75 74 75 75 74 72
37 37 36 36 38 41 46 56 63 65 67 67 67 67 70 72 72 64 91 96 69 63 60 76 80 67 64 67 75 94 93 92 85 74 72 78 80 84 83 81 78 77 76
38 37 39 40 44 46 49 60 64 66 69 71 72 79 80 70 73 97 70 64 66 68 85 75 70 70 74 76 77 87 98 94 91 89 68 85 87 88 90 73 73 73 78

GFSMA_925_rhum_003.txt.gz
RH
85 90 82 78 70 59 51 50 47 43 37 33 30 28 28 30 31 32 42 34 40 38 58 64 71 76 72 72 73 74 75 78 82 83 84 84 81 88 95 96 97 98 97
89 82 64 58 51 47 44 41 37 30 24 21 20 19 21 19 28 38 31 36 34 32 35 69 57 54 53 57 64 66 67 66 64 63 64 67 70 79 80 84 83 90 94
69 64 54 50 43 40 37 31 22 17 18 17 16 17 19 23 36 21 22 33 22 29 29 43 46 48 50 56 52 54 59 61 58 58 58 64 69 70 76 80 80 82 84
65 58 42 33 31 26 21 18 17 16 18 14 14 17 17 28 24 13 27 15 24 27 24 21 16 25 53 50 49 50 51 52 51 55 66 66 65 66 81 84 85 84 82
37 29 24 23 22 20 18 17 15 14 23 14 14 14 18 36 31 23 21 18 27 21 24 23 18 22 36 47 47 46 50 52 59 66 65 61 65 68 71 72 73 75 76
23 23 24 24 22 18 16 14 13 13 25 17 16 15 22 39 36 26 20 19 23 23 26 22 18 21 33 37 44 45 46 43 46 54 58 56 59 60 62 63 63 63 63
25 25 24 22 19 16 18 16 14 14 18 23 33 26 24 27 33 28 22 20 22 23 20 23 17 26 29 32 27 40 38 40 51 54 53 57 62 62 61 61 60 59 60
24 24 23 20 18 15 15 16 18 17 18 28 36 54 60 41 34 17 23 21 28 18 18 18 18 25 33 35 30 26 35 51 56 55 54 58 62 62 62 60 57 56 59
24 23 22 19 16 15 16 18 19 21 25 21 39 32 47 59 49 30 20 30 21 35 26 26 26 31 36 28 28 27 34 52 54 54 62 64 62 59 58 57 56 54 53
23 22 19 17 16 16 16 18 18 20 23 29 24 24 26 37 59 58 34 28 34 34 34 28 30 35 29 35 29 32 45 51 52 58 57 57 57 58 57 56 55 54 55
21 19 17 16 15 16 17 16 17 20 22 25 29 31 31 30 31 62 44 41 38 34 30 31 35 28 33 30 35 37 47 48 48 52 56 56 56 58 58 57 57 55 54
21 19 17 16 15 15 15 16 19 21 24 26 27 28 32 42 46 48 52 45 42 34 31 32 33 33 31 37 37 39 49 47 52 49 51 56 58 58 57 57 56 54 55
22 20 18 16 16 15 16 19 21 24 26 28 28 30 31 34 35 40 46 46 45 42 39 38 37 39 40 38 38 40 51 49 47 49 53 56 56 57 57 56 55 55 53
21 19 18 17 16 16 18 22 25 27 28 29 30 32 34 34 42 48 52 56 61 48 46 46 46 43 42 44 48 51 48 48 49 51 54 56 56 56 54 54 54 54 60
20 18 17 16 16 18 22 26 28 28 29 30 33 34 36 43 50 53 58 61 66 77 70 55 54 57 54 52 51 54 56 59 53 57 59 57 56 60 55 52 52 50 49
19 17 16 16 18 22 26 28 29 28 30 33 36 38 42 49 53 56 58 64 72 75 83 64 64 63 61 63 62 60 62 64 66 66 58 56 51 50 51 52 56 66 75
18 16 16 19 22 26 28 29 28 30 36 38 40 43 47 51 54 56 58 69 76 77 80 73 71 72 75 73 70 70 76 94 79 63 54 51 49 51 52 57 66 67 65
18 18 20 23 27 29 30 30 32 39 41 43 43 45 48 51 56 58 61 71 76 77 81 88 75 64 63 66 72 79 88 70 62 56 52 52 54 55 60 67 63 68 61
20 21 24 29 31 32 31 30 43 44 44 44 43 45 47 54 57 58 64 69 74 77 72 71 71 70 77 82 75 90 64 60 60 58 56 62 63 65 62 59 62 64 79
22 25 30 33 32 32 30 44 48 48 46 45 44 46 50 55 60 65 67 67 73 71 72 78 87 89 73 87 85 66 60 62 67 69 73 81 64 59 60 60 59 58 59
26 32 34 32 32 31 34 50 52 53 55 54 56 56 56 61 65 62 62 65 63 67 78 97 76 90 80 65 65 67 72 75 86 82 71 65 67 68 71 68 65 63 64
33 35 34 34 33 32 40 53 58 64 63 63 63 63 63 64 65 61 62 62 65 70 75 92 96 76 68 70 71 83 93 84 83 69 70 79 74 77 77 76 73 70 65
36 36 35 35 34 36 51 54 60 66 64 63 63 63 64 66 67 72 73 78 92 98 79 76 70 71 74 84 98 93 91 94 86 80 87 85 76 78 75 74 71 72 71
37 37 36 37 39 42 54 56 62 65 64 64 62 64 68 72 78 72 92 94 82 69 65 64 68 84 89 73 70 78 93 97 94 80 72 89 76 77 76 78 78 77 76
38 37 39 40 46 48 53 61 65 64 65 67 69 72 75 84 76 88 76 70 68 68 64 79 80 72 67 69 76 93 94 92 84 72 72 78 80 81 81 81 81 77 74
39 41 41 46 50 54 56 65 66 66 70 72 76 81 85 75 74 78 63 67 75 73 97 91 72 73 78 81 78 83 97 94 92 88 68 86 87 88 89 71 69 71 76

GFSMA_925_rhum_006.txt.gz
RH
85 92 79 75 64 53 50 46 40 34 28 23 19 18 20 19 26 38 34 41 38 42 73 66 64 62 61 67 72 71 73 72 70 69 69 72 72 81 84 88 94 97 97
85 83 67 55 49 45 41 32 23 19 18 18 17 18 21 24 32 23 33 29 30 32 58 58 57 56 62 62 60 62 65 66 65 64 64 69 78 72 70 82 86 86 86
80 65 54 45 37 29 22 18 18 17 18 16 16 16 17 25 16 25 23 22 22 23 26 42 52 55 61 58 59 59 58 59 57 60 64 72 70 69 75 87 89 90 89
64 53 42 27 22 21 20 19 17 16 16 13 14 14 16 33 22 19 23 20 20 22 22 19 19 35 53 52 54 56 55 57 63 70 74 68 67 73 75 76 78 79 80
49 34 23 24 24 23 20 16 14 13 18 12 13 13 18 33 31 23 18 21 20 21 20 19 16 13 23 50 51 50 54 53 51 50 57 64 62 64 65 65 68 67 68
24 24 27 26 23 20 16 13 12 12 17 18 15 13 23 40 37 31 23 23 20 23 21 18 16 13 19 41 50 47 48 47 47 51 61 58 58 64 66 66 64 65 63
26 28 28 25 20 17 15 13 12 12 17 23 23 18 21 26 27 32 15 21 22 19 16 17 15 13 14 30 34 40 43 43 47 58 60 59 59 63 65 65 65 63 62
27 28 27 23 18 15 14 13 14 15 18 27 25 47 55 30 19 15 19 19 14 20 16 18 16 12 22 32 31 38 38 42 52 58 60 61 65 65 64 64 63 62 61
27 27 23 20 17 14 14 16 17 18 23 21 35 29 40 48 57 28 20 24 24 28 25 26 20 22 21 23 25 30 30 47 51 56 59 62 62 62 61 62 62 61 59
25 23 21 18 16 15 14 16 18 21 23 28 24 24 26 33 51 58 31 25 33 31 32 28 27 25 24 27 30 30 37 49 50 50 52 57 59 60 61 61 60 60 60
22 21 19 17 15 14 14 15 18 21 24 27 29 31 32 32 43 55 45 43 38 36 35 33 30 31 30 30 33 39 43 46 48 50 55 58 59 59 60 60 59 60 58
22 20 18 17 15 14 14 16 20 23 26 27 28 31 34 40 46 48 60 47 47 40 42 38 34 34 36 40 40 40 53 51 49 55 57 57 59 60 59 60 58 58 60
22 20 18 16 15 15 16 19 22 25 27 28 30 31 32 35 38 45 52 56 56 49 43 43 40 43 41 44 44 47 50 53 54 54 57 59 59 59 58 59 59 59 57
22 20 18 17 16 16 19 23 25 26 27 28 31 34 35 36 42 49 55 63 66 55 45 48 54 53 53 58 57 56 57 56 54 56 57 57 57 61 62 59 58 58 59
21 20 18 16 16 19 23 26 26 26 27 31 35 37 40 41 46 51 53 58 72 77 62 57 62 64 66 67 64 61 62 64 59 56 57 59 70 65 58 57 54 53 54
20 18 17 17 19 24 27 27 26 27 32 35 39 42 43 45 48 51 54 57 63 80 87 64 69 72 74 73 70 67 67 66 64 64 69 65 54 51 51 52 53 53 54
20 18 18 20 24 28 29 28 28 33 37 40 42 43 43 44 48 53 56 58 65 76 88 76 71 74 72 64 65 69 72 75 81 93 67 53 52 54 55 55 58 62 73
19 18 20 25 29 30 29 28 33 40 46 46 45 45 45 46 52 55 59 63 70 72 84 84 84 72 67 70 75 85 80 84 86 64 58 56 56 56 58 67 75 73 75
20 21 26 30 30 29 28 29 45 50 50 51 51 51 53 56 58 60 65 73 73 77 80 81 74 72 74 86 80 86 81 71 62 61 60 60 62 64 70 70 64 68 71
22 28 32 32 31 30 29 36 52 55 59 61 60 59 58 61 67 69 70 65 66 67 67 71 75 82 91 91 73 64 63 66 70 73 76 74 67 65 64 63 63 62 63
30 34 33 32 32 32 32 53 57 59 65 65 58 56 58 66 70 65 63 64 68 73 83 96 94 89 75 64 66 68 73 76 80 73 69 70 70 72 74 73 71 69 71
34 35 34 34 34 34 36 57 59 61 67 64 63 61 62 64 67 71 70 72 75 99 94 80 80 70 67 69 71 83 94 84 85 72 75 87 80 78 76 74 73 72 71
36 36 36 36 35 37 50 60 61 64 66 64 65 66 69 70 73 77 76 81 96 78 70 66 69 71 73 84 98 94 91 92 86 82 88 90 78 77 73 72 70 73 73
36 36 37 37 38 40 60 61 65 67 67 66 67 68 74 76 80 78 88 97 75 72 70 68 72 88 95 78 75 80 94 98 91 78 72 90 77 77 74 75 75 75 75
37 38 39 39 44 49 55 66 69 69 69 68 68 78 81 79 78 78 87 76 72 74 66 81 89 76 73 76 81 91 94 93 83 73 73 76 75 78 79 78 76 73 68
40 40 37 43 50 54 53 70 70 71 73 73 76 69 73 74 72 87 72 69 77 74 95 94 74 74 81 84 80 81 91 95 91 89 67 86 87 88 88 69 65 71 76

GFSMA_925_rhum_009.txt.gz
RH
84 92 76 73 60 56 50 44 34 26 20 18 17 18 20 22 30 34 39 38 48 69 69 68 65 66 73 69 67 70 70 72 72 71 75 81 76 74 77 85 87 93 97
87 86 70 59 50 43 32 22 19 18 18 16 15 18 18 26 26 29 30 28 28 42 64 63 62 68 65 65 67 65 63 66 64 64 64 69 72 72 72 78 84 88 90
87 68 58 47 33 22 20 19 18 17 16 14 14 16 16 22 26 24 26 22 22 22 28 44 49 52 56 59 60 61 62 62 66 73 78 75 72 77 78 86 83 84 86
72 57 48 28 22 23 21 18 16 15 14 14 15 15 16 30 23 23 21 19 18 19 20 18 15 19 45 51 56 58 57 60 59 59 56 61 72 70 70 72 75 74 74
59 46 26 24 24 23 19 16 14 13 15 15 15 21 20 35 26 22 22 21 20 20 20 16 13 12 11 41 51 54 53 55 54 53 56 66 66 62 62 66 66 67 68
41 25 27 27 24 21 16 14 13 14 16 14 13 21 34 42 35 33 26 18 23 21 18 17 16 14 9 14 49 52 49 53 51 52 53 62 64 64 64 67 67 67 65
25 29 30 26 22 19 15 13 13 15 22 16 23 23 24 24 35 29 20 19 20 19 18 22 16 20 23 14 18 39 44 46 49 52 57 61 64 64 64 65 65 65 65
28 30 29 24 20 16 14 14 14 16 25 24 28 38 29 23 22 21 26 23 20 21 14 17 16 19 24 32 33 40 46 44 48 51 56 59 61 64 64 64 63 63 62
28 28 25 22 18 16 15 14 14 14 29 29 24 26 24 25 31 29 21 30 24 27 26 32 30 28 29 31 33 40 44 49 52 52 54 58 59 60 61 60 59 60 60
26 25 23 20 17 15 15 15 16 17 20 32 31 31 29 35 28 28 31 25 33 30 34 34 31 33 30 35 39 42 51 55 52 52 56 58 60 60 60 59 58 57 57
24 22 20 18 17 15 14 15 17 20 22 30 35 36 38 37 48 41 29 27 32 34 36 36 38 36 37 40 43 48 50 53 53 56 58 59 60 62 60 59 58 57 59
22 20 19 18 16 15 14 15 19 22 25 26 28 31 39 35 33 36 36 35 38 36 38 40 38 38 41 46 51 52 56 58 59 60 62 61 60 60 63 64 71 65 73
22 20 19 17 16 15 15 18 21 24 25 26 28 34 35 43 44 43 46 43 42 41 39 37 40 42 49 56 48 60 61 59 58 59 60 61 61 60 61 63 61 71 79
23 21 19 17 16 16 17 20 24 24 25 27 31 34 36 40 43 49 50 51 48 35 33 33 40 48 57 54 63 65 58 58 58 60 58 57 56 56 56 69 77 79 73
22 20 18 17 16 18 21 24 25 24 27 31 34 37 41 43 44 52 58 57 53 52 47 38 48 49 58 62 62 60 60 62 61 59 56 57 57 64 75 68 54 54 55
22 20 18 18 19 22 25 26 25 27 31 35 41 44 47 49 50 54 60 62 61 60 60 50 56 60 62 62 64 60 60 65 65 67 66 63 66 59 55 54 53 54 56
21 19 19 20 23 26 27 26 26 32 40 44 46 51 52 53 54 57 61 64 65 65 63 64 63 65 64 62 58 62 68 72 74 68 63 61 62 58 60 66 67 66 63
21 20 21 24 28 28 28 28 32 42 48 51 54 57 59 57 60 61 64 66 66 68 72 71 70 67 60 62 66 76 78 68 62 62 62 60 60 60 62 67 76 79 78
22 23 26 28 29 29 29 29 41 50 55 59 62 62 58 60 60 62 68 70 69 70 72 75 69 64 69 78 83 67 60 54 55 59 62 64 65 68 68 70 71 71 71
24 28 30 30 30 31 31 33 51 57 60 63 65 58 59 62 64 72 72 70 69 64 68 70 80 87 71 66 63 58 58 62 64 68 71 69 67 65 65 65 66 67 67
29 31 32 32 32 32 33 57 61 60 62 65 66 60 63 69 74 72 69 69 69 74 91 94 82 73 67 58 60 64 69 75 74 71 69 68 65 68 72 71 70 69 70
32 33 33 33 34 34 36 62 64 64 66 69 68 66 67 67 75 76 74 73 76 94 97 86 78 63 58 62 67 80 84 81 80 66 67 77 74 73 70 68 68 70 71
34 34 34 35 36 36 56 63 64 66 70 70 70 71 72 73 75 80 80 83 97 83 74 71 64 63 68 78 98 92 85 82 80 77 79 80 72 71 68 67 68 71 72
34 34 37 38 38 39 59 65 69 71 72 72 70 71 76 77 82 82 80 99 86 74 68 69 70 81 94 81 79 82 90 94 86 74 67 80 70 69 68 69 70 73 74
35 38 39 40 41 45 54 70 72 71 72 73 72 75 78 76 74 67 90 86 68 66 65 75 88 81 74 77 82 89 90 91 80 70 70 72 69 72 74 74 72 69 72
39 38 38 44 47 50 51 73 72 72 72 70 74 74 77 75 69 79 72 68 73 71 90 90 71 70 74 76 82 80 90 94 90 87 62 83 83 79 79 58 59 71 72

GFSMA_925_rhum_012.txt.gz
RH
78 79 68 68 59 49 44 40 34 26 22 22 21 24 25 27 28 34 46 50 68 74 74 72 77 73 71 72 74 73 69 73 72 71 70 69 76 78 77 76 79 85 90
83 73 73 64 47 39 32 26 25 25 22 21 20 22 24 27 28 34 35 50 39 54 62 60 60 61 62 64 65 66 68 67 69 73 79 81 78 76 78 76 88 88 91
81 81 65 50 37 29 26 26 25 26 23 21 21 22 24 25 28 33 31 33 33 25 25 29 40 45 47 52 56 60 63 62 64 63 66 64 67 77 74 77 81 81 84
84 67 49 37 29 29 28 26 24 24 24 23 23 22 24 29 26 27 28 27 31 29 28 17 13 10 11 31 46 54 56 56 60 61 60 59 61 65 68 67 69 70 70
74 55 38 30 30 28 27 23 24 25 25 24 21 19 28 32 28 26 27 29 32 33 30 29 20 19 16 21 49 53 56 56 56 58 57 57 57 67 66 65 64 68 69
57 39 32 30 29 28 24 24 24 27 27 25 24 23 36 38 32 32 30 26 27 29 29 28 25 23 27 38 47 52 52 52 55 56 56 58 59 66 66 66 65 66 66
39 32 32 30 29 26 25 24 26 26 27 26 20 21 24 30 39 38 20 22 26 26 24 23 24 24 23 29 34 47 53 54 55 55 57 58 58 64 64 64 63 63 63
28 32 33 30 28 28 28 28 29 26 27 28 23 25 21 19 21 25 24 24 21 22 23 24 27 25 26 28 32 44 46 53 58 60 60 59 59 61 63 62 62 60 61
31 32 30 29 29 30 31 30 29 26 25 29 27 22 20 20 20 20 23 23 22 22 24 29 28 27 29 29 32 35 46 58 58 60 62 61 62 63 63 62 60 60 58
33 30 29 30 29 30 31 27 28 28 27 26 27 26 25 24 21 23 21 22 24 25 28 29 30 29 30 31 35 40 49 57 57 58 60 63 64 63 62 61 59 60 62
32 29 30 29 29 29 29 29 30 29 29 28 29 28 27 27 29 30 29 23 25 27 29 31 31 31 30 33 36 41 52 56 62 65 65 64 63 62 60 58 58 57 63
32 31 30 30 29 30 31 32 34 34 32 32 32 32 31 29 27 29 29 28 30 29 29 31 32 31 33 36 41 45 53 63 64 64 64 64 63 61 59 58 58 62 71
31 31 29 28 29 31 31 32 34 34 33 32 32 31 34 35 34 34 34 33 32 32 28 29 27 29 35 41 41 47 60 63 58 59 61 62 62 60 59 57 57 58 56
30 30 28 27 27 28 30 32 33 34 34 34 38 38 38 37 38 39 39 40 39 30 27 24 26 31 38 39 48 54 53 52 55 57 58 58 57 56 57 57 56 67 75
30 28 28 28 28 29 30 31 31 31 34 37 37 39 41 41 42 42 43 43 42 42 35 29 30 33 39 45 47 51 52 52 55 61 63 62 62 64 66 69 65 65 60
27 28 28 29 29 30 31 32 32 34 34 36 40 43 43 42 42 43 44 44 44 44 45 35 36 39 44 47 49 51 50 55 57 59 61 62 61 60 63 59 61 57 58
28 27 28 28 29 30 32 31 32 35 39 42 44 48 50 47 44 41 42 44 45 46 46 45 43 46 49 50 49 51 53 57 60 54 53 55 58 61 65 70 71 72 68
27 28 29 30 31 32 32 30 32 38 42 45 47 51 51 43 43 42 44 46 48 50 51 53 54 52 51 54 57 57 54 48 47 46 50 57 62 64 65 67 70 73 75
30 31 32 32 33 35 33 32 34 40 45 48 51 52 50 45 44 43 46 51 54 53 55 56 54 55 60 67 61 55 49 46 48 51 53 56 60 64 67 68 67 67 69
32 33 34 35 36 35 36 36 44 48 49 52 56 56 54 51 52 54 56 55 52 54 54 57 64 77 68 60 54 46 47 52 57 60 60 61 62 62 63 61 63 66 68
36 36 36 36 37 36 34 50 52 52 52 52 52 53 51 56 71 74 69 63 61 64 74 79 94 72 64 50 45 50 58 66 66 63 62 61 55 59 65 65 63 63 64
38 38 38 38 38 36 35 65 64 54 50 52 51 50 52 60 60 67 65 68 71 87 96 92 80 63 50 47 54 63 79 77 76 62 59 68 66 66 64 63 61 62 65
38 37 38 38 38 40 51 66 66 58 54 52 57 59 57 56 63 62 70 71 80 92 84 70 65 52 54 60 81 94 80 78 74 71 73 73 64 61 61 61 61 65 69
37 37 38 40 41 42 44 67 70 58 54 55 58 59 58 60 60 71 75 91 93 69 54 56 57 62 76 90 84 76 84 84 83 71 63 72 63 62 61 64 65 68 72
37 39 41 42 40 42 59 70 72 57 52 54 55 55 61 64 69 69 88 92 61 52 53 59 72 82 74 70 73 81 89 88 80 69 66 64 61 68 70 68 61 55 61
40 41 42 43 47 45 53 72 70 60 55 53 53 55 59 70 64 84 78 61 60 58 68 87 65 61 61 63 68 70 81 94 88 86 61 76 81 76 75 57 55 67 68

GFSMA_925_rhum_015.txt.gz
RH
66 62 66 63 58 51 46 42 35 26 23 22 20 20 22 23 24 30 48 60 73 75 73 72 71 70 70 70 71 71 72 74 75 74 78 84 86 83 81 83 81 90 94
65 68 63 57 49 42 34 27 25 26 24 22 20 19 22 23 26 30 35 42 45 49 50 58 55 53 52 53 56 61 64 66 66 68 67 70 71 72 80 78 84 87 85
74 67 60 56 41 32 27 28 25 25 24 22 21 21 21 24 26 31 31 34 37 30 20 17 18 19 23 42 48 51 57 61 59 62 64 62 62 65 67 70 75 76 77
69 62 54 42 34 30 30 27 25 24 25 24 24 20 23 25 24 26 27 27 31 28 29 27 17 15 18 27 50 54 58 60 59 61 63 62 63 63 62 72 69 66 67
75 71 48 38 32 30 29 23 26 27 27 25 21 18 29 28 26 24 26 29 31 32 33 30 25 23 24 38 48 54 59 61 59 63 62 63 61 62 61 67 69 69 67
77 54 39 32 32 30 27 26 27 28 29 26 23 21 30 34 28 28 28 27 26 28 28 27 25 25 26 32 38 46 56 60 60 64 63 64 64 63 62 66 67 68 66
51 40 35 32 30 29 28 27 28 29 30 27 23 24 24 28 36 34 32 22 24 23 24 24 25 28 26 31 33 42 52 56 64 66 66 67 67 65 63 63 64 64 63
45 36 34 32 32 31 32 33 32 29 30 29 25 26 28 22 23 22 22 23 21 22 24 25 29 28 28 29 31 41 43 55 64 67 67 67 68 69 68 66 64 63 63
36 35 35 34 34 35 36 34 33 30 30 30 28 25 28 28 23 18 23 22 24 23 24 27 29 29 29 31 32 35 41 53 63 63 64 67 68 68 66 65 63 62 62
33 35 35 35 35 35 35 31 31 31 29 29 28 25 26 24 26 28 20 23 22 24 25 27 29 30 30 30 32 36 43 54 60 64 70 71 69 68 66 65 62 61 58
34 33 34 34 34 34 32 34 34 31 30 28 30 30 28 27 28 29 36 28 27 26 28 28 29 30 30 30 33 36 43 52 59 67 69 68 66 64 63 61 60 58 56
34 34 34 34 34 35 36 35 34 35 33 32 32 32 32 32 29 31 35 33 32 31 29 30 28 30 29 31 35 41 46 53 62 66 66 66 66 65 63 61 61 60 59
33 34 33 33 34 35 34 35 36 35 34 33 33 32 32 34 34 34 36 38 38 36 33 28 26 24 26 30 37 40 51 55 55 59 63 64 63 62 61 61 60 59 60
33 34 31 30 32 32 33 34 35 35 34 36 38 40 39 38 38 39 40 42 46 40 33 28 27 26 30 33 38 43 47 48 52 56 58 60 61 61 61 61 64 63 60
32 31 30 30 30 30 30 31 31 30 33 34 38 38 40 40 40 41 42 43 44 51 44 34 31 31 34 36 40 45 47 49 51 54 56 58 59 60 61 60 61 60 66
30 31 30 30 30 30 30 31 32 31 33 34 37 40 42 42 41 42 42 42 42 44 50 40 39 38 39 43 46 47 49 51 53 52 53 56 57 57 58 60 63 66 69
30 29 30 30 29 30 30 29 29 32 34 37 40 43 47 48 46 40 40 40 42 44 48 46 46 47 49 49 48 52 59 56 55 50 48 50 54 58 62 65 70 72 70
28 28 28 28 29 30 29 28 28 31 35 38 41 45 49 44 43 40 40 40 42 44 50 52 53 53 52 50 55 67 62 53 52 45 48 53 57 60 62 63 66 70 71
29 29 30 30 30 33 31 30 29 32 36 41 44 46 47 48 46 42 44 47 51 53 53 54 55 54 57 63 78 61 54 50 46 49 52 56 58 61 64 64 63 62 63
31 32 32 33 34 32 33 33 38 42 45 46 48 48 48 50 49 50 60 62 59 60 60 61 65 72 73 86 60 53 48 50 56 59 64 60 61 60 61 58 61 65 67
33 34 34 34 35 34 30 41 52 51 48 45 45 45 45 46 56 63 67 68 68 67 71 83 81 84 74 60 56 51 56 64 67 76 65 65 60 62 66 65 63 63 64
36 36 35 34 36 33 36 52 68 59 50 46 46 45 49 55 52 56 61 62 64 67 83 86 96 73 68 58 54 66 75 86 87 65 66 69 68 71 68 65 61 61 64
36 35 35 34 34 37 39 62 67 63 54 48 50 54 55 52 55 58 60 62 71 74 80 72 66 59 58 61 71 82 89 83 78 75 75 81 76 70 65 62 62 63 68
35 34 34 35 38 39 39 58 69 63 49 48 49 52 52 53 56 60 68 82 85 82 66 55 56 60 66 83 98 97 81 82 81 77 73 82 71 69 66 66 68 70 72
34 33 36 38 36 35 42 63 72 60 50 49 48 48 51 55 58 61 67 87 82 63 58 56 62 72 72 66 65 68 81 86 84 74 73 75 73 75 75 75 69 59 60
36 38 39 38 38 41 42 60 68 62 56 52 52 52 52 57 59 62 74 71 71 66 64 78 79 68 61 60 62 63 72 96 92 88 70 80 91 87 86 64 61 70 71

GFSMA_925_rhum_018.txt.gz
RH
66 63 70 70 63 52 47 40 32 26 24 22 20 19 21 22 25 33 42 45 73 75 74 70 66 63 60 60 61 64 66 69 69 71 71 72 75 76 78 84 83 90 90
65 67 63 59 51 45 37 28 25 25 25 22 20 20 21 22 25 33 40 37 38 36 36 49 52 52 51 52 52 56 59 62 64 64 65 66 66 68 69 70 74 80 80
66 67 63 52 44 34 28 27 25 24 23 23 23 22 21 23 25 31 32 34 33 30 28 25 21 39 45 49 56 58 60 63 65 64 66 66 66 68 66 66 70 73 70
66 67 64 44 38 34 28 25 21 24 25 24 22 18 20 24 25 27 28 29 31 31 32 31 27 35 37 42 52 56 60 66 66 67 67 67 68 67 67 68 65 71 72
71 68 50 41 36 28 26 22 24 23 23 22 21 19 27 28 26 25 27 29 30 29 28 29 26 27 33 36 44 49 58 64 66 66 70 71 70 71 69 68 67 70 70
68 59 45 37 33 28 26 26 28 28 25 21 23 24 28 33 28 26 28 30 27 27 26 25 24 24 29 38 40 44 53 58 64 73 71 74 74 75 73 70 68 68 69
72 50 39 34 29 27 27 28 29 29 28 20 22 23 26 25 36 34 34 29 23 22 23 24 24 27 28 30 34 40 49 54 66 71 74 72 69 73 71 71 69 67 67
53 45 38 31 30 29 30 30 30 29 30 23 24 30 41 31 26 23 27 23 24 21 23 24 25 28 28 30 30 40 44 48 58 68 71 70 74 74 72 70 68 66 65
45 40 34 31 30 32 33 32 29 29 30 29 22 26 39 42 32 22 22 24 22 24 23 25 27 28 28 29 31 31 39 48 57 65 69 71 73 72 70 68 67 65 64
39 36 33 32 33 34 33 32 30 28 29 29 28 26 24 25 39 43 25 23 25 27 27 28 28 28 29 30 30 31 39 46 56 60 66 69 70 68 67 65 64 62 62
36 35 34 34 34 35 30 30 31 28 26 28 28 29 29 28 28 38 51 38 29 28 30 31 30 30 29 28 29 30 36 50 53 60 64 67 66 65 64 63 64 66 68
34 34 34 34 34 34 33 31 29 29 28 29 29 31 32 34 36 38 50 44 42 37 36 35 30 29 27 30 29 36 44 48 53 58 60 62 63 63 63 63 61 60 63
34 35 34 34 34 34 33 32 32 31 32 31 32 32 32 33 35 35 39 48 53 44 42 38 31 29 28 28 31 36 43 48 50 54 58 61 63 62 61 61 60 62 64
35 36 35 33 34 32 31 32 32 32 32 32 35 36 39 39 40 40 42 47 57 53 46 40 37 33 34 36 37 42 42 49 51 54 58 60 59 59 60 59 58 62 65
35 34 32 32 32 31 30 31 32 31 31 33 34 38 38 40 40 41 42 43 50 60 54 43 41 38 39 40 42 48 48 49 52 57 59 57 57 58 57 58 58 58 61
35 31 30 30 30 30 29 29 32 31 31 32 35 37 39 43 44 45 45 42 42 47 58 45 48 46 47 49 51 52 50 52 58 60 56 56 56 56 57 59 62 71 70
32 30 30 30 30 30 30 30 30 30 32 34 37 39 42 46 49 46 42 41 41 42 57 50 49 53 54 54 54 53 55 65 67 59 53 55 52 57 59 64 70 67 69
30 30 30 29 29 29 28 28 28 29 32 34 38 41 44 47 47 47 44 42 45 48 52 60 61 60 60 58 60 68 78 71 58 54 52 52 57 60 63 64 66 71 75
29 29 28 29 30 30 30 30 29 30 34 38 42 45 47 49 50 50 49 52 58 63 63 69 69 67 67 73 77 78 67 56 52 52 54 57 59 67 66 65 64 64 66
29 29 30 31 31 31 30 31 35 42 46 48 47 47 47 47 47 49 54 60 67 69 72 73 75 84 84 81 81 68 64 57 60 66 66 73 71 66 67 64 67 70 71
32 32 33 32 31 31 30 30 32 46 50 50 47 45 46 46 55 58 60 60 64 68 70 82 82 78 94 72 72 67 64 64 68 75 80 71 69 70 72 72 73 73 72
34 33 34 35 32 31 31 34 61 50 45 52 50 49 49 53 55 56 59 60 61 65 74 81 97 84 70 71 64 67 71 79 85 77 72 78 74 75 77 80 74 70 70
36 34 32 31 34 35 37 36 64 56 49 53 50 49 51 54 54 54 57 63 65 75 74 74 76 71 64 64 68 83 90 97 92 81 81 83 77 79 75 73 72 74 72
34 33 31 32 34 39 38 40 64 52 56 53 50 49 50 50 52 58 60 63 72 75 76 69 65 64 66 74 92 96 86 81 82 81 79 90 78 77 77 78 76 77 78
31 33 33 36 36 37 43 52 66 65 62 58 55 54 54 56 59 60 63 65 77 75 74 68 68 75 77 72 68 68 78 82 82 77 79 83 82 87 84 82 74 67 69
33 30 37 37 37 37 41 52 63 68 71 66 65 64 62 63 63 62 64 71 75 75 70 77 85 68 70 66 68 69 74 95 92 87 72 92 91 93 84 66 63 73 75

GFSMA_925_rhum_021.txt.gz
RH
59 59 72 80 75 66 52 46 36 28 24 22 20 20 20 23 28 41 43 48 68 74 71 66 63 61 59 57 58 61 63 65 69 69 69 71 71 72 72 74 76 83 84
61 68 78 72 56 50 45 38 28 25 24 21 21 21 21 24 26 40 37 36 37 30 45 52 51 51 52 56 60 62 64 67 69 67 69 70 70 72 73 70 70 73 76
65 68 66 57 53 48 40 30 25 23 21 22 22 22 22 23 27 35 36 34 32 30 30 41 43 45 46 50 56 60 64 70 70 71 71 73 72 73 73 73 72 70 73
67 68 64 55 48 38 34 26 20 21 21 19 19 18 20 24 26 30 30 31 30 29 30 31 27 38 41 44 51 56 63 68 69 70 74 75 76 76 76 73 73 72 72
68 65 66 56 45 38 27 22 21 22 21 19 20 21 27 26 26 27 27 28 29 29 25 26 23 22 23 44 49 51 56 64 66 75 76 79 78 76 78 78 76 73 72
64 69 64 52 42 31 24 25 27 28 22 20 22 24 27 32 27 26 27 30 28 27 24 23 23 23 24 36 41 44 50 57 63 73 77 77 75 76 77 74 74 73 72
64 68 57 43 37 28 26 28 29 30 24 20 20 25 28 31 33 30 31 32 24 23 22 22 23 24 26 27 27 37 49 55 58 65 74 75 77 76 75 74 72 70 70
70 64 54 43 32 27 28 30 31 31 29 21 22 36 39 30 27 27 31 24 24 22 22 24 26 28 28 28 28 36 40 45 54 60 69 72 74 73 72 70 69 68 67
69 63 50 41 30 29 32 32 31 31 30 26 20 24 35 39 35 24 25 26 24 26 27 28 28 29 30 29 29 29 30 43 48 57 66 69 69 70 68 67 66 65 64
62 47 41 35 30 32 35 34 31 31 30 28 27 24 22 24 35 33 26 24 27 28 26 25 28 31 31 29 28 28 29 42 47 57 62 64 68 66 65 64 62 69 77
43 40 37 32 32 34 34 34 32 30 28 27 26 26 27 29 30 38 48 38 28 26 28 31 30 29 31 29 30 31 32 43 47 53 57 62 63 62 61 60 63 64 65
38 37 34 32 34 35 34 34 32 30 27 26 26 27 28 32 37 38 52 50 45 38 38 32 32 34 32 30 31 38 46 48 51 54 54 58 60 61 59 60 61 62 66
38 35 34 34 35 34 34 32 32 30 29 28 29 30 31 32 35 37 42 50 58 44 42 39 36 34 34 37 37 44 51 52 52 53 54 58 61 62 61 59 57 59 59
41 38 35 35 34 34 34 33 32 32 30 28 30 32 34 36 39 41 43 48 66 57 45 42 40 38 38 33 35 48 46 52 55 56 57 60 63 62 60 59 59 57 58
40 37 34 34 35 34 32 32 32 32 30 30 32 34 37 39 41 42 43 44 52 69 57 47 45 41 45 46 51 54 55 56 59 58 59 64 65 61 60 60 60 61 73
40 36 36 34 34 32 32 31 31 30 30 31 34 36 38 40 42 44 47 45 42 49 64 44 48 49 54 58 57 58 57 58 60 69 71 65 60 61 61 60 64 62 71
38 36 38 44 34 31 30 31 31 30 31 32 35 38 40 43 45 47 46 45 44 44 62 57 58 62 65 62 62 59 60 68 74 69 62 61 60 59 62 63 65 64 67
38 38 36 31 30 30 30 29 29 29 30 33 35 39 42 45 47 48 49 49 48 51 60 68 71 72 71 67 70 75 77 81 74 64 61 58 60 64 64 68 70 67 67
41 45 31 30 30 29 29 28 28 28 30 36 42 46 47 49 50 49 50 52 52 57 64 69 77 75 76 78 83 90 87 73 69 63 59 61 65 72 76 71 70 70 70
37 31 31 30 30 30 30 30 30 34 42 47 48 47 46 47 47 50 54 58 61 64 67 72 79 84 81 82 89 77 75 70 66 65 66 73 77 75 71 70 74 76 77
35 31 30 31 31 31 31 32 29 35 38 37 38 44 48 48 53 59 60 60 62 64 68 75 89 87 89 78 73 72 71 69 71 77 77 78 77 75 76 77 76 79 83
31 34 32 31 32 32 31 33 40 38 31 35 46 48 49 50 50 60 59 58 61 64 71 83 95 84 81 76 71 70 75 81 86 78 82 84 80 80 80 79 81 77 76
35 34 34 32 32 34 38 42 50 39 36 45 51 52 51 51 54 51 54 62 62 68 72 76 84 83 80 72 70 84 96 98 89 84 84 85 81 82 78 78 76 79 81
53 50 34 33 37 51 44 46 58 44 43 50 56 57 57 57 60 64 62 64 66 67 74 78 77 74 72 83 96 88 81 81 83 79 77 84 77 78 78 80 80 80 81
52 33 35 38 36 44 45 48 54 55 53 57 60 60 65 65 67 66 65 66 69 75 71 73 74 79 81 75 74 77 82 86 86 79 78 83 80 88 85 84 71 64 73
35 35 37 36 35 35 44 49 58 61 62 65 68 67 66 70 68 68 68 71 74 70 66 74 83 70 66 68 78 76 78 93 94 89 68 85 90 92 87 68 66 71 73

GFSMA_925_rhum_024.txt.gz
RH
73 79 74 65 80 74 60 49 36 28 25 22 20 20 21 25 39 46 51 60 74 76 71 67 63 61 60 62 65 67 67 71 72 71 73 74 74 76 76 74 75 77 78
66 74 70 81 80 72 54 42 35 27 24 21 21 21 22 25 36 45 43 48 48 49 56 54 54 54 54 60 63 66 70 74 73 74 74 77 77 76 78 76 76 76 74
63 61 71 82 62 47 45 40 32 24 21 21 22 22 22 25 33 40 36 33 30 29 38 48 47 48 50 54 58 62 69 72 73 74 78 78 80 80 80 80 78 76 76
61 65 74 76 52 47 44 37 25 22 20 18 19 19 23 25 30 37 34 31 30 28 29 28 28 31 42 53 56 58 62 68 71 78 79 83 82 79 79 80 80 79 77
64 67 69 57 51 48 42 29 21 21 21 19 18 20 28 26 29 31 30 29 30 29 26 23 22 22 22 39 48 51 55 61 66 76 79 80 78 78 78 77 77 76 75
64 68 65 58 51 46 37 23 23 25 23 21 23 25 31 31 27 28 28 30 30 27 24 23 22 23 24 26 34 42 48 56 62 66 73 77 77 76 75 74 74 73 72
65 68 65 57 53 49 36 25 29 28 23 22 25 30 28 34 29 29 31 31 28 25 24 24 24 27 28 28 28 39 44 50 54 61 66 73 73 74 73 72 70 70 70
66 66 65 63 54 40 26 28 31 31 27 21 25 34 38 31 31 35 34 29 25 24 25 27 29 29 31 31 30 35 34 42 50 53 61 70 71 70 70 69 68 67 66
68 66 67 64 51 38 28 30 33 33 31 24 21 26 43 40 35 26 29 27 26 26 28 27 26 30 32 31 30 30 29 40 44 52 60 65 67 67 67 66 65 65 62
70 68 65 58 50 35 29 32 34 34 33 29 26 21 21 23 32 28 26 29 28 28 26 24 28 27 31 31 29 30 35 46 44 52 57 62 64 64 65 64 64 62 64
70 66 59 55 41 31 31 34 34 35 33 31 29 26 26 28 29 37 40 36 30 27 26 28 29 29 34 32 30 38 54 54 53 56 60 63 62 62 63 63 61 62 63
64 61 55 50 39 31 34 34 34 33 32 30 26 25 24 30 38 40 50 50 46 35 33 30 31 35 33 35 36 37 54 57 60 59 59 60 60 61 62 61 61 67 61
58 47 51 44 36 34 34 34 33 32 31 30 29 28 28 29 30 35 41 50 56 46 40 37 35 34 36 38 33 36 54 60 59 60 61 63 64 64 62 63 62 60 59
55 50 43 42 38 37 34 34 33 32 32 30 29 29 30 33 36 39 42 48 64 60 49 41 38 39 40 37 46 57 56 61 63 63 63 65 65 65 65 66 62 61 59
56 50 43 39 41 34 36 33 33 33 32 30 31 31 34 36 39 41 42 45 51 66 67 45 41 41 45 51 58 63 62 58 63 63 66 70 70 69 65 63 62 64 70
56 48 42 44 42 38 34 34 34 33 32 31 32 34 36 38 40 43 45 48 47 51 68 47 44 48 53 58 60 62 59 72 71 76 74 71 69 67 66 65 65 63 67
51 45 46 47 41 51 44 34 33 32 31 32 33 36 38 40 42 45 47 46 47 48 66 56 57 58 64 67 66 59 65 72 65 74 76 71 69 67 66 67 67 68 68
48 49 47 45 49 41 52 51 40 31 31 32 34 36 38 42 45 47 49 50 50 50 56 70 69 68 72 72 71 74 76 67 76 78 76 70 67 69 69 73 75 72 72
48 47 45 47 52 38 35 35 30 30 31 32 36 41 46 49 50 51 50 51 51 54 59 69 77 74 76 73 79 84 84 79 72 74 67 68 69 75 79 77 75 74 74
50 50 48 51 56 51 31 30 30 32 36 41 44 47 47 47 48 48 54 59 61 65 65 68 76 80 81 83 83 85 77 74 73 71 72 78 80 80 76 76 78 78 80
60 67 82 70 55 44 41 32 34 33 35 36 35 38 43 49 54 61 60 62 63 62 63 68 82 88 90 79 81 79 82 76 76 80 76 79 77 82 79 80 78 78 83
67 63 53 51 38 38 38 34 35 34 27 28 38 43 47 49 51 62 63 59 59 64 68 77 84 92 87 84 81 83 82 88 88 76 86 84 82 83 80 77 81 85 81
70 66 64 47 42 57 60 45 37 32 32 38 47 52 54 55 55 56 59 66 66 69 72 72 80 85 87 82 80 86 97 98 90 86 85 84 80 82 78 78 78 80 81
64 66 58 65 70 68 66 68 39 40 41 46 56 59 60 63 65 69 69 68 68 69 71 75 80 78 77 90 98 90 81 86 88 82 80 86 77 79 78 76 79 83 84
96 96 88 70 54 59 50 52 47 52 49 54 64 67 72 71 73 70 68 70 79 73 72 71 76 81 83 79 73 80 87 91 87 82 82 85 82 80 81 81 71 63 79
77 46 40 36 34 37 59 55 57 57 57 64 70 68 69 75 72 71 72 74 75 70 66 80 82 68 60 62 78 81 84 95 95 89 70 80 86 90 83 68 68 66 72

GFSMA_925_rhum_027.txt.gz
RH
78 85 84 87 70 81 66 59 47 32 26 23 21 20 21 29 47 50 53 77 82 77 72 67 63 62 63 66 69 71 75 78 76 77 78 80 80 79 80 80 78 78 80
73 82 84 82 72 80 70 54 39 33 27 23 20 20 22 30 43 49 51 60 62 61 59 57 58 56 59 61 64 68 76 76 78 77 81 81 83 83 83 83 81 80 79
67 72 80 76 80 80 67 42 36 30 24 21 22 22 23 28 39 44 40 34 32 36 48 50 53 53 54 61 61 64 70 73 75 82 82 84 84 81 81 82 82 82 80
67 70 76 75 85 74 52 39 36 26 21 20 21 22 24 26 38 40 35 32 30 28 30 27 27 33 47 50 55 58 61 65 72 79 83 83 82 81 80 79 79 78 78
72 69 69 73 85 52 42 41 34 23 21 19 19 19 24 26 34 38 34 30 30 29 26 24 22 22 24 41 46 49 52 58 66 72 74 80 79 78 78 77 76 76 75
76 66 66 75 74 49 43 38 27 22 23 21 22 29 31 29 34 36 33 30 31 29 26 24 23 24 26 31 40 46 50 52 60 63 67 74 76 75 75 74 73 72 71
76 67 69 74 59 49 47 40 25 26 24 24 28 32 33 34 30 30 31 32 32 29 26 25 25 27 28 28 29 42 44 45 50 58 60 66 73 73 71 71 70 69 68
74 68 68 64 57 47 44 37 26 29 26 23 25 35 42 34 37 37 36 34 31 27 25 27 28 28 28 29 30 31 39 42 46 52 58 63 70 71 69 69 67 67 66
70 67 67 64 63 58 52 40 28 32 30 24 24 28 46 42 38 28 33 31 27 26 28 28 27 28 27 29 29 29 30 45 49 51 57 62 67 67 68 66 67 66 65
74 66 66 67 63 58 52 43 30 33 34 28 24 22 24 26 34 29 31 30 30 29 29 27 29 28 28 30 31 33 50 58 57 59 62 66 67 67 66 65 65 65 62
78 70 69 68 63 55 50 39 31 34 35 34 31 26 26 26 26 33 34 35 32 31 30 29 30 30 33 31 31 34 58 62 62 64 66 67 67 67 65 64 65 65 63
78 73 71 68 62 54 46 38 32 34 35 35 33 29 28 30 35 37 47 46 44 31 30 29 33 33 34 33 34 34 47 59 62 61 62 65 67 67 66 68 66 64 61
80 74 69 67 58 50 51 35 34 34 34 34 32 29 27 26 26 30 36 47 51 45 37 33 35 35 35 36 36 34 50 62 65 67 68 70 70 70 69 68 66 63 64
78 76 69 64 55 49 46 42 39 33 33 32 32 30 29 28 30 31 34 44 59 60 51 39 37 38 41 39 40 54 53 64 65 66 69 72 72 72 72 70 68 66 62
80 76 69 59 50 47 44 40 36 33 32 32 31 31 31 32 35 36 38 40 46 61 65 44 38 38 39 45 52 63 65 56 72 76 76 77 75 73 71 69 67 65 66
79 74 63 58 49 50 45 42 38 37 35 34 33 33 33 34 38 40 41 44 47 50 66 46 43 43 46 56 61 68 63 64 67 78 72 76 76 74 72 69 69 67 65
76 74 63 56 50 49 43 41 38 38 48 44 33 34 35 36 38 43 45 47 47 49 66 56 53 51 62 64 65 64 61 61 62 74 78 79 78 75 72 70 70 70 69
74 70 63 57 52 46 45 48 64 41 40 41 46 47 37 39 42 46 48 48 50 51 57 65 60 64 68 67 71 72 64 64 70 68 82 80 75 73 74 74 74 78 82
68 64 57 55 53 50 56 58 73 74 59 48 38 35 38 42 47 49 51 52 51 52 55 67 76 72 72 74 77 74 78 79 72 74 75 74 75 78 80 77 74 74 75
62 60 60 62 57 61 69 74 68 47 47 37 39 43 47 48 47 48 49 54 60 63 65 69 72 73 76 80 84 82 82 78 80 75 77 82 84 83 77 78 82 84 83
65 61 57 59 61 65 66 60 51 48 45 42 41 40 42 46 52 66 64 60 64 65 63 66 78 79 87 88 85 81 86 86 86 81 78 82 73 83 74 77 73 79 84
69 62 70 77 85 88 86 82 66 42 34 34 38 39 45 48 50 54 68 70 64 63 68 77 80 92 91 84 84 88 90 96 87 78 83 87 85 82 75 72 72 86 85
84 85 83 78 81 93 89 55 45 49 33 36 42 47 51 55 56 58 61 71 71 72 73 75 79 79 83 81 79 89 98 100 90 86 88 88 81 82 73 69 74 80 82
88 86 88 95 97 96 94 98 69 38 40 43 50 56 64 66 66 74 74 71 71 74 76 76 78 78 76 81 96 98 92 85 89 88 82 84 75 80 73 72 76 82 83
97 97 96 97 99 99 98 94 46 49 49 53 62 67 72 73 74 75 71 73 77 76 73 72 75 80 85 81 74 79 86 95 90 83 83 85 84 78 80 80 67 58 79
99 100 98 80 92 89 70 64 58 54 56 61 69 71 64 74 75 76 74 75 76 73 68 76 79 73 62 61 74 80 85 96 97 89 69 82 86 93 86 65 66 66 70

GFSMA_925_rhum_030.txt.gz
RH
94 98 95 91 86 78 85 61 51 40 29 26 22 20 21 33 51 48 68 85 81 79 73 68 65 64 67 68 71 76 80 79 79 80 82 83 84 85 85 85 84 81 80
77 88 90 87 90 74 80 64 56 36 31 26 21 20 23 37 48 49 61 73 69 66 62 61 59 60 61 65 67 74 76 77 79 84 84 87 87 84 84 84 84 85 84
77 75 82 86 84 74 78 63 45 36 31 23 21 21 24 32 43 48 49 52 48 46 55 57 55 53 60 58 62 65 66 70 76 82 85 84 84 83 82 81 82 81 80
75 75 78 83 81 80 82 60 43 35 27 22 21 22 24 31 42 44 37 34 32 32 35 39 36 46 48 53 54 55 56 62 69 77 79 83 82 81 80 79 79 78 78
65 71 69 77 82 83 83 60 41 34 25 20 21 22 25 28 41 43 36 32 31 31 30 25 21 22 29 44 49 52 54 58 66 67 70 76 80 78 77 76 76 75 74
54 63 71 75 80 86 68 44 39 32 22 21 22 26 31 28 38 42 38 33 32 31 29 24 23 24 25 29 34 48 52 50 56 58 65 66 71 76 74 73 73 72 72
56 70 76 75 79 83 64 46 36 28 24 24 28 34 37 32 36 42 40 34 33 31 28 24 24 25 26 26 26 26 54 50 50 54 58 62 68 72 72 71 70 70 70
69 77 79 70 70 78 53 42 38 28 26 26 27 35 43 39 36 34 33 33 34 31 27 26 27 27 26 26 25 26 26 54 51 52 56 61 67 69 69 68 68 67 68
78 77 77 69 70 70 61 54 45 33 28 28 25 30 49 46 42 35 37 37 34 30 27 28 28 27 25 25 27 28 34 47 57 58 62 65 68 69 68 68 67 67 67
85 82 78 74 69 66 60 56 50 37 30 28 26 28 27 28 41 34 33 33 31 29 29 29 29 28 27 28 29 32 42 60 66 67 68 70 71 70 69 68 68 66 66
85 86 83 79 69 65 61 58 50 36 31 32 28 27 26 25 24 32 36 37 34 32 32 32 31 30 31 31 29 30 46 63 63 64 65 67 69 69 69 68 68 67 68
91 88 83 79 72 69 62 61 51 38 33 35 31 30 28 30 34 33 42 42 39 32 33 32 33 33 34 32 33 36 36 62 65 67 71 72 72 72 71 71 71 69 67
95 89 86 82 74 70 67 60 51 38 36 36 34 32 31 30 30 29 31 44 44 39 34 32 34 36 36 35 35 38 34 45 68 70 71 75 76 76 75 73 72 70 69
82 83 84 82 76 72 70 58 47 43 39 39 38 33 30 30 28 27 28 38 55 57 47 34 36 37 39 38 36 43 49 54 71 73 73 77 78 79 77 75 72 70 68
86 82 84 81 76 72 68 55 50 43 47 48 59 39 32 31 31 30 30 30 36 52 60 42 37 36 36 40 46 57 61 61 75 74 76 79 75 75 74 72 70 70 67
90 86 85 82 77 78 62 54 46 48 50 40 45 40 34 34 34 37 36 37 40 43 62 43 39 40 44 47 55 61 62 62 56 72 76 78 79 78 76 74 72 71 71
93 88 86 82 78 70 58 50 46 41 41 43 43 42 40 39 41 42 41 43 46 50 64 53 52 48 51 58 59 62 65 61 55 61 79 80 83 80 78 76 74 72 72
90 86 84 79 72 62 53 48 44 47 49 56 66 66 57 42 40 43 46 49 50 51 56 64 57 56 62 62 66 71 68 62 65 56 84 84 81 80 80 80 76 75 75
84 82 79 72 66 59 53 46 48 61 63 67 73 77 63 50 44 44 49 51 53 53 55 64 68 69 71 68 72 76 74 71 68 67 78 82 82 85 85 82 78 77 76
78 77 70 66 64 59 51 58 66 80 86 76 70 66 67 56 56 55 52 49 52 59 62 68 71 72 73 74 82 85 85 80 80 77 70 74 84 82 80 80 82 86 86
74 70 72 67 63 66 76 84 88 83 85 85 90 76 57 49 46 55 60 66 63 65 68 66 74 78 82 85 87 80 88 87 89 76 73 78 75 77 68 69 76 80 85
78 77 76 78 81 83 88 84 72 69 76 72 59 88 46 43 44 50 62 70 71 69 70 78 78 86 90 81 81 86 91 96 88 74 80 86 84 81 74 69 62 85 86
90 92 91 85 97 100 98 91 89 88 94 98 71 42 47 50 51 50 53 71 72 74 76 79 85 82 82 78 79 86 96 100 98 90 90 90 84 82 67 66 71 81 84
96 96 97 97 96 99 99 99 99 95 69 46 51 51 57 58 57 70 76 75 72 74 77 78 80 80 77 81 90 96 87 87 91 86 85 90 76 77 69 71 74 83 80
99 99 99 100 99 99 99 93 48 46 48 54 59 66 68 64 60 78 74 76 85 79 74 75 78 84 86 82 76 80 86 95 91 84 84 88 86 77 80 78 63 61 77
100 100 99 99 99 98 98 76 52 52 55 60 68 70 64 74 75 77 77 92 79 74 71 80 81 76 62 60 68 79 86 96 98 91 73 81 82 90 88 66 66 67 71

GFSMA_925_rhum_033.txt.gz
RH
79 89 98 94 89 75 80 81 58 46 35 30 25 21 22 34 48 73 89 82 80 79 73 69 67 69 69 71 75 80 78 79 82 84 86 88 88 84 85 86 87 87 85
78 93 97 96 91 80 77 78 55 46 35 32 24 20 25 40 49 54 75 80 76 68 66 64 63 63 67 68 72 75 75 77 83 83 87 86 84 84 84 84 84 84 83
76 86 95 95 87 86 78 76 63 44 35 31 22 21 28 40 49 54 62 64 63 56 61 62 57 62 58 61 63 65 65 69 76 80 84 85 84 83 82 81 81 81 80
78 78 82 85 82 88 77 76 60 41 35 29 22 22 27 36 46 50 49 47 44 45 53 50 50 50 54 56 55 56 58 62 67 74 74 79 82 81 79 78 78 77 77
71 80 77 76 84 90 81 79 53 40 36 27 22 23 24 34 45 48 39 35 34 33 34 26 22 22 33 48 52 54 56 56 63 65 68 70 75 78 77 76 76 74 74
69 73 79 76 81 91 85 82 53 38 34 24 22 25 26 28 42 48 39 34 33 31 30 24 22 22 23 26 26 33 56 57 53 57 62 64 67 72 76 73 73 72 72
78 68 69 76 75 89 82 84 48 38 30 23 27 37 37 32 40 48 43 37 34 32 30 26 24 24 24 25 24 23 32 59 53 55 58 60 66 69 72 72 71 70 69
81 78 65 67 73 87 86 76 49 38 30 25 34 41 38 41 38 44 45 41 34 34 31 27 25 25 26 25 23 23 24 44 59 58 59 62 64 69 70 69 69 70 69
86 82 71 64 75 82 79 74 56 47 35 28 26 34 42 37 41 38 37 36 36 35 32 28 27 27 26 25 24 26 47 49 67 68 70 72 72 71 71 70 69 68 67
94 88 81 69 80 79 75 68 66 49 42 33 30 29 30 33 37 35 39 40 37 36 32 30 29 29 28 27 27 29 31 37 65 67 68 70 72 71 70 69 69 68 67
100 96 86 77 83 85 72 70 64 48 44 38 31 31 31 30 27 31 35 37 40 35 32 32 32 31 30 29 30 29 33 53 67 67 67 72 74 74 72 71 70 70 70
100 100 96 88 83 84 77 70 66 57 46 38 32 29 27 33 35 34 36 36 35 42 36 35 36 34 32 32 33 34 34 36 62 68 72 74 76 76 74 74 73 72 70
100 99 99 96 90 86 83 75 71 62 53 42 35 32 29 29 31 28 36 42 36 42 41 36 36 35 35 36 36 37 36 34 54 70 74 78 78 80 79 77 76 74 72
84 94 96 97 94 90 86 80 72 66 60 48 41 37 34 32 34 34 31 41 43 41 46 39 35 38 39 38 38 36 37 42 52 76 75 75 76 80 78 78 76 74 72
94 91 93 98 96 92 88 82 76 70 62 47 43 41 38 48 48 35 31 30 34 39 38 44 44 37 38 37 39 51 60 57 76 77 75 75 76 78 78 76 74 73 71
98 96 95 98 98 95 91 85 78 70 59 45 44 44 56 53 45 39 34 34 34 35 38 41 41 37 39 44 45 59 60 60 67 71 75 77 80 80 78 77 76 74 73
100 100 98 95 94 93 90 84 78 73 71 51 54 50 51 51 49 52 49 45 42 42 49 52 47 46 45 46 52 56 61 68 70 64 74 79 85 83 81 80 78 76 75
100 99 96 94 92 90 85 84 87 72 58 52 52 56 66 63 71 73 64 64 63 60 59 55 59 55 51 56 59 66 70 71 71 66 74 88 85 84 85 83 82 80 77
97 94 92 90 86 81 76 68 60 57 54 56 64 77 83 79 79 78 89 89 91 87 59 74 58 64 70 63 74 79 83 79 75 70 79 80 84 86 89 85 83 81 80
90 87 84 80 75 71 65 60 56 54 68 79 84 86 86 84 82 88 96 97 93 61 62 79 73 76 76 76 84 84 77 71 68 74 79 79 84 81 80 81 84 87 88
82 79 76 75 75 70 68 67 69 80 86 89 91 94 98 96 96 96 93 88 92 93 90 88 76 78 79 75 74 74 76 73 79 84 80 78 75 76 75 76 77 62 59
84 84 84 84 85 88 84 84 87 92 92 94 95 93 97 98 95 95 100 100 98 93 79 86 84 76 76 81 78 77 80 86 81 72 79 75 78 74 73 74 66 76 86
91 98 100 100 100 100 95 95 93 88 96 99 99 98 91 81 66 54 52 74 80 76 78 79 85 82 80 77 83 93 93 94 88 79 79 80 74 72 71 71 76 80 84
100 100 100 100 99 100 99 99 99 99 98 95 65 55 57 59 53 69 72 75 74 75 76 78 86 83 82 82 90 99 94 83 81 77 78 80 66 66 67 70 74 80 82
100 100 100 99 98 99 99 100 96 66 53 58 66 77 73 64 51 76 76 75 83 85 77 74 81 86 87 84 80 80 88 85 83 72 73 76 71 69 70 71 70 62 77
100 100 100 99 99 98 82 50 49 51 58 65 67 68 57 67 75 78 81 98 86 80 72 79 80 77 63 60 68 85 91 98 94 85 75 80 75 77 77 64 64 68 74

GFSMA_925_rhum_036.txt.gz
RH
80 78 82 85 83 74 71 68 55 42 34 30 31 34 39 44 48 57 68 79 78 78 72 71 72 72 72 75 81 78 79 82 85 85 89 86 85 85 84 85 85 84 84
77 78 81 89 88 81 72 66 54 42 35 32 30 34 41 48 50 56 61 79 78 71 69 66 66 67 70 71 76 73 74 77 82 85 85 85 84 85 84 84 83 83 83
75 77 81 94 91 84 77 67 52 42 36 33 31 34 42 47 52 53 55 58 69 61 66 64 61 68 62 64 66 65 63 68 74 78 81 83 83 82 82 81 80 80 80
73 74 76 90 85 84 80 67 55 46 40 35 32 31 40 49 50 50 53 53 51 49 62 55 59 55 57 58 57 58 58 63 66 71 71 74 79 81 80 78 78 77 77
76 71 73 76 80 83 79 67 56 49 42 37 33 30 35 43 50 49 47 48 48 45 44 44 33 32 44 52 55 56 58 57 59 64 64 69 69 72 78 77 75 74 74
81 78 71 75 77 85 79 68 57 48 43 39 27 30 34 37 46 47 41 42 42 44 45 45 30 36 23 26 26 28 51 60 58 56 59 64 66 69 73 75 74 73 72
85 83 76 75 77 81 79 70 59 49 43 37 36 36 37 36 40 45 42 39 41 40 41 36 33 33 30 23 24 23 22 43 60 56 58 61 63 67 71 72 71 71 70
91 89 84 79 76 79 78 74 60 52 45 40 37 35 36 35 35 43 45 41 38 38 37 36 35 35 37 35 32 22 21 28 58 62 62 64 68 71 72 71 70 71 70
92 90 90 86 79 78 77 75 64 58 49 43 38 36 38 37 34 38 44 44 40 39 36 37 36 36 36 35 29 39 30 30 56 69 71 72 74 75 74 72 70 70 69
95 92 92 90 88 82 76 76 71 68 55 48 44 40 39 38 36 39 38 40 39 37 37 39 37 38 37 40 37 38 36 28 54 67 71 72 72 73 73 72 71 70 70
98 99 97 95 92 85 75 76 72 64 56 52 48 42 40 38 37 33 36 38 39 38 37 37 37 38 40 40 43 47 30 29 63 66 69 72 74 75 75 74 72 72 71
100 100 99 98 95 91 82 77 79 67 58 53 51 44 36 38 36 34 33 34 36 38 39 38 39 39 40 41 42 43 32 29 39 64 68 73 78 79 78 77 76 75 73
97 98 99 99 98 93 92 89 84 72 68 63 56 52 44 35 31 32 33 37 35 38 40 41 41 42 43 46 44 40 48 34 32 61 71 76 79 79 79 80 79 77 76
80 95 99 99 99 95 95 95 93 88 79 72 67 55 46 36 32 32 33 42 47 39 37 35 42 43 45 46 46 42 45 53 41 60 74 75 78 77 77 80 79 78 76
78 82 94 97 99 96 96 95 95 94 90 83 76 64 51 40 36 35 33 37 46 59 46 37 40 46 47 47 49 47 46 57 70 72 75 76 76 77 78 79 78 77 76
85 97 96 97 99 100 99 96 98 95 91 86 80 66 52 46 43 43 46 51 42 44 46 40 47 47 48 45 46 53 52 62 67 71 77 79 77 79 80 79 78 78 76
99 97 96 96 97 99 99 97 96 93 88 84 77 69 72 72 65 52 45 47 50 57 73 74 58 56 74 86 68 57 59 59 58 60 67 73 76 82 84 82 81 80 79
98 100 97 97 95 96 95 97 95 90 83 80 80 79 70 58 59 64 70 84 88 87 84 94 93 93 89 73 89 74 64 63 60 60 68 76 82 85 84 86 86 83 81
97 98 98 96 94 93 92 93 90 85 76 73 74 70 71 73 88 90 90 88 92 95 98 97 99 95 96 94 96 85 73 61 62 63 61 64 73 78 82 85 84 82 82
90 89 86 85 82 81 78 78 79 82 82 84 78 82 89 90 89 90 94 98 99 98 98 98 86 85 94 96 92 77 63 58 56 54 61 71 77 79 84 84 84 86 87
84 84 83 82 80 78 81 81 82 85 85 87 88 89 90 89 92 98 99 99 98 98 98 95 91 97 92 72 58 58 62 58 57 63 65 63 60 60 63 65 67 72 75
94 85 85 90 85 87 97 87 81 83 86 89 95 100 100 99 98 99 98 98 95 99 99 96 93 77 57 57 60 60 62 66 68 68 64 65 63 61 61 61 62 69 76
92 96 99 99 99 99 100 92 89 93 97 99 98 98 98 98 96 83 88 92 96 99 96 80 73 62 61 63 72 84 74 76 81 74 68 66 64 63 60 58 61 67 74
99 100 100 100 100 100 100 99 99 99 98 99 99 92 89 88 78 77 89 88 84 81 74 73 72 70 70 69 69 84 88 84 70 65 63 67 62 60 58 59 62 66 71
100 99 100 100 99 99 99 100 98 98 93 69 91 95 83 73 63 75 72 80 76 71 76 81 80 80 84 83 82 75 75 76 76 68 64 65 63 61 62 62 62 62 68
99 99 98 98 98 98 97 66 59 74 80 73 70 71 60 66 74 76 75 77 77 73 67 68 66 67 66 60 70 79 78 85 86 83 64 73 73 74 78 64 61 63 67

GFSMA_925_rhum_039.txt.gz
RH
69 70 66 69 66 62 62 64 56 44 40 34 32 34 35 38 40 51 77 85 81 78 75 73 76 76 76 82 79 79 82 85 84 89 86 85 85 85 85 85 85 85 85
65 72 68 79 80 67 63 61 55 45 38 34 32 34 36 39 41 48 68 83 80 74 71 69 70 71 72 78 75 73 74 80 81 84 85 85 85 84 82 82 82 81 81
63 64 63 73 84 78 66 62 55 45 38 35 34 34 37 40 43 47 54 68 76 70 64 67 67 71 67 67 68 65 65 69 72 75 76 80 82 82 81 81 81 80 79
64 63 63 75 80 84 75 66 59 46 41 39 36 34 38 41 42 44 47 52 58 58 65 63 67 62 61 61 58 58 60 62 63 66 68 71 74 77 80 79 78 77 77
66 64 63 65 74 82 76 70 62 50 46 41 38 33 35 40 42 43 46 48 47 46 57 54 58 53 57 57 57 57 58 58 58 62 62 67 68 70 74 78 77 76 74
71 68 65 64 66 71 71 72 63 54 49 44 38 33 33 35 40 43 42 43 42 45 44 49 40 31 31 36 32 31 40 59 62 57 59 62 65 68 71 74 75 74 73
72 74 72 65 65 66 73 72 66 56 51 45 36 34 36 34 37 44 42 39 39 42 43 48 40 35 30 23 23 22 22 26 58 60 59 62 65 67 70 72 73 72 72
78 77 78 73 67 69 70 73 67 59 52 44 41 44 48 39 35 37 42 39 37 39 40 40 36 34 33 35 34 27 22 21 35 60 64 66 70 76 76 75 73 73 73
85 81 82 81 74 71 73 74 70 62 56 48 46 46 54 53 39 35 41 44 39 39 38 38 36 35 36 38 37 30 26 22 25 62 68 70 74 75 76 75 74 72 72
94 84 84 84 83 79 76 76 74 66 59 56 49 44 41 40 48 51 39 43 43 39 39 37 37 37 37 37 41 46 50 32 25 58 70 71 72 74 76 75 74 72 72
90 91 86 86 90 87 82 78 76 69 66 64 56 48 44 40 42 44 50 43 43 41 38 37 38 38 38 39 42 40 37 28 32 65 68 69 72 75 76 76 76 76 74
75 86 89 87 88 91 93 86 80 76 76 70 60 53 49 47 42 40 48 45 44 41 38 37 38 38 38 40 42 45 46 31 28 54 66 69 74 78 80 80 79 78 77
71 80 87 91 94 92 91 91 88 82 82 75 64 61 52 50 41 37 34 42 45 40 40 39 38 39 40 42 44 41 40 36 32 48 66 70 76 80 79 78 79 79 78
59 62 82 87 94 96 95 95 94 92 88 82 74 70 66 58 49 64 64 45 50 44 40 41 41 41 43 45 44 46 42 52 51 56 73 74 77 76 77 78 80 80 80
66 65 67 81 87 92 96 97 95 96 92 89 87 81 78 75 69 58 41 39 50 73 64 43 42 42 45 45 49 46 46 46 55 68 72 76 79 79 79 80 79 82 80
76 74 77 78 87 94 100 99 98 98 97 96 94 92 85 74 65 52 46 47 55 63 79 63 64 59 53 50 62 60 60 67 62 66 69 71 74 78 79 78 80 81 79
94 91 88 92 91 96 98 100 100 100 99 99 96 93 84 77 68 76 87 88 88 88 86 82 69 66 65 67 80 90 83 71 67 66 64 68 75 76 77 80 83 81 80
92 91 93 94 96 96 98 98 100 100 100 98 94 92 88 86 89 95 93 81 80 80 81 92 89 95 97 99 98 93 75 80 72 72 77 83 82 78 78 82 84 84 82
89 90 94 94 94 93 93 94 97 98 96 94 93 91 88 91 91 86 85 86 89 90 91 94 99 97 96 97 89 93 93 86 79 70 63 60 56 62 74 81 83 83 84
80 80 80 82 82 83 87 90 90 90 87 87 88 88 86 80 78 88 92 94 97 98 98 98 99 98 97 91 95 92 86 71 62 58 55 59 65 70 74 75 74 76 80
85 83 85 86 83 80 82 84 87 90 90 92 92 91 91 92 93 93 94 98 97 98 99 98 98 98 92 86 85 69 64 61 60 61 63 66 61 61 63 65 65 66 67
98 97 97 96 100 100 98 91 86 94 97 96 99 100 100 100 98 99 99 99 97 97 97 95 88 83 77 66 56 58 65 74 75 65 70 75 71 67 65 64 64 65 68
100 100 100 100 99 98 100 100 97 100 100 100 100 100 100 99 98 99 97 95 99 98 96 90 87 73 62 59 70 74 76 79 78 74 75 75 69 68 64 61 61 63 67
98 100 100 99 99 100 100 100 99 100 99 99 98 99 98 92 59 69 66 79 84 85 82 79 72 70 69 69 68 68 73 81 78 72 66 69 66 65 62 62 63 65 67
99 99 98 98 98 99 100 99 98 98 98 96 87 60 80 72 74 84 72 74 80 70 69 76 77 79 81 81 81 80 82 80 80 75 71 72 69 69 68 68 64 67 64
98 96 96 99 99 99 96 96 79 72 75 68 66 70 53 63 71 74 75 72 73 72 68 65 62 64 66 64 64 68 73 82 84 86 71 71 74 80 90 66 69 64 68

GFSMA_925_rhum_042.txt.gz
RH
63 68 68 71 67 76 71 79 67 56 45 40 32 33 34 38 42 71 73 87 88 82 80 78 80 80 82 82 81 82 86 84 89 87 87 88 88 87 86 85 85 84 84
63 66 66 66 67 69 66 65 64 53 44 37 32 34 35 38 40 56 68 79 84 78 77 75 76 76 80 81 77 77 80 82 84 85 84 85 85 85 84 83 83 82 82
63 70 67 70 66 66 71 63 62 56 44 37 34 33 35 38 41 48 67 66 79 78 71 70 72 74 74 77 72 69 70 74 76 74 76 80 82 83 82 81 81 81 80
62 64 67 69 72 71 69 72 63 56 45 37 35 34 36 38 42 45 59 66 62 72 68 66 69 73 68 68 65 62 64 63 59 52 65 70 72 74 78 81 79 78 78
65 65 65 65 73 72 72 71 67 61 47 40 37 35 35 38 42 43 46 54 58 54 56 59 66 66 64 62 60 60 62 54 55 57 63 66 69 71 74 76 79 78 77
67 66 66 64 67 74 73 73 72 64 52 44 41 37 34 36 42 43 44 47 50 51 52 50 50 54 52 58 58 58 57 57 57 59 59 62 66 67 71 74 76 76 74
70 71 68 66 65 74 73 77 72 66 56 50 42 35 34 33 37 42 44 43 46 46 47 51 45 42 36 34 32 26 24 31 49 61 60 63 65 69 72 75 76 74 74
76 76 75 70 67 67 76 77 73 70 60 52 42 36 58 44 36 36 44 43 41 41 42 44 45 35 32 31 24 23 22 24 33 54 64 66 72 78 79 78 77 77 76
92 88 79 77 75 70 68 72 76 72 63 54 45 47 72 69 47 37 36 44 41 39 40 41 44 38 35 34 34 31 31 23 28 53 68 70 73 77 76 78 77 76 75
80 80 82 85 81 84 75 74 77 76 67 57 48 46 50 46 57 52 37 38 43 39 39 39 40 37 35 36 37 36 34 32 26 37 65 71 72 73 76 78 77 76 77
81 85 81 79 81 85 81 84 79 82 72 65 58 49 50 48 43 57 60 46 44 44 40 40 38 37 36 36 37 37 42 44 31 31 57 68 72 75 78 79 80 80 80
62 70 83 80 76 87 90 87 88 86 81 70 64 62 55 55 51 51 70 55 49 47 44 40 39 38 37 37 38 41 40 38 33 44 64 68 72 75 80 82 81 81 81
60 66 72 78 78 78 87 95 93 90 87 75 74 71 66 62 56 47 46 54 56 44 44 41 41 40 38 38 39 41 44 44 34 36 66 70 74 78 79 78 79 79 81
54 64 70 72 79 80 77 83 97 96 95 87 80 84 75 66 64 53 50 64 85 68 53 52 50 44 39 39 40 43 44 41 41 54 72 78 76 77 79 79 79 80 79
70 70 73 80 82 82 82 85 91 98 100 98 91 92 86 76 70 62 58 70 77 91 87 73 67 66 49 56 54 58 53 45 53 58 69 79 76 81 81 82 83 82 82
73 78 83 85 84 92 97 91 97 99 100 100 100 98 94 88 84 80 78 72 72 79 94 82 84 85 86 83 71 64 54 45 45 67 84 77 74 72 77 80 82 80 82
90 90 90 86 81 83 90 98 100 100 100 100 100 99 100 98 92 85 76 67 70 81 98 99 96 95 90 71 67 61 57 68 90 88 79 73 73 76 81 84 83 82 83
88 87 86 87 87 89 90 91 95 98 100 100 100 100 100 97 92 86 84 84 90 96 95 96 91 90 86 79 69 82 97 90 67 56 72 77 83 82 77 72 74 81 84
84 85 86 86 88 90 92 93 94 96 99 99 99 98 97 98 96 97 97 95 95 93 94 94 99 98 98 99 99 96 88 70 62 57 77 70 61 60 65 72 80 83 84
80 82 83 81 81 81 84 89 91 92 93 95 94 95 95 94 94 94 91 94 98 100 100 99 99 99 98 99 96 91 78 69 70 63 60 60 63 66 72 72 71 72 75
88 87 85 83 82 81 86 85 87 91 92 92 94 94 92 91 94 95 95 100 99 98 98 98 98 97 98 98 95 74 81 75 62 60 61 63 68 68 64 61 67 69 70
97 96 98 97 98 98 98 99 94 100 100 100 100 100 100 100 100 100 99 100 98 96 98 98 98 93 82 76 74 76 70 71 80 62 72 60 66 65 66 65 66 73 72
100 99 99 99 99 98 99 98 95 98 98 99 100 99 99 99 100 100 100 99 99 97 94 83 81 84 75 67 68 68 68 69 73 67 76 80 76 73 67 66 67 70 73
99 100 100 100 99 100 99 99 94 95 96 98 98 96 97 96 94 86 67 77 76 66 75 84 83 76 73 72 72 74 75 79 82 79 72 76 70 68 62 61 58 69 77
99 98 100 100 99 100 100 96 94 94 96 92 86 84 77 71 76 89 75 74 77 75 71 79 76 76 75 78 83 81 83 84 87 79 73 77 76 71 65 57 58 62 71
100 99 99 99 86 81 89 77 62 64 66 67 69 59 55 64 73 77 80 82 81 74 70 69 64 63 65 66 66 66 68 75 79 85 80 79 78 86 86 70 69 69 71

GFSMA_925_rhum_045.txt.gz
RH
74 72 70 71 69 53 68 76 76 60 51 46 41 34 34 37 41 64 68 76 81 85 85 84 82 84 87 83 83 87 87 91 89 88 89 90 88 87 86 86 86 85 84
66 69 70 70 70 66 68 75 77 66 56 46 40 33 34 36 39 69 75 78 81 82 82 83 82 81 85 82 82 84 84 87 86 86 86 86 86 85 86 85 84 84 83
62 68 68 68 71 69 70 75 76 67 54 45 38 32 34 36 39 53 70 70 78 83 78 81 79 80 83 81 77 76 80 78 78 78 81 82 83 84 82 83 83 82 81
63 64 68 69 67 69 66 68 71 65 61 48 38 35 33 36 39 46 66 69 68 73 77 74 75 76 78 81 74 70 72 71 72 68 71 72 74 76 81 82 80 80 79
62 62 65 69 71 72 71 68 70 70 60 49 39 36 34 35 39 43 49 64 66 63 66 69 68 76 73 73 70 65 68 64 68 64 65 68 70 72 74 77 80 79 78
65 65 63 64 66 69 72 73 69 69 67 55 44 39 37 35 38 42 45 49 60 60 55 54 59 71 64 69 65 64 66 62 59 59 62 64 67 68 72 74 77 78 76
72 67 66 66 67 67 69 75 74 72 72 63 46 43 41 36 36 39 43 46 49 55 55 52 49 54 58 58 64 63 62 61 61 62 61 63 66 69 72 76 78 78 77
63 71 74 68 69 67 70 74 76 79 76 62 50 44 50 42 34 36 41 44 46 48 51 54 51 49 49 47 49 58 55 54 55 60 64 66 68 72 80 80 80 80 79
70 62 62 73 75 73 70 71 77 84 77 66 58 50 75 67 54 37 36 40 45 45 47 47 50 49 45 41 32 34 29 40 55 59 63 68 74 76 77 76 79 79 78
74 77 73 70 68 80 79 76 78 83 84 75 61 51 49 51 62 59 41 38 43 46 45 44 43 46 45 37 34 33 30 31 51 62 66 68 72 73 75 77 80 79 79
74 74 75 76 72 73 78 87 80 90 89 83 74 58 56 58 47 60 69 60 43 45 46 41 42 43 44 39 35 35 36 36 56 60 64 68 70 73 76 79 81 82 84
65 70 64 70 77 78 79 85 83 94 93 88 80 73 57 58 65 63 84 78 70 53 50 44 40 40 41 38 36 36 38 42 62 64 66 66 69 73 77 81 84 80 80
50 63 75 73 73 74 75 73 76 82 97 98 90 82 75 64 65 62 60 68 74 56 54 56 48 42 40 38 37 41 46 48 59 66 66 69 74 77 80 81 79 79 80
74 79 75 71 75 78 76 83 82 82 90 100 100 93 84 84 77 77 73 72 90 79 64 62 59 51 45 41 52 51 47 51 57 58 79 88 89 81 80 79 81 81 81
74 78 80 79 80 80 83 82 84 80 87 90 93 100 97 92 89 86 84 77 76 88 89 77 75 77 79 84 70 65 62 72 85 88 86 96 88 90 91 85 85 84 83
78 75 75 83 85 86 85 92 99 100 99 100 100 100 100 100 98 91 87 84 83 85 94 82 86 85 78 79 88 90 90 95 91 90 96 92 96 98 92 79 81 83 84
87 85 84 87 89 88 88 88 90 94 90 98 100 100 100 100 100 99 98 98 97 96 96 100 95 97 100 99 100 99 100 94 90 89 78 88 100 85 79 81 84 84 84
87 88 87 85 84 86 88 85 89 90 93 100 100 100 100 99 100 99 96 94 93 93 95 99 100 99 100 100 100 98 97 91 88 89 97 98 86 81 85 81 74 72 76
79 80 81 83 84 84 86 87 88 90 91 98 100 100 100 100 100 99 98 96 97 99 100 98 100 100 99 98 100 98 93 93 100 94 86 85 80 69 66 68 72 77 82
83 83 82 81 81 81 82 85 88 92 93 95 94 94 94 96 98 100 100 100 100 100 100 100 100 99 99 99 100 100 99 95 67 67 65 65 66 69 72 77 77 76 78
91 89 88 86 87 88 93 89 93 95 94 94 94 95 96 96 97 97 97 98 100 99 100 100 99 100 100 100 99 92 83 77 72 64 64 57 63 61 60 60 60 62 73
100 99 99 99 99 100 100 88 91 94 95 96 100 100 100 100 99 99 100 100 100 100 100 99 99 98 98 87 79 82 83 74 72 66 69 62 64 60 59 61 60 71 81
100 99 99 99 99 99 100 97 95 98 98 100 100 100 98 98 100 99 99 99 99 99 98 89 88 84 80 71 70 70 72 72 72 66 77 79 62 64 59 59 60 77 79
99 100 99 99 99 100 99 96 93 93 95 96 95 94 96 96 90 88 82 81 72 72 72 91 88 84 78 75 77 80 79 81 81 79 74 81 71 70 61 57 59 74 85
100 99 98 99 99 98 98 75 72 78 72 67 63 70 64 65 79 77 74 75 78 77 72 86 83 78 76 76 78 84 85 86 89 80 72 83 80 79 68 61 61 64 68
100 99 88 80 80 78 73 71 62 63 65 65 64 57 70 70 79 83 87 85 82 78 75 73 71 65 63 62 66 68 64 71 80 82 86 86 88 89 88 72 68 65 66

GFSMA_925_rhum_048.txt.gz
RH
74 74 72 70 69 68 62 66 75 76 64 48 44 40 36 34 39 48 62 70 72 83 90 88 86 90 87 85 87 89 92 90 89 90 92 91 90 89 89 88 87 86 86
79 73 72 72 72 71 60 55 68 74 62 52 47 44 36 34 38 45 66 74 78 81 84 88 86 86 88 84 85 88 90 89 88 90 89 89 89 88 87 87 87 86 85
78 74 70 71 72 70 68 68 72 77 80 66 51 45 35 34 36 41 65 78 81 82 81 88 87 85 86 85 84 86 86 87 87 86 86 85 85 86 85 85 84 83 83
70 73 68 69 71 71 71 69 72 74 77 71 53 47 38 34 35 38 51 75 80 80 81 80 86 84 84 84 81 80 82 81 79 80 81 80 81 83 83 82 82 82 81
65 66 66 65 70 71 72 70 73 74 72 71 56 49 41 36 34 36 42 61 73 74 74 73 77 78 81 84 80 77 76 76 75 72 73 73 74 76 77 82 81 80 80
65 65 64 64 65 71 72 73 73 70 72 72 64 53 41 37 35 35 39 45 61 70 69 67 70 72 76 79 79 74 71 72 72 69 68 70 71 73 74 77 78 79 78
74 70 66 66 66 67 69 71 74 75 73 74 63 50 46 39 38 36 38 42 48 60 68 65 61 64 71 68 74 72 70 70 66 65 65 67 69 70 71 75 78 79 78
71 70 71 71 71 72 68 71 76 82 80 80 65 54 55 50 43 41 38 41 44 48 60 64 59 56 58 64 62 68 68 68 66 65 66 66 68 69 73 79 82 81 82
79 74 71 74 77 82 78 70 74 85 89 87 80 66 71 70 59 42 38 37 41 44 49 61 61 58 53 56 59 58 63 66 61 59 64 67 70 71 78 79 79 80 81
82 85 85 80 79 75 84 82 78 82 91 95 87 71 66 55 67 72 46 40 38 44 48 52 58 60 57 54 54 52 50 50 57 58 62 67 72 75 76 76 78 80 81
49 52 76 86 73 66 68 80 89 90 91 94 94 80 75 72 60 67 73 63 52 43 41 49 49 52 56 56 51 49 44 40 54 61 64 68 71 73 73 74 78 81 83
44 49 63 75 82 82 74 75 78 87 95 93 98 95 82 71 74 71 81 80 71 55 48 45 52 53 54 59 54 55 39 36 61 62 64 69 73 79 78 82 86 84 82
64 66 66 72 82 82 84 76 78 83 85 95 97 98 94 85 78 74 82 88 89 72 56 55 54 58 54 57 68 61 46 54 69 67 81 79 76 81 91 94 91 87 81
76 74 75 76 74 84 88 83 79 88 89 88 97 99 97 94 92 89 85 88 96 89 86 69 62 61 59 61 69 69 70 73 71 76 82 86 84 88 88 87 96 92 90
82 81 76 77 78 83 88 97 92 97 90 88 88 98 96 93 97 93 94 89 91 98 97 75 61 64 64 64 63 71 65 84 92 86 96 94 88 96 98 99 97 98 98
84 84 82 80 77 79 83 84 86 96 99 99 99 99 100 99 98 100 100 100 99 97 99 87 80 74 81 76 72 74 84 98 98 99 98 97 98 98 98 98 99 96 86
82 86 86 86 85 84 86 88 92 93 92 98 99 100 100 100 100 100 100 99 97 98 99 99 97 92 92 96 100 100 100 100 99 98 100 99 100 100 100 100 89 84 84
80 81 84 85 85 86 87 87 88 89 89 90 92 96 99 100 100 100 99 100 100 100 100 100 99 100 99 100 100 100 100 99 100 99 100 98 100 100 99 92 88 85 79
81 81 80 81 83 84 88 89 87 86 88 89 94 97 100 99 99 99 100 99 99 100 100 100 100 100 100 99 100 100 99 100 100 100 99 99 99 99 92 80 73 73 76
86 86 86 87 88 86 85 87 89 90 90 90 91 92 93 93 95 97 99 100 100 100 99 100 100 100 100 99 100 100 100 100 100 99 95 81 74 71 75 77 79 82 84
96 96 93 91 96 99 94 90 90 91 92 96 98 100 100 99 98 99 99 100 100 99 100 100 100 99 100 99 99 99 99 98 87 75 69 63 63 55 52 56 56 63 76
99 98 98 98 98 99 99 95 92 96 100 100 99 100 100 99 100 99 99 99 99 100 98 99 99 99 100 99 97 95 90 85 71 68 66 60 62 45 48 56 60 62 84
98 99 98 98 99 99 99 93 92 93 95 97 96 94 93 97 98 98 98 100 99 99 97 94 94 87 83 75 72 72 74 75 74 70 77 75 61 54 54 58 59 72 85
99 99 100 99 99 100 98 92 92 93 92 90 76 68 64 60 79 75 68 70 72 72 73 80 89 85 80 77 79 83 85 86 85 81 77 84 69 65 60 57 59 62 86
98 99 98 99 95 86 74 58 58 57 56 56 57 64 54 60 74 79 75 74 77 78 75 90 87 82 81 80 80 82 86 88 88 80 72 77 79 80 66 62 64 74 90
99 84 84 83 79 77 75 70 54 55 56 56 53 53 74 81 85 88 88 84 83 81 80 77 76 74 68 58 58 72 71 68 75 78 84 85 88 85 90 73 70 72 69

GFSMA_925_rhum_051.txt.gz
RH
71 59 62 59 64 70 70 68 69 74 72 57 45 43 40 38 35 37 49 68 84 88 94 92 89 93 89 86 88 90 92 91 91 93 93 93 92 91 91 90 89 88 88
77 77 71 72 72 71 70 69 58 62 71 71 59 50 44 41 35 36 44 64 75 81 83 91 91 91 91 87 86 90 92 91 91 92 92 91 91 90 89 89 89 88 87
77 80 76 71 70 70 72 73 66 64 77 80 70 58 49 46 37 35 38 55 69 81 85 89 92 90 90 87 86 88 89 91 90 90 90 90 89 90 89 89 87 86 86
75 78 81 78 71 70 72 75 72 71 75 78 81 74 60 48 39 34 36 43 64 79 84 84 86 91 89 87 84 85 87 89 89 88 87 85 86 86 86 85 85 85 84
73 76 76 72 72 70 72 75 76 74 74 77 76 74 67 52 45 40 36 36 46 69 80 81 79 83 86 87 84 82 83 85 83 82 82 81 80 82 85 83 82 82 81
67 70 71 72 73 73 72 75 78 76 74 76 78 76 71 60 47 41 38 36 38 47 69 77 77 76 81 82 84 81 80 81 81 77 76 76 76 77 78 79 82 81 80
79 70 69 69 70 72 71 73 77 79 77 80 84 76 73 65 53 47 42 38 37 40 50 68 74 74 73 76 78 83 79 76 77 77 73 72 73 74 75 77 78 80 81
82 86 78 76 75 72 72 72 77 87 86 87 85 68 72 64 56 54 49 42 40 40 43 56 69 72 69 69 72 72 79 73 75 72 70 69 71 72 72 74 79 82 82
89 89 85 88 82 82 82 80 82 87 93 90 92 85 76 78 70 56 53 49 46 42 43 49 57 71 69 63 65 69 68 72 73 71 70 69 70 72 72 75 81 80 81
68 81 87 89 90 90 90 85 80 85 94 99 99 93 84 74 75 75 55 47 43 42 41 44 48 55 66 65 61 63 67 66 75 68 63 64 70 72 74 77 76 77 79
40 45 49 51 69 88 88 80 78 83 92 98 100 98 90 90 80 86 91 76 61 53 51 44 41 47 55 65 65 62 68 73 73 65 57 58 66 72 75 75 74 77 86
48 47 52 59 63 76 86 85 86 84 82 89 100 100 96 87 93 91 89 79 76 66 61 61 54 49 49 56 66 71 70 82 84 85 73 66 66 73 78 81 94 100 97
66 69 74 75 76 82 95 100 99 90 88 95 100 100 99 98 98 92 90 87 93 83 79 74 73 74 76 78 76 76 81 82 94 97 85 77 82 87 87 86 82 78 84
78 77 74 76 82 87 94 98 99 98 97 96 96 99 99 90 92 94 97 95 97 93 84 76 74 71 70 76 87 91 85 92 85 99 97 95 93 87 80 91 95 93 98
79 78 78 76 76 81 85 90 99 100 100 100 98 99 99 100 99 97 97 99 96 99 97 84 81 74 72 77 82 86 92 90 98 100 98 100 92 93 99 96 100 99 98
79 81 82 81 80 80 86 94 96 98 97 98 99 98 99 100 100 100 100 100 100 100 99 93 85 79 74 73 73 93 98 97 99 100 100 91 98 99 97 98 98 99 100
80 83 86 87 86 85 87 89 91 92 93 98 96 98 99 99 100 99 99 100 100 100 100 99 98 96 94 92 99 99 100 100 100 99 97 100 98 97 98 98 100 100 100
79 80 83 84 86 87 89 89 89 90 89 90 89 85 89 94 98 99 99 97 98 98 100 100 100 99 100 100 100 100 100 100 100 100 100 99 99 99 97 100 100 100 97
84 83 82 82 82 84 86 89 91 90 88 86 90 93 93 91 92 93 95 96 97 98 100 100 100 99 99 100 100 100 100 100 100 100 100 100 100 98 98 98 100 99 88
90 90 92 94 94 86 87 89 91 92 92 94 96 94 94 92 94 96 97 99 99 99 99 100 100 100 100 100 100 100 99 100 99 99 99 98 97 94 96 91 85 83 84
98 97 99 99 99 100 98 91 94 98 100 100 100 98 99 99 100 99 100 100 100 99 99 99 99 99 100 99 100 100 100 99 98 98 88 74 82 79 66 56 50 52 71
99 99 98 99 100 97 100 94 98 100 99 98 96 99 99 99 98 100 99 100 100 98 96 97 99 98 98 98 97 97 97 90 75 71 71 64 62 58 49 44 43 49 76
99 98 97 96 100 99 100 89 89 90 92 93 91 90 90 90 87 80 82 90 95 94 94 95 88 88 83 76 74 73 75 76 75 72 75 73 66 56 44 50 58 75 87
98 96 97 96 97 99 93 84 85 83 75 61 51 51 53 59 76 80 56 60 69 70 80 78 86 84 79 80 83 86 85 85 86 83 82 90 66 60 58 59 60 59 81
96 94 96 91 77 80 65 50 50 51 51 50 56 72 76 77 83 96 78 73 73 78 81 94 90 85 85 84 82 78 84 87 83 79 71 80 80 82 67 65 69 70 80
98 97 79 76 77 79 82 64 41 41 43 46 49 53 64 86 86 86 84 82 70 78 81 76 70 69 66 63 60 62 72 76 72 76 83 88 87 86 90 74 76 88 95

GFSMA_925_rhum_057.txt.gz
RH
77 73 53 48 52 61 64 68 72 72 69 74 72 67 55 47 46 41 39 36 42 68 79 90 97 91 90 91 90 89 94 85 92 94 95 95 93 93 92 93 92 91 91
82 79 74 61 55 57 63 71 76 77 77 72 64 68 71 63 53 48 46 40 38 50 69 89 96 94 93 93 90 91 92 94 92 93 94 94 93 93 92 91 90 90 90
80 81 80 78 76 71 73 75 76 78 79 78 72 68 72 74 71 66 57 50 40 39 51 69 94 95 92 87 90 89 92 89 92 92 94 92 92 92 91 92 91 90 88
74 77 81 79 78 82 82 79 78 78 78 79 77 74 73 74 75 76 75 63 53 43 40 50 63 90 94 93 84 89 88 92 92 91 91 91 91 92 91 90 89 90 88
74 76 76 76 78 81 82 83 83 81 79 77 75 77 77 77 76 76 75 73 66 56 47 43 48 62 82 92 90 82 90 90 91 92 90 89 88 88 88 87 88 87 86
75 78 78 78 78 80 80 81 84 82 81 81 83 82 80 78 78 78 77 77 76 62 52 45 45 60 72 85 93 89 83 86 92 91 89 87 87 86 85 84 84 84 84
76 80 83 82 80 78 76 78 84 85 85 82 96 89 81 75 78 76 75 70 76 73 66 51 45 50 66 82 86 92 88 82 82 92 90 85 83 82 81 81 81 83 82
89 93 94 93 91 90 88 83 84 96 92 86 94 94 87 72 69 67 66 64 64 65 62 58 51 47 49 62 82 83 88 86 80 84 95 90 82 80 80 78 78 80 80
98 99 100 100 99 100 99 99 98 97 100 93 92 95 91 78 74 67 63 60 60 61 64 56 56 53 50 49 56 79 83 82 86 79 82 99 88 83 80 79 76 75 78
52 54 70 91 100 100 99 99 100 100 100 100 99 97 98 94 92 93 73 69 67 67 70 68 63 58 56 53 53 58 74 83 81 86 78 90 95 97 83 82 88 86 83
44 43 44 48 52 58 72 96 97 99 99 100 99 98 100 100 100 97 96 84 78 74 77 74 72 70 67 61 57 55 55 59 82 91 85 87 98 100 87 93 88 90 82
59 65 67 69 72 72 80 97 99 97 98 100 99 100 99 96 95 99 98 94 91 83 78 75 76 74 73 72 70 68 68 64 62 92 90 90 98 95 97 97 99 94 92
65 66 66 66 68 74 83 100 98 98 96 97 99 100 99 97 100 93 95 94 95 90 84 80 77 76 73 73 75 76 77 79 80 96 94 93 99 100 98 98 94 98 98
77 75 73 73 73 72 75 89 98 96 99 100 100 100 98 99 100 100 99 97 98 95 89 86 81 77 76 76 76 76 75 72 79 98 99 99 100 99 99 99 92 100 100
75 72 72 72 74 77 79 92 96 92 99 100 100 100 100 100 100 99 100 100 99 96 94 89 84 81 83 80 75 75 79 79 75 86 94 98 99 100 92 96 100 98 98
78 77 79 81 82 83 86 98 99 95 92 92 96 96 100 100 100 98 99 99 99 100 98 94 92 95 91 89 87 86 86 83 85 95 94 94 100 99 87 98 99 98 98
78 79 82 85 84 86 90 92 97 99 98 95 97 93 90 92 94 92 88 92 98 99 99 100 100 97 93 90 89 94 94 93 93 94 100 100 100 100 100 96 91 97 88
80 80 83 85 86 88 92 93 92 93 93 92 90 86 85 88 88 89 88 88 92 94 96 99 100 97 95 95 99 100 96 100 98 99 100 100 98 95 92 89 92 94 93
85 86 86 84 85 87 90 93 93 91 91 92 91 88 90 91 90 91 91 92 92 94 99 99 99 98 97 96 99 98 99 98 98 98 95 95 90 95 98 98 98 99 99
92 94 97 99 93 93 95 98 100 100 100 99 99 99 97 94 97 98 96 95 93 91 95 99 98 99 99 97 98 98 98 90 88 87 86 87 91 98 99 99 100 99 99
99 99 98 98 99 100 100 99 100 99 99 99 98 98 99 100 99 96 95 94 91 94 98 99 100 98 97 98 100 100 96 95 96 81 72 74 74 77 86 91 84 78 74
99 99 99 99 99 99 99 98 98 98 98 96 99 97 95 94 97 98 96 98 97 96 91 95 97 89 90 86 82 83 82 75 70 71 75 66 57 61 57 53 51 49 46
100 100 99 99 99 99 100 92 89 86 83 83 83 77 65 67 60 50 52 58 70 80 86 78 83 86 82 81 76 81 86 84 76 76 78 66 60 62 45 42 44 47 64
99 99 99 99 99 100 90 75 62 47 42 42 43 50 68 85 86 60 52 54 67 84 88 83 85 86 89 91 89 84 83 83 81 77 66 70 75 67 72 64 59 66 61
98 93 87 79 70 75 51 45 42 42 44 54 63 72 72 82 89 86 64 57 57 75 82 85 82 83 84 83 87 84 87 82 64 72 78 84 78 80 79 78 80 97 95
93 90 78 73 75 73 74 37 37 37 41 46 51 55 78 86 85 87 78 59 66 74 73 64 51 42 42 46 50 53 56 78 78 71 78 88 84 84 78 74 72 67 66

GFSMA_925_rhum_060.txt.gz
RH
81 76 67 60 61 65 67 69 72 70 69 67 66 62 59 54 50 46 44 43 37 41 81 95 97 93 93 93 91 91 93 84 90 93 91 90 85 90 91 93 92 92 92
81 80 75 71 63 65 67 72 75 76 75 75 70 67 68 69 64 55 51 51 50 39 43 68 94 97 93 92 92 91 92 96 92 93 94 94 90 92 92 90 89 90 91
81 80 76 74 74 72 72 74 77 80 79 78 77 73 71 71 70 66 62 58 57 57 44 41 62 93 90 87 91 88 90 90 91 91 93 92 93 92 91 92 92 91 89
84 82 78 78 77 78 80 79 78 77 77 75 73 71 72 75 76 74 72 67 65 63 61 56 44 60 91 93 91 92 94 92 86 92 91 92 92 92 91 91 90 91 86
81 83 81 80 81 83 82 82 80 80 77 74 74 75 76 77 76 75 74 72 71 67 65 65 64 51 63 81 92 89 90 92 94 94 92 89 90 90 90 89 89 90 89
83 84 84 83 82 83 83 81 83 80 81 78 76 78 77 77 77 73 72 72 72 72 70 69 69 71 62 65 83 90 88 87 95 95 94 90 88 87 86 85 85 85 86
82 85 85 84 87 87 82 81 80 82 81 81 85 78 75 77 76 72 66 66 68 72 72 70 71 68 66 72 67 84 92 87 86 95 95 94 91 88 84 82 82 84 83
89 90 91 91 92 91 88 87 88 88 88 89 88 85 79 56 55 66 66 66 64 63 64 66 66 65 68 70 75 80 85 93 87 86 95 97 93 89 86 82 80 79 81
99 100 100 99 100 100 99 97 99 99 98 94 98 90 87 61 61 62 67 63 61 60 62 64 67 69 68 70 72 80 71 87 88 91 88 84 98 95 88 84 80 79 83
76 71 80 95 99 99 99 99 99 100 100 99 100 98 99 93 88 82 72 67 66 67 67 71 71 69 66 63 61 58 59 63 80 97 92 89 81 99 98 92 82 82 81
43 43 45 51 65 83 78 91 100 99 100 100 100 97 97 100 98 98 91 80 84 77 80 77 71 70 71 76 78 67 67 62 59 83 91 88 90 97 98 89 94 82 87
68 58 60 64 68 82 92 92 95 98 99 99 98 100 99 96 92 96 95 88 88 76 74 73 74 77 79 76 72 72 72 71 69 87 93 88 88 96 99 99 98 95 98
76 85 67 70 73 71 76 95 99 100 100 96 97 100 98 100 99 94 95 92 87 83 76 75 75 80 80 82 83 74 74 74 73 78 100 99 98 98 99 100 98 98 100
83 79 74 73 77 76 84 94 97 98 92 93 100 100 100 100 100 100 94 91 93 82 80 69 84 80 83 79 76 72 77 72 73 73 84 98 98 97 98 100 99 99 97
79 76 72 74 74 75 82 97 98 96 96 100 100 100 100 100 100 100 100 97 96 93 79 83 85 84 90 87 81 79 81 81 77 82 85 70 72 84 98 92 99 99 91
78 76 76 76 78 79 85 99 97 94 96 96 99 99 100 99 100 99 100 100 99 99 95 93 98 94 92 86 84 82 85 91 90 98 97 90 82 93 100 96 98 98 99
78 78 78 81 82 85 91 98 99 95 92 94 92 92 92 95 98 97 97 92 95 99 98 100 99 96 96 97 97 92 97 96 97 100 99 100 100 100 100 100 100 93 90
82 82 82 84 86 87 90 91 92 93 91 91 91 93 92 91 95 95 96 94 95 94 95 94 100 100 97 93 99 99 98 96 100 96 98 99 97 95 94 93 91 89 87
90 88 88 88 89 90 94 94 93 94 94 93 91 90 92 91 93 95 97 98 99 100 100 98 100 98 96 91 99 100 96 92 94 92 93 95 97 97 94 96 97 91 89
92 93 96 97 94 93 97 100 100 100 99 99 100 99 96 96 99 100 100 99 97 99 99 98 99 100 100 99 99 100 90 94 95 89 80 79 81 82 86 92 96 97 99
97 99 99 99 100 99 99 99 100 100 99 99 99 99 100 99 97 96 100 100 99 99 99 99 94 92 88 87 93 90 79 74 75 73 66 63 64 66 69 73 78 79 82
99 99 99 100 100 100 99 100 99 99 99 100 100 94 91 93 97 97 98 96 92 93 99 99 90 76 78 73 69 68 65 60 58 72 60 48 54 53 54 58 61 46 47
100 100 99 100 100 100 99 99 97 94 93 93 92 81 69 62 57 57 63 59 64 91 68 70 60 61 61 66 81 83 74 71 60 58 62 48 50 44 47 52 67 45 42
100 100 99 99 100 99 100 82 72 62 53 46 40 46 63 74 75 59 68 68 76 79 82 77 76 77 82 84 85 88 77 74 64 56 68 56 53 56 59 64 68 73 98
100 100 99 99 96 91 60 41 35 38 41 44 51 71 74 78 93 75 72 69 57 71 76 73 73 75 80 81 81 78 80 67 55 48 64 70 61 64 61 64 70 69 67
97 92 84 73 69 78 57 37 39 52 49 49 57 68 69 80 84 90 73 56 52 60 73 70 56 51 48 54 46 63 67 79 67 68 69 77 74 76 78 63 66 66 71

GFSMA_925_rhum_063.txt.gz
RH
71 66 56 50 51 52 55 57 60 58 60 58 57 56 53 51 49 46 45 44 46 39 44 92 98 96 89 91 92 93 90 84 83 92 87 84 80 87 92 95 94 93 92
69 69 64 61 53 52 55 57 61 65 66 64 64 61 59 61 62 59 54 52 53 55 44 44 77 95 98 83 85 86 88 93 92 91 94 93 85 85 89 89 88 90 92
68 67 64 63 64 61 59 60 64 67 68 68 67 66 64 63 64 64 63 61 59 60 62 54 43 70 92 90 84 90 81 80 83 91 91 93 93 90 88 90 92 92 88
71 71 68 68 69 68 70 69 68 68 68 67 65 62 61 63 67 68 69 69 67 65 63 64 64 50 68 89 89 89 95 94 79 78 83 89 92 93 90 90 90 90 84
71 74 72 71 71 73 72 73 71 69 68 66 66 66 66 68 68 69 68 68 69 70 69 66 65 66 60 54 84 87 92 97 98 92 86 84 88 91 91 90 89 90 90
71 73 72 72 72 72 74 73 73 73 74 73 73 72 70 72 72 71 68 63 64 68 71 69 70 70 71 67 57 86 88 90 95 99 98 98 93 91 90 88 87 88 88
73 76 78 75 75 77 75 73 73 73 75 78 79 78 76 72 70 68 66 62 60 64 68 70 71 70 69 66 68 69 86 89 92 98 96 99 96 94 92 89 86 84 84
81 81 81 80 78 80 81 78 76 77 79 79 88 84 86 67 56 56 61 62 64 62 62 64 66 65 64 67 68 74 78 90 94 93 96 98 99 97 94 92 87 84 84
91 92 91 91 92 92 90 88 89 90 95 89 88 91 88 71 59 60 64 64 62 61 60 63 65 67 69 69 70 72 76 78 83 97 96 95 95 95 98 96 89 84 82
80 79 85 95 99 99 99 99 99 99 100 99 97 94 88 93 92 85 61 68 65 62 64 69 70 68 69 70 71 68 62 60 58 63 95 93 91 94 96 97 94 86 83
49 51 50 58 62 70 81 86 91 94 93 94 92 90 93 96 98 97 88 77 75 79 76 76 72 70 69 73 78 80 71 68 67 67 86 90 88 86 92 97 99 96 87
64 69 60 66 72 77 85 87 88 91 94 95 91 90 89 92 97 99 98 89 84 80 71 67 73 77 79 80 78 74 74 74 74 73 94 97 94 97 99 98 99 99 94
62 73 76 76 78 81 80 85 90 92 93 94 91 87 84 88 93 94 94 95 90 83 78 70 73 78 80 82 80 76 82 72 70 70 73 99 98 98 97 91 94 97 99
66 77 78 77 77 78 78 84 87 89 90 93 90 97 97 98 99 99 97 93 98 92 83 71 79 81 87 83 77 77 96 72 68 69 69 68 69 68 72 80 87 94 98
76 75 77 75 76 73 80 86 91 84 95 100 98 99 100 100 100 100 100 97 91 96 89 77 85 90 91 93 85 84 86 84 92 100 99 74 66 65 77 94 94 96 94
77 77 79 80 82 83 87 91 94 94 92 97 99 99 100 100 100 99 99 99 99 97 94 93 96 97 96 95 92 89 93 100 99 98 98 99 99 100 97 97 100 100 94
77 77 79 80 81 82 84 90 98 93 88 92 91 91 90 93 95 95 95 95 99 98 94 100 99 100 96 92 96 97 100 100 100 99 100 100 99 99 100 100 100 98 94
78 79 80 80 80 83 84 84 87 89 90 89 89 91 89 89 93 94 95 93 93 94 91 84 99 100 99 95 99 99 99 100 100 97 95 99 96 93 92 92 92 92 91
81 82 81 80 82 86 87 87 86 86 86 86 86 87 88 88 93 94 96 97 98 97 98 95 98 99 99 91 98 100 100 87 98 89 85 94 92 90 91 90 89 91 90
82 82 85 87 91 93 96 98 98 98 99 100 99 95 95 96 98 99 98 99 99 97 98 96 98 98 97 99 99 98 87 83 86 78 71 67 70 72 76 83 87 90 96
86 90 94 98 99 99 99 99 99 99 99 99 100 99 99 96 95 96 98 98 98 97 96 97 88 93 85 84 87 87 76 70 68 64 60 58 53 61 62 62 66 69 74
96 97 98 98 99 99 99 100 100 99 99 100 99 96 92 94 97 98 96 91 87 90 99 96 89 77 76 72 64 66 65 68 65 62 55 46 46 51 47 51 53 49 33
99 99 99 98 99 99 99 98 98 99 99 99 94 90 80 68 61 59 54 50 70 44 66 71 59 59 59 67 76 79 78 75 66 64 58 53 47 49 48 56 64 57 52
100 99 99 99 99 99 99 97 90 88 87 78 60 49 56 68 56 60 57 62 69 76 78 71 74 76 79 81 81 83 78 77 68 57 56 58 51 58 59 61 64 59 61
100 100 100 100 99 98 97 64 45 39 36 39 46 69 72 78 87 60 70 53 54 66 68 55 57 57 59 62 67 70 82 71 68 46 57 71 66 66 64 62 64 60 65
100 100 100 98 95 87 66 40 39 51 45 53 54 68 50 75 81 82 71 56 49 54 66 71 55 49 48 53 39 51 62 83 77 74 69 78 86 80 88 66 64 66 68

GFSMA_925_rhum_066.txt.gz
RH
68 64 55 53 57 58 57 60 62 60 59 60 58 58 56 54 53 50 47 47 47 50 45 64 94 95 90 87 88 91 89 85 75 75 74 72 69 79 92 95 95 94 92
70 71 63 56 50 51 54 56 57 63 66 65 65 64 61 60 62 63 60 55 54 56 57 49 59 94 96 98 85 83 85 86 86 85 85 83 74 72 82 87 89 93 92
69 68 66 64 64 59 56 57 61 64 66 68 68 68 67 65 64 65 65 65 64 62 62 63 60 59 89 94 93 94 89 80 78 76 74 79 85 77 74 81 88 92 86
71 69 68 66 67 67 67 67 67 68 69 69 68 66 64 63 64 67 68 69 70 69 67 66 65 65 66 89 90 90 96 98 86 84 81 80 79 85 82 85 82 86 86
72 72 73 71 71 72 71 72 73 72 71 69 65 64 66 66 67 69 70 70 68 67 68 71 71 67 66 66 84 88 91 94 98 93 90 92 91 92 94 91 90 90 90
73 72 73 73 72 70 70 72 73 72 74 75 75 74 72 71 72 72 72 72 68 65 64 70 72 70 71 72 70 74 88 89 92 92 98 98 98 97 95 93 90 89 91
70 72 75 74 72 72 72 72 74 73 69 68 74 80 77 77 75 74 71 70 63 63 64 63 68 71 71 70 68 70 76 92 91 95 90 98 100 94 87 88 91 90 89
75 76 78 79 76 76 75 78 80 81 77 75 82 88 91 72 63 61 64 67 62 63 62 63 63 67 66 65 68 70 73 80 94 96 97 93 93 98 98 97 95 92 88
80 81 82 82 82 80 81 83 85 88 87 85 82 86 96 90 77 61 64 61 63 63 62 61 62 66 68 69 69 72 73 73 74 75 95 97 96 91 93 95 98 93 89
88 88 90 92 93 90 88 89 88 88 95 100 97 92 85 85 93 88 63 66 67 67 63 68 70 69 68 68 70 72 70 66 62 60 80 90 91 90 93 96 96 97 91
61 56 55 53 59 65 73 84 86 91 89 90 84 81 88 78 76 97 91 78 72 75 77 72 74 70 71 72 75 75 71 71 71 72 93 97 93 96 99 99 98 98 100
53 53 52 53 60 66 72 80 87 89 90 93 88 87 82 82 92 87 97 90 87 81 77 76 74 72 74 72 77 74 75 73 72 72 90 100 99 98 97 97 92 97 97
57 62 66 64 70 75 76 74 74 82 92 91 85 86 82 80 76 89 99 94 95 87 83 75 75 75 81 79 79 79 80 73 71 86 92 95 70 70 76 79 88 96 90
62 71 73 69 71 73 71 72 78 82 92 90 94 99 94 96 95 92 91 89 97 96 87 84 81 80 78 78 81 83 83 81 77 95 84 64 62 66 66 63 68 89 83
69 70 68 69 70 70 70 74 80 91 91 95 86 99 91 93 95 100 99 100 97 99 99 91 88 90 89 88 86 82 80 97 100 100 99 98 91 75 81 87 98 100 96
70 68 72 73 72 72 73 78 90 91 88 91 87 97 99 100 100 98 100 100 100 97 96 94 97 99 97 96 93 89 98 100 98 98 99 98 95 95 92 99 99 97 99
72 73 74 74 75 74 77 82 94 95 90 86 88 94 93 93 94 93 95 97 98 98 95 100 100 100 99 98 94 97 99 99 98 97 98 98 100 99 99 100 100 100 100
76 76 77 76 77 78 79 83 87 89 89 88 89 91 88 89 89 89 93 95 94 92 94 92 100 100 99 99 96 99 98 97 100 92 91 99 98 94 95 94 92 93 93
78 80 79 80 80 80 83 84 85 86 86 87 86 87 87 90 92 93 95 94 96 94 94 92 98 94 99 92 97 99 99 87 86 83 74 77 77 79 88 96 95 89 86
81 82 83 83 84 87 88 90 92 92 92 93 91 90 90 94 97 98 99 98 98 96 97 92 93 93 92 94 98 94 83 79 77 72 68 67 60 66 67 64 79 83 88
84 85 88 90 96 98 99 99 99 99 99 99 98 99 98 97 96 98 96 98 96 93 91 92 83 84 81 83 84 81 71 65 70 67 50 51 49 47 56 59 62 63 64
90 90 92 94 94 96 98 98 100 99 100 98 98 99 96 95 98 97 93 90 91 94 96 86 82 81 77 74 66 66 67 68 71 62 60 38 46 45 43 44 43 40 37
94 95 97 97 98 97 99 99 100 100 98 98 95 92 81 79 64 57 48 68 46 52 76 71 63 62 65 66 64 63 79 75 74 61 57 39 50 48 56 59 60 62 57
98 99 99 100 98 98 98 97 96 98 100 96 85 61 50 54 47 52 55 60 70 70 59 68 72 73 72 78 77 79 74 75 69 64 56 58 56 60 55 58 61 57 54
100 100 100 100 100 98 99 95 80 76 60 43 42 62 77 85 80 56 60 47 54 59 54 48 51 51 52 54 60 65 74 81 70 54 60 60 70 71 61 64 61 59 64
99 99 99 100 98 98 96 53 41 42 44 51 57 64 64 75 81 63 68 58 49 58 64 66 57 47 41 40 39 40 64 67 82 76 73 64 82 76 75 73 66 69 70

GFSMA_925_rhum_069.txt.gz
RH
60 57 58 61 61 62 61 64 66 64 64 61 61 60 59 58 56 55 52 48 50 50 52 54 96 94 93 87 84 80 79 77 75 66 61 60 63 76 88 92 94 94 90
69 64 61 54 53 56 57 57 60 59 64 66 65 66 66 62 62 63 64 63 60 59 58 59 56 90 97 99 93 92 85 80 78 74 65 67 62 60 71 78 87 94 92
70 70 67 64 58 52 53 56 58 62 66 68 68 68 68 68 67 66 66 66 67 67 68 66 64 62 80 93 96 98 96 90 87 80 78 82 81 66 67 79 90 92 90
71 71 69 67 66 67 65 61 61 64 68 70 70 69 68 66 63 64 66 69 70 71 71 71 70 68 67 77 90 92 97 96 95 88 85 85 86 83 73 80 86 92 91
72 70 71 69 68 70 71 71 73 73 74 72 66 66 65 68 66 70 70 70 72 72 65 60 66 71 71 68 73 86 90 93 92 99 93 91 92 88 91 89 88 90 89
73 73 73 75 73 72 69 70 69 68 68 66 69 63 63 64 70 70 72 73 73 73 68 65 69 71 70 72 72 73 77 91 91 92 94 99 93 93 91 92 92 90 91
73 74 73 75 72 69 68 68 70 74 75 68 70 73 73 70 67 61 59 68 75 68 65 67 65 65 72 72 70 68 71 84 94 95 97 92 99 99 96 90 89 90 92
70 72 73 75 73 71 72 73 74 72 68 64 69 76 90 74 62 64 61 63 74 65 64 63 63 65 68 67 66 67 69 70 70 73 85 92 92 98 99 99 98 98 95
74 76 77 77 78 77 75 74 77 74 80 73 75 80 93 94 83 64 64 67 64 62 63 62 62 64 67 68 70 71 73 75 75 75 86 87 93 95 92 94 99 100 97
77 81 82 83 84 84 83 83 83 86 92 94 94 82 90 93 93 90 69 67 70 68 67 64 66 70 70 68 67 68 69 70 70 77 97 96 94 91 92 93 96 98 99
84 89 88 88 83 82 80 74 76 85 89 93 93 93 83 78 83 90 92 81 66 74 78 74 74 72 70 70 70 70 71 70 72 83 98 94 96 96 100 94 100 97 90
73 50 45 47 49 55 64 68 75 82 86 89 91 89 83 86 88 93 94 85 81 71 84 83 77 73 74 75 73 71 72 72 72 84 97 97 99 97 96 99 99 99 99
50 52 55 58 58 60 66 69 69 70 76 89 93 86 83 80 79 78 87 92 95 86 88 85 84 80 78 78 77 77 73 70 73 90 99 99 84 62 63 66 64 73 87
54 60 69 66 64 60 62 64 63 66 75 85 94 92 88 98 97 99 93 96 99 98 97 88 87 85 83 84 83 80 81 77 85 99 96 100 81 71 67 66 69 81 73
60 65 65 65 61 60 62 63 65 72 87 95 93 90 78 90 88 80 85 99 98 95 98 94 95 97 95 92 89 87 83 87 98 98 98 99 98 99 95 93 90 89 92
63 64 62 64 66 67 68 70 73 86 90 92 93 81 86 91 100 100 100 98 100 98 97 99 100 100 99 95 95 90 89 99 98 98 98 99 92 88 92 97 96 93 97
66 67 67 70 72 72 72 74 84 86 89 88 88 86 92 93 94 94 95 97 99 100 97 100 100 100 99 97 93 92 99 99 98 98 98 98 98 100 99 100 100 100 100
70 69 71 73 74 75 75 78 85 87 89 88 86 86 89 88 90 88 87 86 92 92 95 99 100 100 99 99 94 99 98 98 98 89 95 99 100 98 92 93 95 96 95
72 74 75 77 78 78 79 82 85 86 88 87 85 86 83 85 86 88 92 90 92 94 92 95 99 97 97 94 96 98 99 89 85 77 72 67 74 77 88 92 88 89 88
76 80 81 80 80 81 82 87 90 89 88 88 89 89 90 92 94 96 98 96 98 97 97 93 93 92 89 93 97 90 92 79 80 67 63 68 59 62 65 61 69 75 84
80 82 83 86 88 92 95 95 98 97 94 98 98 96 95 96 96 96 96 96 94 94 92 94 89 88 86 85 85 85 72 66 69 64 50 46 45 45 52 56 53 51 49
84 86 87 88 88 90 93 95 99 100 99 99 99 99 96 96 98 97 95 94 95 95 91 88 82 80 85 80 73 66 63 62 70 62 52 37 46 44 43 44 46 49 49
89 89 91 93 94 94 96 95 100 100 100 98 98 96 93 88 77 67 77 68 68 71 82 92 78 73 71 66 65 64 70 72 67 60 59 36 50 50 56 58 58 58 52
93 94 96 98 97 96 99 93 99 97 100 99 96 90 55 45 41 51 46 58 62 58 57 61 64 67 67 69 70 66 67 70 70 64 57 46 54 57 56 55 61 60 60
99 99 99 100 99 99 97 96 93 96 100 96 69 57 68 69 65 59 54 49 60 58 53 48 54 57 61 64 67 69 77 80 66 59 61 62 67 65 60 68 64 66 72
99 100 99 99 99 98 98 89 69 65 52 44 56 66 71 76 89 64 61 54 49 57 62 60 52 46 38 37 39 36 56 66 76 78 74 73 72 66 60 72 68 68 66

GFSMA_925_rhum_072.txt.gz
RH
62 60 60 63 62 68 63 68 67 68 66 63 64 63 61 61 60 61 60 56 52 53 53 57 86 95 97 92 88 80 78 76 74 69 58 57 61 76 92 96 96 93 90
60 57 58 60 60 61 62 61 62 64 63 66 67 66 68 68 66 64 65 65 65 64 65 64 62 74 91 95 99 94 89 86 82 78 71 71 62 60 72 81 93 95 93
69 70 64 61 55 54 55 59 59 60 65 70 71 70 69 70 70 69 68 67 67 68 68 70 70 68 68 75 95 96 98 99 92 86 81 81 78 68 63 74 93 92 92
71 72 69 67 64 60 56 56 58 62 65 68 70 71 70 65 62 60 64 66 68 71 71 70 75 64 68 72 86 90 93 91 98 98 90 86 83 81 77 71 84 90 90
72 72 71 70 68 68 68 67 69 72 73 72 68 62 62 63 64 64 62 65 72 74 74 70 70 69 70 73 71 82 89 92 93 93 100 96 90 86 85 90 86 86 91
71 72 72 72 71 71 73 71 68 68 66 68 68 63 61 61 62 62 66 65 70 77 76 72 67 72 74 71 73 73 75 80 88 92 90 94 99 96 83 81 84 87 89
71 74 74 73 76 74 69 68 69 71 72 65 66 64 62 64 66 62 63 63 66 70 78 68 69 68 67 70 71 70 67 69 71 75 79 87 92 99 98 100 99 97 93
65 70 75 74 75 74 69 71 74 76 75 67 67 72 90 76 67 64 67 66 63 72 69 67 65 62 62 66 66 66 67 68 70 78 84 84 92 88 97 99 99 99 98
68 70 70 74 75 74 72 74 73 77 79 72 68 85 89 96 87 65 66 68 70 67 66 63 64 64 64 66 68 70 70 68 69 76 94 96 90 92 91 88 94 99 99
74 72 76 74 77 76 79 79 79 86 89 90 91 90 93 97 97 91 72 72 73 70 67 66 66 67 69 72 70 66 66 66 71 92 97 95 94 95 90 94 96 97 97
81 84 81 80 83 82 82 88 91 84 82 86 92 92 89 85 84 98 88 80 75 73 77 72 73 74 74 73 71 68 69 70 74 89 96 94 93 97 98 89 97 99 99
80 88 87 88 86 73 56 50 50 59 68 77 82 88 94 87 87 94 99 93 87 78 83 85 80 78 77 76 74 72 71 73 75 90 98 98 97 97 98 97 98 98 98
82 79 65 48 41 40 40 46 58 61 67 75 81 88 90 85 86 86 88 92 93 86 89 88 85 82 83 79 77 78 74 72 71 74 96 100 97 62 61 64 80 96 97
74 65 47 45 48 58 61 58 61 60 64 68 73 88 94 89 87 93 96 95 99 99 96 89 91 88 88 85 83 80 77 77 78 93 99 100 99 98 74 68 76 92 91
57 62 53 59 65 62 61 61 59 61 67 73 83 94 86 86 78 91 91 89 96 98 98 98 98 97 93 94 92 88 84 85 92 98 98 98 91 87 100 99 96 84 85
55 64 71 71 64 60 60 64 64 66 77 84 90 97 93 87 88 96 99 100 100 99 98 99 100 100 99 98 94 93 90 86 98 99 97 99 93 91 90 95 92 88 99
64 68 69 68 68 67 70 71 70 76 87 88 90 91 92 93 97 93 99 100 100 99 100 100 100 100 100 100 96 94 91 99 98 98 98 98 96 97 92 92 94 96 98
68 67 67 71 72 72 73 73 75 84 89 87 90 89 89 92 94 91 92 90 92 93 98 99 100 100 100 100 96 92 97 99 96 92 98 97 99 99 96 96 96 95 93
70 71 72 73 74 74 76 77 79 84 86 88 90 85 85 85 88 86 88 87 87 89 93 99 100 100 100 95 92 95 99 92 85 78 77 74 81 91 97 99 88 90 88
69 72 74 75 77 78 79 80 84 88 88 88 90 89 88 89 88 90 94 95 92 97 98 97 98 97 92 92 91 92 99 90 81 70 66 69 63 69 74 76 68 72 82
73 76 78 80 82 84 86 91 93 96 93 93 93 93 92 94 96 95 96 96 94 94 95 94 93 92 92 92 88 93 84 72 71 66 54 49 46 46 48 60 52 44 38
78 80 83 86 87 88 82 87 92 100 100 99 99 99 98 96 96 95 94 92 94 93 89 92 86 85 85 84 83 71 65 59 64 63 52 40 45 44 42 43 49 52 51
82 86 88 89 90 89 90 92 91 99 100 100 99 97 97 95 86 80 86 77 83 87 93 91 87 84 83 80 72 66 68 65 59 64 58 40 50 51 54 56 57 58 58
88 90 91 92 93 93 98 99 97 94 100 99 98 97 91 86 69 49 53 50 55 52 57 63 65 66 66 67 66 62 60 63 68 65 58 47 52 55 57 54 64 61 63
93 93 94 96 96 94 99 99 97 97 100 100 98 93 61 43 53 55 50 53 64 56 53 52 63 66 68 67 71 69 71 76 66 62 61 58 62 59 59 66 67 69 74
100 100 100 99 99 98 100 99 98 94 100 99 86 61 67 69 82 78 53 45 50 56 58 57 52 48 40 44 48 39 46 63 69 75 69 68 67 62 56 72 67 65 66

GFSMA_925_rhum_075.txt.gz
RH
75 75 73 66 60 54 55 65 71 71 69 67 66 65 64 63 62 61 64 63 59 54 56 56 71 86 96 91 93 90 82 80 77 74 62 56 54 69 84 94 93 93 91
60 61 60 62 64 65 66 66 68 68 67 66 68 69 68 69 70 69 68 67 67 66 65 65 66 72 78 92 97 94 93 90 86 82 77 72 67 55 63 72 82 87 88
60 63 60 60 59 60 62 63 62 62 63 68 73 73 72 71 71 70 66 67 68 67 68 69 66 71 66 67 81 96 96 96 91 87 86 80 78 73 62 64 85 84 92
65 69 70 66 63 57 56 56 58 61 64 68 68 71 72 69 64 62 58 58 60 62 71 76 75 71 65 69 77 88 90 91 92 98 97 92 85 79 76 72 72 89 92
69 72 73 71 69 68 65 62 62 64 70 72 70 66 62 61 61 60 61 62 63 66 71 77 76 74 72 71 73 73 88 92 90 87 92 99 99 89 80 78 83 86 91
71 72 73 73 72 71 70 71 71 70 70 68 68 65 61 64 63 61 65 64 67 70 74 78 75 71 70 72 67 66 70 76 81 78 81 84 92 98 92 82 82 89 91
69 73 74 74 73 73 71 73 73 70 69 67 75 65 61 61 63 61 62 65 68 72 68 70 76 71 74 67 68 70 69 68 75 76 76 75 76 84 95 98 98 95 96
70 72 73 75 74 77 77 74 72 73 74 74 77 80 92 75 67 66 66 65 66 65 74 72 72 69 65 62 68 69 69 71 74 80 79 82 81 85 85 90 97 99 99
69 71 71 72 75 77 77 73 71 75 77 74 76 74 88 93 92 71 67 67 68 70 70 71 68 66 65 65 67 70 71 70 70 84 96 94 94 94 93 95 94 94 99
69 72 72 72 72 76 80 76 77 74 75 81 89 90 90 96 96 93 74 73 74 73 69 68 68 68 69 70 72 72 68 64 69 90 94 90 87 92 97 95 98 98 94
83 74 77 71 71 68 69 64 76 81 88 92 87 86 89 86 88 100 94 82 77 76 77 74 71 72 74 75 73 70 68 66 71 92 95 93 92 94 93 93 90 89 100
86 90 76 63 58 65 69 75 85 74 62 61 69 75 88 88 85 93 100 96 93 88 90 88 81 79 78 78 77 74 74 68 72 90 99 99 100 99 95 94 95 96 95
79 84 85 64 59 54 58 43 42 49 58 69 72 81 89 94 95 91 95 95 95 84 92 93 90 85 82 81 81 80 77 73 71 72 92 100 100 100 97 69 96 96 96
70 79 83 75 60 55 60 59 57 55 60 65 68 74 78 90 96 97 100 97 93 97 100 94 94 91 88 87 84 86 81 79 80 74 75 100 96 96 96 72 84 97 88
78 80 73 62 56 59 64 65 60 63 63 65 69 77 93 98 89 84 89 99 100 95 95 100 97 96 94 97 93 91 86 87 91 86 89 98 93 84 98 100 99 96 96
75 70 63 60 51 63 63 61 64 65 67 68 76 87 97 97 92 90 97 95 100 100 94 99 100 100 100 98 96 95 91 93 98 96 95 96 95 99 98 96 91 83 92
66 67 68 64 62 60 60 66 68 67 71 82 84 87 90 93 95 100 98 98 100 100 100 100 99 100 100 100 100 96 93 97 96 97 95 97 97 93 89 86 94 97 95
64 65 65 63 63 64 66 68 71 74 80 87 84 90 90 92 96 96 95 92 93 93 98 99 99 100 100 100 99 97 97 96 98 98 97 96 98 99 94 88 96 97 94
67 67 66 64 66 69 72 75 76 78 82 86 87 94 94 89 90 88 88 91 91 91 92 100 100 100 99 100 98 98 97 94 86 83 83 80 88 96 97 99 90 88 90
67 66 67 69 71 74 77 79 81 84 88 89 90 92 90 86 88 88 88 91 94 94 92 98 100 100 98 96 93 89 99 94 83 74 70 70 67 73 80 82 70 70 78
70 71 72 75 77 78 80 84 89 92 95 92 91 91 90 91 91 94 94 93 94 91 94 96 98 97 96 95 90 93 96 88 79 72 63 56 54 49 53 64 54 43 36
75 77 77 79 82 84 85 83 80 84 92 100 99 97 96 98 96 91 90 93 94 95 95 97 94 89 91 88 87 87 81 71 56 64 57 48 41 41 42 45 46 49 50
76 79 82 85 86 87 87 90 93 93 85 100 100 100 98 96 96 92 91 91 93 94 92 90 86 86 85 83 81 73 65 60 56 62 54 45 49 47 46 51 57 58 59
80 82 86 89 91 89 90 98 100 100 94 99 100 100 98 96 86 68 58 54 51 55 62 78 90 84 76 77 73 64 62 61 62 62 58 51 51 51 54 53 56 64 66
84 84 88 91 92 91 92 100 99 97 98 100 100 99 94 84 59 54 48 55 61 57 51 59 67 69 68 67 65 63 64 71 68 61 62 56 56 57 56 61 72 74 69
84 89 94 94 95 94 96 100 100 100 100 100 100 97 89 55 62 81 58 52 56 59 61 54 52 46 43 52 64 46 52 64 63 72 64 66 68 61 58 71 67 67 67

GFSMA_925_rhum_078.txt.gz
RH
76 73 77 72 66 60 52 46 58 66 67 67 67 67 66 66 66 66 65 66 67 63 59 61 70 78 92 90 94 97 93 85 82 78 71 63 54 51 64 79 76 80 87
76 76 75 71 67 60 62 59 72 72 71 68 67 70 70 71 71 71 70 68 68 68 67 66 68 77 77 76 81 92 89 90 88 87 83 77 72 61 53 61 66 74 77
65 65 66 62 62 64 68 70 68 66 67 66 69 74 72 72 71 70 68 63 59 63 65 69 73 72 74 68 70 78 90 92 91 85 79 78 80 78 69 60 60 79 80
62 63 66 65 61 62 62 64 65 64 63 65 68 68 72 71 66 62 60 58 61 61 57 68 73 81 78 74 71 78 84 90 88 84 88 99 95 80 80 74 64 74 87
68 65 69 72 69 67 61 59 58 60 63 70 72 72 65 61 60 63 62 62 63 66 68 67 76 78 78 68 70 72 82 77 84 78 78 84 96 99 92 78 78 72 89
73 68 70 75 75 72 70 68 68 68 72 70 70 66 60 61 65 62 62 62 63 64 68 68 70 79 74 69 71 71 71 77 77 73 72 74 76 87 98 97 80 78 85
75 77 71 75 77 75 72 72 73 75 74 66 67 64 65 63 63 62 64 64 62 64 70 71 71 82 76 72 75 65 71 74 77 76 71 70 71 78 82 91 99 98 94
72 75 73 75 76 76 76 75 78 79 70 70 76 79 90 73 63 64 62 62 64 65 66 67 72 79 76 73 65 70 69 71 72 77 82 84 86 86 91 94 96 97 99
76 63 70 79 82 81 79 86 83 81 78 70 70 78 88 91 93 72 70 70 71 70 68 70 74 74 70 68 68 68 70 71 71 88 93 89 89 93 98 96 96 96 96
86 95 78 69 86 83 82 75 75 75 75 77 80 85 89 95 98 96 74 74 73 75 73 71 72 70 70 71 71 73 73 70 74 88 91 91 93 89 90 94 96 97 88
78 82 80 95 78 78 76 71 72 82 88 81 86 96 91 91 92 100 96 86 79 74 80 77 74 72 72 73 76 76 74 71 74 84 93 96 96 98 96 92 88 94 90
70 73 79 90 91 88 79 62 58 59 84 81 74 73 80 83 84 91 98 96 94 84 83 82 84 80 79 79 79 79 76 76 76 75 88 98 99 100 100 96 93 88 95
74 81 81 85 79 70 80 84 82 76 65 67 68 72 79 86 97 99 97 97 97 86 82 87 88 87 85 85 86 83 82 79 77 79 80 76 96 96 100 85 94 94 93
76 76 79 73 73 74 75 62 60 61 63 61 62 62 67 74 90 100 98 91 90 91 92 90 88 94 90 90 92 87 85 81 81 81 98 86 76 87 99 88 86 95 84
74 74 74 77 78 69 60 55 56 55 54 58 60 66 77 81 97 100 97 84 99 92 90 100 94 98 97 98 97 94 91 93 92 87 95 94 88 89 99 100 99 99 97
85 84 88 86 74 68 64 64 60 57 60 62 68 78 86 93 99 97 96 93 94 98 91 97 100 99 99 100 100 98 93 93 92 94 98 95 93 98 98 98 99 89 77
87 86 85 77 71 65 63 64 63 64 66 69 76 83 83 90 91 95 100 100 100 100 99 100 99 100 100 100 100 98 95 92 92 98 96 94 98 100 99 86 97 89 93
70 68 68 69 69 66 64 64 66 69 71 74 81 87 87 93 93 97 99 98 96 96 98 99 100 99 99 100 100 99 96 95 96 96 95 95 96 99 99 89 91 96 95
67 67 67 66 64 64 67 70 71 72 74 78 82 86 91 95 92 92 90 91 92 92 91 99 100 100 100 100 100 99 96 96 94 88 90 87 89 97 98 99 86 86 89
68 68 68 67 68 69 71 72 74 77 82 86 89 91 93 88 85 84 84 88 90 92 95 97 100 100 100 100 100 96 98 97 89 78 75 71 71 76 90 87 73 71 76
73 72 70 71 72 73 74 77 80 79 83 91 91 92 88 87 89 90 90 93 97 98 98 96 100 100 100 99 97 94 96 95 90 80 70 64 62 55 61 65 56 47 42
73 72 73 73 73 75 79 82 83 88 85 79 94 96 96 96 97 97 94 87 93 95 94 99 99 97 95 94 91 90 90 87 73 75 65 55 47 40 40 48 43 42 43
75 76 76 78 80 82 84 86 90 92 94 87 89 100 100 98 97 95 95 90 91 93 96 95 94 91 86 86 86 82 78 67 54 55 56 47 43 43 42 44 53 55 59
78 78 79 81 83 84 86 87 98 98 99 94 95 100 100 98 96 84 72 65 62 59 71 82 92 92 88 84 83 75 66 62 61 60 55 51 46 50 52 52 54 69 68
81 81 80 84 86 86 87 95 99 100 95 96 100 100 100 97 93 82 57 53 58 59 58 61 64 69 69 70 69 62 57 61 66 59 59 54 54 55 55 56 67 81 67
82 83 85 86 88 87 88 99 99 100 99 98 100 100 98 92 58 79 61 51 56 56 58 54 54 52 63 80 62 56 59 66 57 61 59 60 65 57 57 72 69 74 68

GFSMA_925_rhum_081.txt.gz
RH
64 60 57 59 57 54 50 49 50 52 55 64 67 66 66 67 67 67 66 67 68 67 65 63 66 81 81 82 86 85 86 89 88 85 80 72 65 54 51 57 68 76 81
73 67 72 74 69 61 54 50 59 71 73 71 68 68 70 71 72 71 71 68 68 69 68 67 65 71 83 84 80 86 82 88 85 82 84 83 80 75 64 54 54 68 73
75 76 77 74 68 66 63 67 68 74 71 71 68 70 73 71 70 69 68 65 61 62 60 61 67 72 76 77 81 76 76 77 81 86 88 81 75 78 78 73 58 62 70
73 73 69 69 63 67 68 70 70 69 65 64 66 68 70 72 67 64 64 62 62 61 62 62 64 72 76 80 81 74 74 84 83 79 82 91 99 90 79 80 77 63 64
72 66 66 68 70 66 66 66 66 65 62 63 68 71 71 68 65 64 64 64 65 64 67 65 66 73 78 79 75 80 76 74 80 74 73 74 82 94 98 92 80 79 66
64 62 67 69 72 72 71 66 62 61 64 73 74 70 65 63 65 62 63 64 65 62 63 67 70 70 73 81 73 74 73 70 77 74 72 74 72 74 79 96 98 86 78
76 73 72 68 72 77 73 69 70 71 72 74 74 71 67 63 63 65 63 66 62 57 64 73 76 69 74 78 74 77 74 78 77 70 70 73 77 76 81 93 89 95 98
85 91 82 74 71 78 79 76 75 78 79 75 73 78 70 65 69 64 63 65 65 66 66 66 65 68 73 76 78 69 70 77 79 78 73 73 77 86 94 96 94 91 94
92 98 98 96 80 83 83 78 78 82 79 80 72 70 76 72 79 71 70 69 73 72 70 71 74 78 80 77 73 70 70 70 78 91 91 88 93 95 95 95 96 94 94
94 98 100 100 100 97 99 98 91 76 71 75 84 81 71 83 74 76 76 75 70 73 74 72 72 74 74 74 73 72 76 73 79 93 92 96 96 94 93 89 91 97 97
94 89 89 90 97 96 99 92 79 76 72 74 89 92 94 93 99 91 72 75 80 73 70 76 77 74 75 77 76 77 79 82 96 96 95 98 96 96 96 98 92 89 92
91 96 87 78 84 90 87 88 75 73 74 82 78 81 74 77 80 90 89 81 87 86 81 76 76 82 81 80 81 79 81 82 89 92 98 99 92 94 96 99 91 93 87
89 93 82 83 81 72 76 81 78 81 81 81 67 63 63 75 86 96 91 85 89 82 81 76 77 81 86 87 86 85 88 87 87 86 89 99 79 79 98 96 88 94 90
74 73 78 88 79 85 87 83 80 84 74 58 53 53 62 68 79 90 94 86 84 83 76 80 86 86 88 90 92 94 92 92 86 85 84 81 81 78 97 99 94 98 91
83 87 92 91 86 86 86 90 78 61 58 56 57 58 59 65 75 89 96 94 86 83 77 84 95 91 97 95 96 98 95 95 93 92 88 83 86 97 99 96 94 96 94
86 91 91 88 92 88 78 70 65 63 60 59 61 65 70 76 83 99 99 98 96 92 89 89 88 94 99 100 100 100 98 99 95 93 95 94 94 98 97 98 97 88 86
94 95 95 91 85 76 70 67 64 61 60 64 70 74 78 82 83 89 96 99 99 99 93 98 97 98 100 100 100 100 100 99 95 95 94 94 94 97 98 100 89 84 84
91 92 92 88 80 73 68 66 65 66 68 71 75 79 81 86 88 92 99 95 98 99 99 100 100 99 100 100 99 100 100 99 95 96 100 95 93 98 97 99 86 86 88
78 83 83 78 74 71 67 68 69 70 70 71 75 80 84 90 94 93 94 92 93 95 95 99 100 100 100 100 100 100 100 98 95 94 92 96 97 96 99 99 88 82 87
73 75 75 72 70 68 69 69 70 71 73 77 80 85 89 92 88 85 84 84 88 91 94 96 100 100 100 100 100 100 100 98 93 85 81 74 82 85 99 90 74 72 74
74 73 72 72 71 71 70 70 71 74 73 74 83 88 88 86 87 87 89 91 93 97 100 100 100 100 100 100 99 98 97 97 94 88 76 70 68 61 75 71 58 50 48
77 74 72 70 70 70 71 73 76 77 79 80 80 88 90 91 93 94 95 93 89 93 99 100 100 99 98 98 97 96 94 93 87 87 76 68 59 49 44 49 47 42 38
78 77 75 74 74 76 78 80 81 82 84 84 84 88 98 97 96 96 96 96 94 91 94 98 99 98 93 91 91 91 89 83 71 55 57 57 45 43 42 44 49 56 57
80 79 78 77 78 77 80 82 88 98 98 92 89 91 99 99 96 94 90 74 84 74 78 86 87 87 85 87 87 85 80 79 72 57 50 61 43 50 48 50 51 66 66
81 78 78 79 79 81 83 87 98 100 98 93 95 98 99 99 96 93 79 58 51 55 55 56 66 85 84 80 80 76 75 78 83 64 54 49 50 52 52 54 59 81 69
81 82 82 83 84 84 86 89 99 99 99 96 97 99 99 97 93 91 65 47 58 58 60 66 71 76 82 76 66 61 57 60 65 67 51 58 62 54 65 63 63 74 71

GFSMA_925_rhum_084.txt.gz
RH
77 72 71 71 67 68 63 61 58 54 53 56 62 61 59 60 60 61 62 66 67 68 66 62 66 74 80 76 79 78 76 78 82 83 83 81 74 66 56 50 58 68 71
71 72 69 70 67 67 61 57 54 56 58 64 63 65 66 67 66 66 65 66 67 67 68 68 67 68 76 87 92 86 76 80 79 86 82 81 80 79 77 68 54 54 59
78 76 69 74 75 75 67 65 58 67 71 71 65 64 67 66 66 67 67 66 67 64 61 62 62 66 70 74 80 80 76 73 72 81 90 92 86 77 79 80 74 57 53
90 80 76 76 76 73 73 71 69 71 67 63 60 64 66 67 67 64 64 64 64 67 68 67 65 64 67 72 74 75 78 77 68 73 80 78 90 93 93 83 80 78 61
96 82 74 73 78 73 74 72 72 67 63 60 63 64 67 67 65 63 60 61 66 71 68 68 69 67 68 74 77 74 82 76 68 71 71 69 72 82 93 99 93 82 79
96 88 74 72 78 76 72 72 66 65 60 60 68 67 64 63 62 62 60 62 64 70 68 70 76 76 74 70 79 77 78 75 67 72 70 68 69 70 77 88 93 98 95
82 82 72 73 77 75 73 69 66 66 68 72 76 67 60 62 61 58 60 59 61 63 71 76 80 78 75 75 80 77 77 79 71 75 71 70 73 74 81 95 96 93 96
88 90 84 78 77 81 77 74 70 71 70 78 70 67 56 53 56 58 58 63 62 64 71 74 77 79 82 84 93 81 80 75 81 84 79 82 86 90 93 93 92 96 82
92 96 100 100 96 91 93 87 79 76 79 80 72 61 60 55 54 53 63 64 63 64 69 73 77 82 86 87 84 80 73 72 85 94 93 88 95 94 94 93 91 95 97
89 91 85 92 98 100 99 99 96 98 83 75 79 72 73 65 58 53 59 64 68 58 65 69 73 79 79 83 78 75 72 73 83 93 92 96 96 95 94 93 92 91 95
81 90 96 95 86 98 100 100 100 100 97 93 78 70 73 84 89 78 50 48 62 62 68 70 72 78 82 82 88 86 78 79 93 95 96 97 97 96 92 93 90 91 91
90 89 84 92 95 99 99 93 86 84 92 78 72 77 84 73 63 73 66 52 57 61 74 77 76 80 83 88 88 85 88 92 90 88 93 99 100 75 94 97 92 91 89
88 78 80 92 100 99 96 83 74 75 80 85 91 90 85 77 70 70 69 61 66 63 65 71 78 83 88 93 96 88 90 90 91 96 99 99 85 75 88 100 96 92 92
88 81 88 99 100 98 84 77 73 81 86 86 88 81 82 89 89 84 74 68 70 67 66 65 84 87 93 100 94 94 95 91 94 98 99 89 83 78 77 98 99 100 98
97 100 100 100 100 90 86 90 87 83 89 90 72 63 65 68 69 89 93 85 75 72 59 60 71 96 99 99 98 100 99 99 100 96 94 90 88 89 96 97 99 96 95
100 100 100 100 100 100 100 99 97 95 83 68 62 62 75 88 91 96 97 96 94 79 74 75 84 92 96 99 99 100 100 100 100 99 96 92 93 94 96 95 98 98 86
93 98 100 100 100 99 92 88 80 69 65 64 64 84 85 76 90 94 99 99 100 95 88 85 90 94 95 99 99 100 100 100 99 98 96 96 94 93 95 95 99 95 84
99 100 100 100 97 88 81 73 67 65 64 72 75 73 85 87 87 88 92 96 96 96 98 98 96 95 99 100 100 100 100 99 99 97 97 98 97 94 98 96 100 96 86
92 97 96 93 88 81 75 71 66 64 65 72 75 79 86 90 88 93 96 96 99 99 99 100 100 99 100 100 100 100 99 100 98 96 93 92 96 94 100 94 95 84 86
82 90 92 90 85 79 73 70 69 69 70 76 71 76 85 90 88 91 94 93 96 99 99 99 99 100 100 100 100 99 100 100 96 90 88 82 86 88 97 91 78 73 74
78 81 81 80 76 73 70 69 70 74 76 79 74 83 87 92 91 92 94 95 98 100 100 100 100 100 99 99 99 99 100 100 97 92 78 72 70 70 87 79 63 53 49
79 78 77 76 76 73 69 68 68 80 80 79 82 88 91 87 87 87 88 87 96 98 100 100 100 100 98 97 99 99 98 97 90 89 82 73 70 62 61 64 52 44 38
82 81 83 83 80 79 72 72 73 84 87 90 88 89 99 95 95 99 96 93 91 89 91 99 100 100 99 93 95 97 96 91 83 70 74 67 61 57 58 44 45 51 53
91 87 88 87 86 86 75 78 83 95 91 84 82 82 90 93 94 94 93 91 89 84 80 83 94 96 92 86 90 89 90 87 86 78 52 59 52 53 58 56 46 57 62
95 93 89 86 90 88 81 92 98 96 99 97 89 92 100 99 94 94 90 76 66 72 51 49 64 82 86 88 89 86 85 79 67 65 59 60 55 56 62 64 81 83 70
92 96 89 87 84 88 83 88 98 99 100 100 99 100 96 96 96 95 89 77 63 58 75 88 83 73 84 80 76 79 89 95 68 60 62 66 62 59 62 71 78 80 79

GFSMA_925_rhum_087.txt.gz
RH
75 66 63 62 62 59 57 57 53 49 48 47 46 48 45 48 51 52 56 59 65 66 66 64 68 79 86 80 74 77 73 74 78 79 80 81 81 77 71 60 52 52 55
71 66 61 63 59 58 57 54 51 48 44 46 51 55 55 57 58 58 60 61 64 65 66 67 68 68 75 85 80 83 81 75 74 80 81 84 84 81 79 78 71 54 48
62 60 57 60 62 60 55 52 48 46 51 52 56 54 55 57 60 60 59 61 64 65 62 62 62 64 65 69 79 90 80 75 73 74 71 84 94 91 85 81 79 76 62
69 68 62 64 65 65 65 57 55 53 60 60 57 54 58 60 59 57 58 58 57 59 62 64 67 68 68 67 69 77 79 75 71 69 70 75 77 85 94 95 87 81 80
79 75 74 73 70 68 64 62 61 58 59 57 55 52 57 58 59 58 55 53 54 61 64 67 66 68 69 70 71 70 78 75 72 66 65 69 67 70 82 92 95 94 86
91 87 76 68 66 71 65 64 62 62 58 55 53 56 61 61 59 55 53 52 56 59 61 61 69 70 74 76 73 72 78 75 76 68 71 69 67 69 76 75 90 92 95
88 87 83 68 67 73 71 66 63 60 60 57 59 61 62 58 55 54 52 54 51 56 60 67 73 75 70 78 77 80 80 75 76 68 69 69 67 71 80 92 91 94 89
88 83 82 73 69 75 76 72 66 64 62 64 69 62 68 60 53 54 52 54 53 53 59 67 68 72 77 79 84 83 85 87 78 70 76 76 80 87 88 96 96 96 96
73 86 87 85 80 81 83 88 82 67 68 69 73 65 64 60 50 52 54 57 55 52 56 64 67 76 80 83 85 87 86 78 80 94 96 90 91 87 89 91 91 90 91
83 76 88 96 90 91 94 90 88 97 84 83 80 72 65 64 58 55 60 57 61 54 51 59 65 71 77 84 82 84 79 75 82 93 92 96 95 96 94 92 93 91 92
85 83 87 99 98 99 100 99 98 93 100 99 89 89 83 76 76 70 62 48 60 57 61 62 64 67 76 82 86 89 79 79 93 93 96 98 96 97 95 94 93 91 89
79 76 85 98 93 82 79 95 98 100 93 99 98 89 80 85 91 92 82 57 53 52 60 68 70 70 77 86 88 88 87 93 96 97 98 98 98 88 96 96 97 93 92
56 81 86 97 84 92 78 88 98 99 94 93 87 89 86 90 87 68 63 64 63 58 60 66 72 76 82 88 93 91 92 94 94 95 99 100 97 81 75 97 100 97 97
62 73 92 94 91 84 81 98 100 99 91 89 95 94 95 90 83 70 70 68 71 65 61 60 76 80 85 93 95 99 97 95 99 100 100 99 87 82 80 91 99 100 100
97 98 94 86 72 88 97 94 98 97 90 87 89 92 86 78 73 69 80 78 72 76 69 60 70 84 93 98 100 100 98 98 97 98 96 95 92 87 86 97 96 98 96
98 93 92 96 100 100 100 100 100 98 96 99 96 87 73 64 64 69 78 87 86 80 82 66 79 92 91 97 100 100 96 100 100 99 96 95 91 87 89 96 100 98 100
96 99 99 100 100 100 100 100 100 99 98 92 83 69 66 71 82 89 92 94 92 86 83 78 86 87 87 100 99 100 97 100 99 100 98 94 92 94 94 95 92 98 100
94 99 100 100 99 99 99 99 94 91 86 77 66 66 74 82 84 84 87 92 93 89 90 85 95 92 93 99 99 100 100 99 99 98 96 94 92 96 99 95 95 97 86
90 96 99 99 100 96 90 85 84 80 73 69 69 70 72 79 81 84 86 89 91 89 93 97 99 100 100 100 100 100 99 99 99 97 95 94 97 96 100 94 92 88 84
85 92 95 92 90 88 86 81 77 74 72 72 72 73 74 78 79 84 90 90 89 89 91 97 96 100 100 100 100 100 99 99 99 96 93 86 93 93 97 89 87 72 72
78 84 87 89 88 86 81 78 75 73 72 72 71 71 74 79 85 84 88 89 90 93 94 97 100 100 100 99 99 98 100 99 99 98 90 79 74 74 86 80 72 59 49
82 79 80 82 84 83 80 77 72 72 74 77 78 80 83 86 85 87 89 91 95 97 99 99 99 99 99 97 95 96 100 100 96 94 90 81 71 68 66 64 64 51 39
83 82 81 80 80 80 74 72 72 75 77 77 78 82 88 89 92 95 90 86 86 88 90 95 99 99 97 94 94 98 99 96 90 76 80 73 69 67 61 56 48 48 46
85 87 85 82 81 81 75 71 73 82 84 84 85 85 89 93 92 99 99 95 90 87 86 85 94 95 98 92 93 93 92 93 84 80 63 62 55 56 56 55 48 60 54
91 92 90 88 85 84 82 78 78 85 89 87 86 83 86 98 95 94 94 90 86 78 69 61 73 85 91 84 83 84 89 90 79 67 65 58 54 55 57 64 68 77 63
93 98 97 93 89 89 88 84 89 97 100 95 96 91 99 97 99 94 92 88 70 64 72 75 56 65 82 86 88 87 90 86 78 63 62 56 58 57 65 66 74 72 73

GFSMA_925_rhum_090.txt.gz
RH
73 84 80 80 75 60 67 62 64 55 53 50 47 46 44 43 49 49 54 56 59 64 65 65 68 73 84 84 78 78 75 69 74 76 81 82 81 80 78 75 65 49 46
73 72 73 70 70 64 60 59 58 52 49 47 47 50 52 52 56 56 58 60 62 62 63 64 65 67 69 81 87 81 83 81 75 71 72 82 86 86 82 79 79 73 56
70 70 64 63 62 59 58 56 53 50 48 46 48 54 56 56 59 60 60 61 64 65 63 62 63 64 64 64 69 88 82 79 75 70 71 76 82 89 89 89 84 83 79
67 67 60 61 59 59 58 55 52 48 48 53 58 58 54 57 60 59 57 60 62 57 64 66 68 70 69 67 66 81 79 76 73 70 67 71 72 75 83 92 96 93 84
64 62 61 60 64 66 66 62 57 54 53 61 60 57 54 59 60 60 58 56 54 59 62 66 66 66 68 70 66 67 78 74 74 72 67 68 64 64 66 76 83 92 94
74 72 72 72 72 70 67 64 62 62 59 60 58 55 55 59 60 59 56 53 54 58 60 60 63 72 74 76 74 70 69 77 78 75 66 66 64 63 67 76 82 87 91
79 79 77 73 69 70 71 65 64 63 63 61 57 54 58 58 58 59 55 55 53 54 57 64 73 75 74 81 76 74 83 85 80 74 67 68 67 68 78 88 96 92 97
85 85 85 81 69 67 74 72 68 65 62 61 61 64 82 67 58 57 54 53 55 54 55 66 67 70 75 82 81 77 81 92 87 75 72 72 80 79 87 95 96 96 94
83 83 83 83 75 75 77 78 78 80 73 65 60 71 86 84 67 54 54 57 56 54 55 62 66 71 76 80 77 83 92 93 93 96 92 94 94 90 92 94 94 94 92
79 79 80 78 80 78 78 84 92 89 92 86 81 74 85 78 72 75 61 60 56 55 52 56 63 68 67 79 84 86 85 79 78 93 94 99 92 95 96 96 94 92 93
70 72 73 75 74 73 81 91 92 90 88 94 88 97 95 85 77 80 78 62 61 54 52 60 61 66 72 78 87 87 83 80 86 93 94 99 96 99 96 96 94 95 94
79 78 69 72 75 78 88 82 85 80 90 93 86 91 98 94 96 91 95 91 80 55 58 63 66 70 74 78 83 87 89 92 96 97 99 100 99 95 90 96 97 98 94
92 80 66 72 80 86 94 96 91 96 85 81 95 94 99 94 86 87 86 81 69 59 60 61 68 72 76 82 88 87 88 97 98 96 95 99 94 88 78 78 99 100 100
79 75 79 79 80 68 74 97 98 98 97 82 99 100 94 92 91 93 80 72 78 73 65 65 74 76 82 86 90 92 94 94 96 100 99 96 92 85 83 85 88 99 98
92 94 84 76 65 72 80 96 91 98 89 99 95 92 91 87 94 94 74 66 69 81 84 68 83 86 84 85 94 97 99 97 96 97 96 93 89 90 84 94 93 95 98
79 83 66 73 76 79 92 98 100 99 100 100 95 95 96 92 88 81 75 72 75 75 85 67 85 92 92 85 99 99 96 95 98 99 92 92 92 89 86 89 92 97 93
99 99 92 91 89 100 100 100 100 100 100 100 96 97 94 89 78 69 64 66 76 84 92 86 87 95 94 94 98 100 97 92 94 100 96 92 93 90 93 88 92 95 97
79 85 91 97 100 99 100 100 100 100 100 100 99 100 93 80 72 70 74 82 85 90 87 87 88 90 94 100 100 100 99 99 99 99 97 96 95 94 94 93 91 91 90
72 84 93 96 99 100 100 100 97 100 100 99 96 92 80 74 76 84 87 90 89 88 86 88 97 94 96 97 98 99 99 99 99 99 97 94 90 88 99 93 90 92 84
73 78 91 96 96 99 100 100 99 96 94 88 85 78 74 76 74 75 81 86 90 89 86 87 90 99 99 100 100 99 100 100 99 98 97 93 89 90 99 93 87 76 69
75 78 81 91 90 90 90 89 87 85 83 79 78 77 76 78 80 79 83 85 88 88 90 93 92 99 100 100 99 97 99 100 99 99 96 91 85 83 84 87 79 69 55
80 79 79 82 86 89 87 87 83 82 80 78 77 77 77 78 78 83 86 90 88 86 91 88 94 98 99 97 95 96 98 100 99 96 98 90 79 72 70 71 68 64 48
82 83 81 81 81 82 85 84 86 82 79 77 73 74 76 76 79 81 85 89 90 92 95 94 99 99 98 94 94 95 96 97 95 84 91 79 74 71 67 65 62 51 48
90 86 87 84 82 80 79 78 80 79 76 75 75 76 76 77 77 80 86 87 86 86 90 93 96 91 93 92 92 89 89 96 90 78 74 67 66 54 58 53 48 48 54
95 89 89 91 89 83 80 80 82 83 80 80 80 82 82 82 81 95 99 98 94 89 82 80 81 85 90 91 86 87 91 94 89 80 77 61 56 54 56 55 55 60 61
94 93 96 92 94 92 86 83 82 84 84 86 89 87 82 87 84 100 98 92 89 82 75 54 46 66 83 87 95 84 83 83 80 70 66 57 56 48 58 65 68 70 69

GFSMA_925_rhum_093.txt.gz
RH
85 86 85 84 88 92 79 68 50 42 48 53 52 49 47 46 44 46 48 52 58 58 62 65 67 72 76 79 77 81 79 76 72 71 73 76 78 79 77 78 76 68 51
82 82 82 83 82 85 66 60 57 60 56 52 48 47 47 46 48 52 54 59 61 62 61 62 63 64 67 80 92 91 79 81 81 75 70 72 74 79 82 82 80 79 75
79 82 78 72 61 60 59 66 62 59 52 49 47 48 53 53 57 59 60 61 62 65 64 63 63 65 67 66 68 91 87 80 78 76 73 72 74 81 88 86 90 84 80
74 75 72 68 68 67 63 59 57 52 51 49 48 49 56 57 57 60 60 60 62 62 60 66 68 70 70 67 66 85 91 80 76 74 72 70 76 76 75 84 87 93 95
71 70 68 68 64 61 60 57 54 53 49 50 55 60 58 56 58 61 61 61 60 61 64 68 68 66 66 70 73 72 74 75 77 74 71 66 68 66 68 78 72 84 90
68 70 65 62 62 59 61 62 59 57 54 50 58 61 59 56 58 60 60 58 57 58 63 63 62 63 74 76 78 75 75 73 80 77 74 69 69 70 73 78 82 90 89
65 64 62 60 63 67 69 66 64 61 62 60 62 61 57 55 61 57 60 57 58 57 56 56 59 72 76 78 80 74 77 90 85 80 76 73 70 76 87 93 97 98 97
73 68 74 75 74 73 72 68 65 65 64 64 64 69 81 68 62 57 59 60 54 55 56 57 65 66 70 80 84 81 81 90 97 88 79 79 81 87 93 95 95 95 95
74 77 75 76 74 69 73 73 70 70 68 65 63 69 90 89 76 62 61 55 55 54 54 64 66 64 63 72 75 77 94 100 98 98 88 96 86 88 90 89 94 93 94
79 74 73 72 82 72 75 76 78 79 78 79 79 77 86 87 87 81 67 62 58 54 53 61 61 64 66 66 74 81 86 91 89 93 97 99 90 94 86 95 95 92 96
69 60 69 72 64 65 69 70 76 93 69 87 85 87 83 95 94 96 86 71 60 57 55 58 62 64 70 71 72 74 80 80 82 92 98 98 98 94 94 98 94 97 96
87 80 80 69 69 69 65 64 79 79 70 70 84 78 87 90 97 96 98 91 85 72 67 66 64 65 69 73 75 81 84 87 97 97 96 97 98 92 91 88 96 96 90
88 82 83 78 76 73 78 71 89 94 97 98 97 86 80 87 90 96 94 98 90 74 70 68 67 70 72 74 74 77 83 95 99 98 95 100 93 91 84 80 99 99 97
94 78 90 91 85 80 81 90 94 89 87 98 96 94 95 99 96 99 96 96 91 78 68 68 78 78 75 73 80 84 87 95 98 98 99 98 95 91 87 84 89 98 99
92 90 90 93 85 76 83 82 86 96 92 98 99 100 100 89 86 88 85 89 81 85 85 76 82 87 83 83 83 86 90 93 96 99 100 98 92 91 88 84 89 100 99
87 91 94 85 78 76 84 85 92 82 99 97 100 100 100 95 92 91 89 95 73 65 76 74 88 93 91 88 82 76 85 93 92 97 97 94 92 90 87 86 88 93 94
97 98 100 99 89 92 91 100 98 96 93 100 100 100 100 99 93 95 95 93 82 72 80 88 89 95 97 92 95 100 100 93 90 91 96 97 93 90 90 90 90 89 88
70 82 89 96 94 92 95 95 100 100 98 100 99 100 99 100 98 93 90 87 80 80 79 90 93 99 98 100 100 100 98 96 94 95 97 97 93 90 98 93 90 86 85
71 69 78 88 96 92 99 100 100 100 100 100 99 99 99 99 99 92 81 73 76 82 87 87 95 97 98 100 100 100 99 96 95 95 95 97 92 94 97 93 87 86 86
76 73 74 81 92 96 95 98 100 100 100 100 100 100 100 100 98 85 76 80 84 87 89 89 91 95 94 97 100 100 100 99 98 99 99 97 93 92 99 95 86 79 65
77 81 79 78 84 91 92 93 96 100 100 100 100 98 98 95 85 76 79 87 89 91 92 91 93 99 100 100 99 95 100 100 100 100 97 94 93 90 90 93 86 76 66
81 81 84 82 80 82 88 88 89 90 91 91 89 88 86 85 82 81 79 81 85 89 92 94 95 98 98 94 93 92 99 100 99 89 99 95 92 80 74 79 74 68 64
89 89 88 89 86 82 81 85 87 87 88 87 86 84 83 81 83 81 82 85 89 89 83 85 85 86 90 94 92 97 98 96 93 88 95 88 86 80 72 70 67 65 53
94 93 89 88 86 87 85 83 82 87 88 85 83 83 81 81 83 83 86 92 93 91 88 88 89 90 96 92 91 89 91 95 96 88 87 77 74 72 69 65 61 48 50
85 87 87 86 88 88 89 87 84 83 86 83 81 81 79 78 76 79 80 86 90 90 91 92 91 91 90 87 89 96 97 99 92 84 78 70 64 59 54 52 49 51 66
82 79 86 93 90 90 88 97 90 85 87 86 83 84 84 82 82 87 88 84 96 91 87 82 81 82 90 90 89 86 85 90 80 81 78 75 59 51 56 59 59 76 75

GFSMA_925_rhum_096.txt.gz
RH
93 84 82 80 79 86 90 77 66 56 49 55 53 51 48 48 47 45 45 48 55 54 55 63 70 72 70 69 78 83 82 80 74 72 71 72 76 80 79 78 78 76 68
93 99 92 87 81 82 91 74 62 51 43 53 52 49 48 47 46 46 48 52 59 62 61 64 66 68 75 86 94 92 86 80 81 81 75 72 74 81 83 84 83 80 78
86 82 87 85 84 84 88 78 62 55 54 56 53 50 49 49 48 48 56 55 62 63 65 64 63 65 67 72 90 92 90 82 81 84 79 71 72 78 88 85 82 88 88
86 78 89 78 84 83 78 79 66 66 63 56 51 48 49 54 54 58 61 61 62 63 65 65 66 68 71 72 75 90 95 89 82 77 75 71 71 74 70 82 83 86 93
73 87 84 82 78 77 69 67 70 69 61 54 51 48 50 55 58 58 60 62 62 63 64 65 68 70 71 69 72 80 95 91 79 80 75 72 72 69 67 72 71 76 83
76 77 75 78 71 64 75 68 63 60 54 51 52 54 60 60 59 58 62 62 61 63 65 65 68 67 68 70 77 78 78 78 77 81 78 75 71 70 72 84 85 86 89
73 79 74 74 75 72 67 63 60 57 57 54 53 60 63 61 58 57 61 59 61 59 65 62 62 61 66 74 78 77 76 91 86 86 82 78 75 76 86 95 94 93 98
72 71 70 71 68 65 62 60 61 63 60 58 65 70 78 67 59 61 62 59 58 58 62 59 59 55 59 65 72 78 74 82 96 92 86 81 81 85 87 87 91 95 94
74 69 68 70 63 61 62 66 68 66 67 65 66 68 94 88 78 66 64 65 62 59 59 59 59 61 64 63 68 66 69 93 98 99 96 90 92 87 85 87 92 94 92
81 72 71 67 64 65 74 73 71 67 67 73 78 72 72 72 86 81 72 71 65 61 59 61 62 65 64 64 63 64 76 93 84 89 98 97 97 91 93 97 96 93 94
90 84 84 81 72 80 80 76 77 76 72 80 78 93 90 96 85 91 92 81 72 70 72 62 64 63 64 64 66 69 70 80 85 84 88 95 99 97 90 99 98 95 89
97 89 84 96 92 81 80 79 69 69 79 69 75 68 78 90 97 97 97 94 84 74 71 71 64 64 64 67 71 68 70 74 82 84 86 95 100 91 86 84 95 97 99
98 99 98 94 92 91 88 92 77 71 72 79 81 91 95 84 80 85 82 92 96 96 89 85 70 68 70 70 68 69 68 79 89 93 93 100 98 87 88 84 92 98 100
100 98 97 100 99 92 89 88 82 78 77 77 84 100 96 91 86 77 86 87 99 98 87 84 78 78 77 72 73 72 75 82 92 92 99 99 92 94 90 87 96 91 94
99 94 94 90 92 96 95 94 93 82 90 94 96 100 100 87 88 92 95 88 81 97 94 83 85 87 83 83 82 80 81 90 94 98 96 100 99 88 90 89 88 85 86
97 89 95 95 96 99 100 97 97 93 88 92 100 100 100 100 98 98 97 98 88 85 91 85 89 91 89 88 87 85 85 83 91 95 97 96 92 89 88 89 87 84 84
92 98 98 100 100 99 94 96 90 92 94 89 95 98 100 100 99 98 99 94 89 86 79 87 89 94 97 95 90 85 85 89 91 88 88 97 95 89 91 90 87 85 83
72 73 81 92 98 100 100 94 100 100 100 100 100 100 100 100 100 99 100 100 99 89 83 90 96 100 100 100 94 90 92 98 94 90 89 91 95 97 95 94 91 87 82
78 77 75 79 88 94 100 100 100 100 100 100 99 100 99 100 100 100 100 100 99 98 91 79 97 100 100 100 100 100 99 98 97 90 87 92 97 99 100 94 91 86 80
76 79 82 79 80 84 93 98 95 100 100 99 100 99 100 100 100 99 100 100 99 93 88 88 92 100 100 100 99 99 100 99 97 95 96 96 96 94 95 99 95 84 74
73 78 81 84 84 81 84 90 92 93 100 100 100 100 100 100 100 100 99 100 93 84 92 98 98 100 100 100 100 97 98 100 99 98 98 98 97 95 94 99 91 84 75
78 84 85 88 86 89 85 83 87 88 87 92 99 100 100 100 100 100 100 99 82 80 93 96 99 99 100 94 90 93 98 100 99 94 100 96 94 93 91 88 85 77 69
79 82 86 87 85 85 86 89 86 87 90 90 92 92 93 94 98 97 93 88 87 87 84 84 92 91 92 89 87 94 94 98 92 86 98 94 94 92 83 75 74 69 67
69 82 78 81 85 82 82 85 93 90 87 90 90 91 92 90 91 93 90 93 92 95 97 94 87 85 82 81 81 86 87 92 97 92 91 88 82 81 79 72 68 64 55
65 65 83 83 83 94 90 86 91 95 93 86 88 91 91 90 88 93 91 88 92 96 96 94 91 88 87 88 92 98 99 100 96 88 91 81 72 73 70 65 58 51 57
60 68 81 76 69 87 97 96 98 100 100 95 88 89 90 90 87 90 88 89 96 94 95 95 95 92 91 92 91 91 90 99 91 91 82 79 70 66 56 58 53 51 78

GFSMA_925_rhum_099.txt.gz
RH
86 83 83 79 77 81 85 85 86 72 54 46 44 42 46 49 49 46 46 47 48 52 55 70 74 75 73 74 82 85 83 82 81 75 72 70 72 75 79 79 78 79 78
87 85 91 92 80 79 82 88 86 70 53 49 53 54 50 50 50 48 46 46 50 58 58 61 68 73 90 91 96 95 84 84 82 82 83 75 75 75 81 82 83 85 83
86 86 82 100 92 86 83 87 87 76 65 52 54 55 52 50 50 49 47 49 51 61 64 64 64 64 72 89 93 93 91 91 84 82 84 85 80 78 82 85 86 85 86
85 91 77 83 94 90 85 82 86 80 70 54 51 55 53 50 50 50 49 57 54 62 64 66 66 66 69 74 88 93 91 90 87 84 81 79 76 75 74 71 83 82 83
89 85 76 77 68 63 87 84 88 83 69 67 66 59 53 51 51 56 57 61 61 62 63 66 66 68 70 73 76 75 81 92 83 83 80 77 73 70 66 67 71 78 86
82 81 80 59 61 63 94 86 88 80 74 69 65 56 52 50 52 58 59 59 62 64 65 65 68 69 70 70 71 78 79 78 85 83 82 79 74 70 71 74 80 91 96
88 94 96 92 82 79 78 86 80 82 74 74 63 60 59 62 63 62 60 60 64 64 62 65 67 70 67 64 75 78 74 73 83 82 86 82 77 75 80 93 87 87 84
80 89 83 90 84 79 84 69 65 75 71 66 61 73 81 68 64 63 60 59 63 65 63 64 66 66 62 65 63 63 65 65 84 94 94 86 82 85 91 87 86 90 95
92 86 88 93 91 86 80 72 76 75 71 64 61 67 93 88 79 65 60 66 66 65 62 69 64 64 61 61 55 53 56 60 80 97 99 98 99 98 97 89 89 96 91
84 91 95 93 90 74 77 76 75 68 70 75 72 64 71 71 85 84 74 69 70 69 68 68 68 69 66 61 55 54 54 74 80 89 98 98 100 99 93 88 97 96 92
82 86 99 100 95 79 74 73 74 71 72 75 73 78 88 84 82 89 93 86 77 71 69 68 68 70 67 63 58 58 59 66 83 78 91 97 96 100 99 91 88 95 98
93 87 86 98 96 82 84 81 78 85 88 86 81 79 80 88 97 96 96 94 86 73 70 70 76 73 66 60 65 67 62 62 74 82 83 96 99 99 90 88 84 95 95
100 92 84 100 99 96 96 98 96 94 100 100 95 89 88 87 78 84 84 88 97 94 80 73 76 76 73 72 74 70 70 68 76 84 94 99 97 98 92 82 85 97 99
99 94 96 93 96 94 93 92 92 92 97 95 93 89 87 82 78 90 87 87 99 99 93 91 86 83 82 83 82 75 68 66 76 89 92 92 92 93 87 88 87 88 96
96 100 98 100 99 100 99 100 96 90 85 84 98 96 92 88 86 96 100 95 83 92 96 93 91 87 90 91 86 76 71 69 78 88 90 94 98 92 90 86 87 88 85
99 100 100 100 98 100 99 99 100 98 98 100 100 98 99 99 100 98 100 98 93 88 94 94 97 98 97 94 90 83 79 84 86 88 95 88 85 87 87 83 88 89 85
86 88 96 97 100 100 100 100 100 98 100 99 100 100 99 100 99 100 100 100 100 99 97 100 95 96 100 98 91 92 89 84 86 89 89 88 91 95 87 85 88 87 83
79 80 78 81 89 95 100 100 99 100 100 100 100 100 99 100 100 99 100 100 99 98 96 97 100 100 100 100 95 92 89 89 88 88 87 88 89 90 92 97 90 90 85
70 74 78 79 79 81 87 92 99 100 100 100 100 100 96 100 100 100 99 100 100 99 94 84 99 100 100 100 100 100 98 95 91 90 92 86 86 95 99 100 92 91 85
67 69 75 81 83 82 81 86 92 96 95 96 100 100 100 100 100 100 100 99 100 100 100 100 98 100 99 100 100 99 100 100 94 93 90 89 94 96 99 99 98 95 84
59 64 72 72 77 82 88 88 85 86 90 92 93 95 100 100 100 100 100 100 100 100 100 100 100 100 100 100 100 99 100 100 100 99 96 96 98 98 97 99 98 94 84
49 56 61 70 79 80 82 84 87 91 88 89 92 90 92 99 100 100 100 100 99 100 100 99 100 98 100 99 99 99 100 100 99 98 100 99 100 98 94 93 98 94 80
55 57 60 73 68 71 82 86 84 88 92 91 89 92 93 94 95 99 100 100 100 100 100 96 99 97 99 94 95 100 100 99 96 83 100 99 99 93 91 92 89 85 71
56 61 60 74 78 61 57 94 93 93 93 92 91 88 92 93 95 96 99 100 100 100 100 98 89 78 79 81 85 86 87 89 92 90 95 96 90 92 92 86 78 75 66
58 59 60 60 68 68 67 80 98 97 97 91 90 93 89 90 91 97 100 100 100 100 100 100 98 99 95 98 92 94 93 99 99 96 98 88 84 81 81 79 72 69 60
56 58 63 61 65 68 71 84 82 90 96 99 96 90 96 94 88 95 100 100 100 99 99 100 100 98 95 90 86 84 85 100 94 95 91 90 76 72 70 68 66 59 64

GFSMA_925_rhum_102.txt.gz
RH
74 91 84 80 77 74 77 85 88 73 56 49 46 44 49 52 51 50 49 52 51 51 82 94 94 78 77 77 78 78 80 81 81 79 75 71 68 70 72 74 77 80 82
75 90 85 84 80 77 78 92 90 85 73 61 50 47 44 45 50 51 48 48 49 51 56 65 89 94 96 96 95 90 84 83 86 83 83 84 75 70 73 78 79 80 84
68 80 87 88 87 80 82 91 88 87 85 72 55 54 56 54 52 51 50 47 47 50 58 61 64 78 90 94 94 95 91 91 87 85 85 84 83 75 78 84 84 85 84
76 78 91 92 88 89 89 93 83 83 86 76 67 53 58 57 54 51 50 48 50 50 56 63 66 67 70 76 88 91 94 83 82 85 85 83 84 82 80 71 74 73 81
78 82 91 91 86 89 98 97 91 87 84 80 78 60 52 58 56 52 51 51 51 58 56 63 66 67 68 71 74 92 94 82 81 83 86 80 80 77 71 66 71 75 84
90 95 95 95 81 81 95 78 85 92 87 84 83 67 64 62 57 52 52 57 58 62 62 62 64 67 68 70 74 72 71 80 72 74 82 83 78 75 71 72 80 79 83
94 100 100 100 87 85 69 75 72 84 80 78 90 78 73 64 58 53 53 57 60 61 62 65 66 66 68 70 71 62 70 75 71 75 84 86 82 80 76 86 82 78 89
80 95 92 92 79 80 77 78 70 79 82 81 78 74 81 67 60 56 59 61 63 60 64 66 65 66 68 69 63 58 69 62 70 83 88 92 88 90 97 89 81 88 94
74 81 87 85 81 80 75 72 70 87 84 79 76 68 91 90 78 64 58 62 63 62 64 66 66 68 70 68 60 56 55 56 58 94 98 98 97 98 98 90 86 93 92
84 86 84 84 92 91 94 93 82 85 83 80 83 69 60 72 87 86 78 73 66 66 64 65 64 70 71 65 61 58 49 54 65 91 96 100 100 99 99 94 87 85 88
92 94 90 92 96 97 99 99 98 90 82 76 77 72 79 82 82 87 90 84 74 68 72 69 68 73 66 68 67 58 55 48 61 83 95 96 97 98 99 99 94 93 89
88 89 88 90 97 98 100 100 95 96 92 90 84 79 72 77 87 91 95 92 87 72 70 71 71 71 72 73 70 62 60 54 66 81 91 92 98 98 99 97 95 96 86
99 98 100 99 97 89 98 100 100 100 94 93 90 89 83 80 80 83 89 94 95 83 80 72 69 72 76 78 72 70 66 62 66 78 95 96 100 98 87 94 98 81 89
100 100 99 100 96 93 100 99 99 98 96 100 100 98 99 99 96 92 90 93 97 97 95 81 77 76 77 79 75 76 73 69 69 74 87 100 98 86 90 88 86 86 82
99 99 100 100 99 100 100 100 100 100 99 98 100 100 99 99 100 99 94 97 93 92 88 93 83 81 80 84 83 82 80 77 77 92 97 96 88 90 90 90 83 78 85
89 90 94 99 98 100 100 98 100 100 100 100 94 99 98 99 98 92 97 100 100 94 92 84 92 85 85 91 94 95 92 84 87 94 94 94 94 96 89 81 76 79 86
79 82 88 91 92 98 99 99 100 98 100 100 99 98 96 92 98 100 100 100 100 100 97 99 100 98 100 100 100 100 92 91 91 96 94 93 90 90 86 86 81 85 86
63 69 72 80 82 84 84 91 96 100 100 100 99 100 99 98 99 100 100 100 100 100 100 98 100 100 100 100 98 94 94 93 95 89 89 84 83 85 94 92 90 88 86
53 59 66 70 74 79 82 82 85 90 94 98 100 100 100 100 100 100 99 100 100 100 100 97 100 100 100 100 100 100 100 100 95 92 88 90 88 91 93 99 96 93 88
46 48 53 56 66 72 79 85 88 86 83 85 90 94 94 99 100 100 100 100 100 100 100 100 99 100 99 100 100 99 100 100 99 100 98 94 90 90 94 98 98 97 90
39 36 35 37 45 48 68 90 91 90 90 88 85 84 88 89 96 100 100 100 100 100 100 100 100 100 100 100 99 99 100 100 100 98 98 92 88 92 96 98 99 98 92
45 43 42 45 51 55 51 53 84 94 90 91 89 89 86 86 85 91 97 100 100 100 100 100 99 97 98 99 100 100 100 99 99 100 99 96 94 96 97 98 100 99 92
46 46 48 52 52 46 57 80 81 100 100 95 91 88 89 87 85 88 90 95 98 100 100 98 98 97 99 99 98 100 100 98 98 91 100 98 98 99 100 99 99 99 94
48 49 51 59 62 52 51 74 86 81 98 100 99 96 94 89 87 87 91 93 97 100 100 100 100 98 95 96 94 92 92 99 99 91 99 99 100 100 98 96 96 94 85
56 56 52 54 62 57 53 72 81 88 87 83 86 96 98 100 91 89 94 98 99 99 99 100 100 100 100 98 99 100 100 100 100 100 100 86 94 95 95 92 88 90 78
52 59 63 62 64 61 56 78 81 83 90 92 94 84 91 99 99 98 100 100 100 98 99 100 100 100 100 100 96 92 90 99 97 98 98 89 87 81 82 83 82 78 86

GFSMA_925_rhum_105.txt.gz
RH
78 79 82 94 92 89 85 78 82 78 56 53 60 59 61 59 58 56 54 54 55 53 75 95 97 93 88 85 83 80 79 78 79 80 77 74 69 68 69 72 76 78 83
69 73 76 93 97 88 82 78 84 81 75 57 52 53 51 50 56 52 52 50 50 52 53 66 94 95 96 95 94 88 84 84 82 81 81 83 80 71 68 72 78 84 82
64 67 75 87 86 83 84 84 85 89 92 76 66 60 50 50 48 49 52 52 49 49 51 55 60 87 95 94 94 94 87 87 87 85 87 84 85 78 71 80 84 82 77
73 71 76 84 88 88 88 87 88 99 95 87 81 69 59 58 59 59 56 54 51 48 48 53 60 63 72 85 88 79 83 84 80 77 87 85 85 85 79 81 70 68 70
74 78 80 81 92 95 92 90 88 96 97 90 86 80 68 62 56 58 58 54 52 49 51 51 56 64 66 69 73 78 79 77 67 74 77 81 84 86 83 70 66 69 72
76 82 86 98 100 100 100 100 100 97 99 92 93 86 80 74 59 54 60 56 52 52 51 57 57 61 66 68 69 71 75 72 62 69 75 80 84 84 77 68 70 75 74
77 95 94 98 99 99 100 100 100 100 90 79 94 87 76 62 61 65 63 57 53 53 58 60 63 60 64 67 69 70 74 63 69 64 74 82 86 82 80 77 78 74 84
72 90 97 99 100 100 99 94 94 92 98 91 89 88 79 59 61 59 63 59 54 52 56 61 62 64 66 68 67 69 70 60 70 78 71 88 90 88 95 98 85 81 91
82 90 98 99 98 92 96 84 85 82 80 84 72 80 89 69 60 55 59 57 53 54 54 62 62 66 67 67 68 70 66 58 59 90 90 100 98 98 100 99 92 88 92
86 90 92 94 98 96 95 90 86 86 90 85 88 80 75 76 69 63 70 66 69 70 55 62 63 63 66 66 71 71 61 57 53 58 92 95 100 99 99 100 94 95 75
87 88 89 91 97 98 96 88 94 91 94 95 89 79 88 80 80 80 72 80 73 68 72 66 63 66 72 73 74 74 64 59 51 58 86 92 97 99 98 98 97 94 98
92 94 97 98 100 100 100 100 99 100 100 100 98 92 81 77 78 80 87 80 83 69 70 70 73 73 77 75 75 73 67 57 55 67 85 90 95 96 96 99 98 98 97
100 99 99 97 96 98 100 100 100 100 100 100 99 98 94 83 73 77 73 71 84 78 75 71 68 74 77 76 75 76 70 61 57 63 92 88 92 95 98 99 99 98 97
98 100 99 99 100 100 100 100 100 100 100 100 100 100 98 99 93 86 78 81 82 94 92 78 69 70 72 68 73 78 77 70 65 64 84 90 92 95 97 97 99 98 90
92 99 93 95 98 98 100 100 100 100 100 100 100 100 100 100 100 99 96 92 87 86 85 79 82 74 73 75 75 86 85 78 75 71 76 91 95 96 93 88 87 85 82
73 81 80 83 90 89 92 99 100 100 100 100 100 100 100 100 100 100 100 100 100 98 96 81 79 78 79 82 84 92 87 87 81 80 84 89 99 94 85 86 86 84 80
59 65 75 69 74 81 83 85 88 96 99 99 97 100 100 100 100 100 100 100 100 100 97 86 92 88 89 91 97 99 98 94 93 92 88 100 94 89 92 93 88 86 79
31 31 39 51 64 71 81 85 89 85 86 92 97 100 99 99 100 99 99 99 100 99 98 92 99 99 99 99 99 100 100 100 99 98 100 98 97 96 91 89 91 87 80
28 28 27 32 37 42 61 72 76 82 85 88 90 91 94 99 100 100 100 100 100 98 99 98 99 100 100 100 100 100 100 100 99 94 96 96 94 88 86 93 95 90 88
34 33 33 35 37 39 46 64 81 94 90 77 77 81 85 91 98 98 100 100 99 100 100 100 100 99 99 100 100 99 100 100 100 100 100 95 92 89 93 95 98 97 92
40 39 38 35 37 43 72 82 82 86 92 95 95 93 85 83 86 86 94 95 100 100 100 100 100 100 100 100 99 99 100 100 100 99 100 100 100 100 98 98 97 98 96
37 37 39 41 40 40 38 70 78 83 83 94 100 100 98 87 83 83 83 83 95 100 100 100 99 97 99 99 100 100 100 99 99 100 100 100 100 100 99 92 95 96 95
32 35 39 42 41 40 48 73 76 81 77 81 83 98 99 99 96 92 89 89 83 82 95 100 99 97 97 97 98 100 100 96 92 97 100 100 100 100 93 90 96 95 95
43 45 49 54 55 49 51 71 75 77 78 71 81 76 82 90 97 100 100 100 100 91 83 84 99 100 97 92 95 95 97 97 99 99 100 99 100 100 95 93 97 100 98
52 50 50 54 64 63 61 73 82 86 84 82 83 81 83 82 77 87 92 100 100 100 95 87 91 98 100 99 96 100 100 99 99 100 100 92 100 100 100 99 99 100 100
58 58 56 53 59 70 67 77 83 82 82 83 83 81 82 90 89 85 96 99 100 99 99 97 94 100 98 100 100 100 100 97 98 100 99 95 99 97 96 97 98 100 100

GFSMA_925_rhum_108.txt.gz
RH
84 82 83 86 87 91 90 89 83 76 70 67 59 58 58 57 56 55 55 59 57 57 69 93 94 96 96 93 83 77 74 75 77 77 77 74 70 67 67 71 74 74 75
88 93 91 92 87 91 90 87 89 92 79 55 51 52 55 55 55 53 54 54 54 54 55 59 92 96 96 96 96 89 81 82 81 80 80 79 80 75 69 71 76 80 80
84 88 92 88 92 96 84 86 89 91 89 74 58 48 49 47 47 50 53 54 56 53 51 54 56 82 94 94 95 95 87 84 83 88 88 88 85 84 75 72 81 85 81
74 80 80 85 88 86 89 92 98 92 95 92 85 71 68 57 52 51 52 54 57 59 56 50 52 58 73 94 92 91 86 84 86 78 72 81 87 86 82 78 84 72 71
82 84 80 79 79 90 97 95 96 97 100 100 99 90 79 66 54 53 52 55 57 59 57 56 48 52 60 65 82 93 93 85 83 74 64 75 84 87 88 88 74 70 71
88 86 82 81 86 96 98 95 96 98 97 98 99 98 88 79 68 56 50 49 53 57 59 59 58 54 53 62 66 71 84 89 90 72 67 72 81 85 87 86 75 75 73
74 88 87 90 98 98 96 97 99 98 100 100 100 96 89 84 86 77 64 53 54 58 55 58 60 61 64 59 64 67 69 79 88 72 71 72 80 85 95 90 92 85 76
92 92 90 88 97 96 99 95 98 97 95 90 88 74 73 66 73 64 64 60 59 38 57 60 62 66 68 68 63 65 67 70 81 83 87 74 85 91 91 99 98 91 95
96 94 92 91 98 99 94 98 89 88 75 76 92 74 82 72 50 50 57 54 51 59 56 60 62 65 68 71 71 66 67 68 74 82 92 93 88 97 100 98 100 96 95
96 98 100 98 96 98 99 95 92 87 84 77 88 92 73 70 76 57 44 52 48 49 55 60 64 66 69 65 63 66 68 69 73 67 84 90 96 100 99 98 98 97 96
96 95 98 99 99 96 99 96 97 98 92 89 85 86 94 84 76 82 82 74 77 70 67 66 66 75 72 64 65 69 72 70 74 59 65 84 90 98 99 98 97 96 96
97 98 100 99 100 98 98 96 96 96 98 100 96 94 84 78 82 76 76 65 68 60 67 72 76 80 76 65 66 74 76 81 67 62 61 80 83 94 95 99 97 97 98
99 99 99 100 100 97 99 96 98 96 98 100 99 99 98 92 80 77 72 70 70 60 64 74 72 77 70 68 69 76 82 86 81 65 72 78 82 88 92 97 99 98 98
95 90 93 97 99 99 100 99 98 99 99 100 100 100 100 99 95 85 79 80 83 70 66 73 78 69 66 70 72 82 74 88 80 69 67 82 82 89 90 94 99 98 99
74 73 74 78 82 90 88 94 97 99 100 100 100 100 100 99 100 97 95 92 91 91 79 63 82 72 66 71 73 81 80 79 87 80 67 62 85 91 87 91 97 94 99
53 50 51 59 63 71 80 80 84 88 93 96 99 100 100 100 99 100 100 100 98 92 91 69 77 75 73 76 76 79 76 86 86 84 79 69 88 94 86 83 97 97 91
48 46 45 46 49 57 64 69 74 85 83 83 85 91 94 100 100 100 100 99 100 100 96 85 83 83 86 83 82 77 89 87 89 95 85 89 94 94 89 99 95 88 87
42 45 46 48 49 54 58 73 80 83 89 91 89 85 90 96 94 99 100 100 100 100 100 96 90 93 91 89 88 90 97 99 100 100 96 94 88 89 100 96 90 90 90
46 44 44 44 49 51 54 57 58 61 69 73 81 89 91 95 98 98 95 96 100 100 98 96 89 95 98 100 100 100 99 100 100 100 100 96 99 100 97 97 97 94 88
47 45 45 45 48 51 53 59 59 60 59 68 78 82 84 91 93 96 99 99 99 98 100 100 99 100 100 99 100 100 100 100 100 100 100 100 100 100 100 99 93 85 89
45 47 45 42 45 45 46 66 63 57 59 58 57 65 81 89 87 97 100 98 98 99 100 100 100 100 100 99 99 100 100 100 100 100 100 100 100 100 100 95 92 90 92
47 47 45 48 53 48 60 72 72 60 56 56 55 60 65 72 77 91 95 99 100 100 98 100 98 98 98 98 100 100 100 99 99 100 100 100 100 100 99 99 99 97 93
46 47 46 46 47 48 59 69 74 63 61 63 66 66 64 61 74 74 82 92 97 99 100 100 99 99 98 99 99 100 100 95 90 92 100 100 100 100 100 100 100 96 93
53 54 55 54 55 56 67 76 78 69 66 68 66 64 60 58 57 75 72 72 82 87 93 97 99 100 100 100 99 97 93 95 97 98 100 96 100 100 100 99 96 92 93
61 61 61 62 64 64 72 83 84 71 67 65 62 60 63 63 64 82 77 83 79 79 82 93 100 99 97 94 100 100 100 100 100 100 100 96 100 100 100 100 97 93 91
66 67 67 66 68 70 73 81 82 68 61 59 58 58 59 65 76 79 78 72 77 78 81 90 92 88 99 99 93 100 100 97 94 99 100 97 100 97 100 100 99 99 100

GFSMA_925_rhum_111.txt.gz
RH
69 72 69 70 80 88 94 93 89 84 72 64 59 53 49 50 51 50 51 55 56 54 59 95 96 95 87 84 83 80 76 77 76 77 76 73 72 68 65 66 69 71 72
80 81 81 79 84 91 90 88 88 86 76 66 60 57 49 48 49 48 48 52 53 54 55 56 84 93 96 96 96 95 78 75 78 81 78 77 77 78 74 71 72 77 79
78 84 84 86 85 89 89 90 88 90 87 80 64 51 44 45 47 48 48 49 52 54 52 51 54 61 91 96 94 96 89 82 81 85 86 86 86 84 82 76 72 80 86
74 82 80 80 80 79 83 86 93 88 86 89 91 67 54 46 45 42 42 45 48 52 54 52 48 51 56 77 92 92 91 90 87 80 85 82 82 87 87 86 77 89 75
66 69 80 81 78 76 78 83 87 93 92 96 92 87 72 64 58 51 46 46 49 51 54 56 54 49 49 55 70 92 91 90 85 83 82 79 75 81 89 90 90 87 73
72 74 70 72 82 79 84 88 91 93 88 90 93 95 93 82 74 64 57 49 47 50 55 57 56 55 51 48 55 64 88 85 90 84 80 74 69 78 85 88 91 84 79
83 92 58 75 80 90 88 88 86 92 94 92 98 99 97 93 88 75 63 59 50 46 50 55 57 58 58 58 55 55 63 68 75 78 76 74 69 78 84 89 95 98 96
92 92 84 72 84 92 93 94 94 97 98 96 94 92 89 86 88 80 81 76 68 54 51 54 54 54 55 58 60 59 60 64 68 80 79 76 66 71 90 95 98 100 98
90 86 89 89 85 90 94 97 95 92 97 91 88 82 83 75 57 58 72 70 69 68 62 58 57 55 52 59 61 65 61 62 64 73 75 83 86 90 92 98 98 97 99
86 87 90 88 86 89 91 92 94 90 92 90 83 88 80 73 65 64 49 58 61 58 56 57 58 60 60 60 65 60 62 60 66 68 76 72 92 93 91 98 96 98 98
89 92 90 93 92 93 92 93 95 94 94 92 86 79 88 85 83 84 77 60 64 63 57 50 50 59 61 66 70 71 68 66 67 70 68 83 85 88 85 93 95 99 97
100 99 99 97 100 100 99 97 94 92 94 95 94 92 86 88 88 85 85 70 63 58 63 58 59 61 64 67 71 73 68 66 66 65 64 66 85 82 86 95 98 99 97
97 96 96 99 100 99 99 99 100 100 98 97 94 99 96 92 87 84 81 76 72 60 58 62 65 67 72 77 74 72 70 68 76 67 73 88 77 78 79 83 94 99 98
87 83 84 90 89 91 91 94 100 100 100 99 100 100 99 98 100 97 94 92 90 78 68 61 59 61 72 79 76 74 79 70 75 70 76 69 74 78 77 78 83 91 100
63 60 61 61 65 68 74 82 88 89 90 96 98 97 99 100 100 100 100 100 93 94 88 74 67 72 76 84 77 75 65 70 76 79 70 73 73 71 78 82 81 86 91
44 40 44 41 43 41 55 60 76 74 81 81 84 88 90 89 93 96 100 100 99 95 94 87 81 81 80 78 70 69 70 74 77 79 79 77 71 71 82 81 85 89 98
38 39 39 40 44 47 50 54 46 60 62 70 72 77 86 85 91 94 99 97 100 100 98 88 82 82 88 84 82 77 78 82 76 74 79 74 70 72 84 79 94 95 99
42 42 42 40 42 44 49 51 55 57 60 63 68 73 79 80 84 96 93 97 100 99 100 94 87 99 98 92 89 89 88 87 85 78 69 77 80 89 86 86 97 95 95
40 38 38 39 41 42 44 49 51 51 52 53 59 70 75 79 86 90 91 97 98 100 100 100 98 98 98 96 98 98 97 92 89 85 89 90 88 97 100 98 100 97 100
37 39 39 38 38 38 37 51 52 52 50 51 52 53 59 73 82 92 92 94 95 96 97 99 98 99 100 99 100 99 99 99 100 100 99 100 100 100 100 100 94 100 99
40 40 39 38 40 43 36 63 63 57 52 48 52 49 54 60 61 77 86 92 94 97 96 93 96 100 99 100 99 98 100 100 100 100 100 100 100 100 100 97 100 100 98
39 40 41 41 41 39 44 61 70 69 57 55 58 62 63 56 57 68 67 72 80 86 92 90 91 92 94 100 100 100 100 100 99 99 100 100 100 100 100 100 98 97 95
44 47 48 50 49 48 51 62 73 73 63 61 64 66 63 55 56 59 67 75 73 72 78 85 90 90 97 99 98 100 100 99 95 92 100 99 100 100 99 100 100 95 88
50 52 54 54 55 56 59 66 76 78 68 65 63 62 59 56 58 73 78 74 74 69 70 73 77 82 89 94 99 100 100 99 98 98 98 97 100 99 100 100 99 96 92
59 60 60 61 62 62 64 70 81 76 69 60 56 53 54 57 58 74 74 75 74 75 75 74 75 78 80 82 80 93 99 100 98 99 99 100 100 100 100 100 100 100 97
62 61 63 60 60 57 58 66 78 72 64 57 54 53 52 56 66 72 72 69 69 69 75 79 79 82 79 80 84 81 98 99 98 100 99 100 100 98 100 100 100 100 100

GFSMA_925_rhum_114.txt.gz
RH
67 67 65 69 74 82 86 89 94 94 89 84 71 59 56 57 58 57 54 54 56 54 49 91 96 96 90 92 93 88 77 73 72 72 72 72 70 70 67 66 65 67 70
72 71 72 72 79 80 87 91 88 90 83 82 72 63 57 51 51 52 51 51 51 53 52 50 72 95 96 96 95 96 86 76 76 76 75 74 76 77 76 72 67 67 74
76 76 75 74 77 78 81 83 89 90 84 82 69 64 61 55 49 49 50 49 50 52 52 52 51 54 88 95 96 97 91 83 77 84 84 80 83 85 84 82 77 73 75
64 72 81 81 80 80 82 81 87 89 94 88 79 70 57 54 47 46 48 48 49 50 51 52 51 49 53 66 93 94 94 88 87 84 82 82 85 85 89 92 87 80 84
73 69 79 80 84 86 85 83 83 81 77 83 86 86 85 60 54 47 45 44 45 46 49 53 54 52 48 50 63 90 92 91 89 87 81 81 82 77 75 87 91 88 88
79 75 72 77 76 72 75 81 82 71 79 84 83 86 90 84 70 60 50 47 46 47 48 51 55 56 55 51 49 54 79 85 88 84 81 79 84 77 70 84 87 92 93
70 71 74 69 63 56 59 50 68 85 88 88 89 89 86 82 86 82 76 69 58 50 48 49 52 54 55 55 52 47 49 59 66 72 71 75 81 80 65 84 85 91 98
80 78 70 75 71 75 82 86 83 89 91 90 92 97 96 90 90 83 86 81 73 64 56 50 51 55 55 55 51 49 52 52 57 65 69 71 75 75 66 90 90 92 97
81 77 71 78 77 78 84 85 83 88 99 92 90 88 97 90 79 71 84 83 79 75 68 56 52 56 56 57 54 52 55 54 54 59 68 71 73 72 64 86 94 95 88
80 84 86 89 87 78 87 85 83 85 77 99 93 94 86 80 83 81 62 66 73 80 72 72 66 56 53 54 52 53 53 55 54 53 68 73 72 71 72 77 93 96 92
98 100 91 91 94 94 92 88 88 90 94 87 94 80 91 99 94 94 88 72 59 65 66 65 65 64 61 58 55 52 54 60 59 57 60 72 73 88 90 92 92 93 90
99 100 100 98 99 100 99 96 96 98 100 97 91 90 93 94 93 92 94 84 80 70 65 62 61 60 58 61 60 59 60 61 66 61 61 66 68 72 91 91 86 91 91
99 99 99 97 96 97 96 95 100 99 100 99 100 100 94 93 95 90 88 85 83 74 72 64 61 60 55 56 63 64 67 64 58 70 69 66 66 66 86 80 88 77 90
84 78 68 72 76 81 82 86 93 94 92 98 99 99 99 100 100 100 96 91 92 89 79 77 66 61 64 65 64 65 67 58 57 63 72 71 68 66 75 67 62 62 65
55 44 40 38 39 46 49 57 63 67 67 82 83 82 91 91 82 94 95 99 98 96 93 80 78 72 65 64 74 75 79 69 59 67 75 73 72 64 62 55 58 68 58
39 37 37 39 35 39 42 45 44 49 48 55 66 66 73 75 78 85 95 95 91 99 97 88 84 80 75 71 77 85 80 77 74 72 81 74 80 74 67 62 68 74 71
39 39 39 39 42 44 49 51 51 56 56 57 58 63 71 83 81 92 75 83 97 98 97 91 87 98 97 96 94 92 88 85 79 87 86 86 70 69 69 72 75 73 76
37 35 35 36 36 39 41 47 49 52 53 58 63 64 70 74 90 78 70 96 94 96 99 96 94 94 99 99 98 97 93 95 94 89 89 91 85 78 77 79 80 86 86
36 37 37 37 38 39 39 45 45 54 52 49 52 57 59 64 72 58 89 84 96 94 96 98 94 95 96 94 100 100 100 100 100 98 97 97 91 90 89 91 88 89 89
38 39 38 39 39 40 39 45 51 59 60 54 51 53 55 59 61 62 86 82 90 91 92 94 92 92 97 96 99 100 99 99 100 100 99 100 99 99 100 100 97 100 100
40 41 44 45 46 44 41 54 65 72 69 63 58 60 64 59 56 66 65 72 78 82 87 90 89 86 86 92 98 98 100 99 98 96 96 93 97 96 94 91 97 100 100
46 47 50 51 52 52 55 58 66 74 73 68 66 65 67 64 58 60 69 83 82 79 83 84 83 85 85 97 99 100 99 100 99 87 100 97 100 99 98 99 99 100 100
51 53 55 57 57 57 61 64 68 74 71 72 69 66 64 61 58 62 77 76 76 75 73 71 80 80 84 79 88 93 96 100 98 97 99 99 99 100 99 100 100 100 99
58 59 60 60 61 62 66 68 71 75 73 71 66 60 58 56 56 60 72 72 73 73 74 76 78 78 78 80 86 90 94 91 97 98 100 99 98 100 100 100 100 100 100
60 60 61 60 60 59 59 66 69 77 76 71 63 58 56 55 57 64 71 72 72 68 64 68 72 74 76 79 81 83 92 95 90 98 98 100 98 100 99 100 100 100 100
59 58 58 56 55 55 52 58 65 73 79 77 74 69 66 61 58 64 70 72 84 77 75 76 72 67 73 74 85 84 84 99 94 93 86 100 99 100 100 99 100 100 100

GFSMA_925_rhum_117.txt.gz
RH
75 70 68 70 71 74 76 81 86 87 90 91 88 72 71 66 58 49 62 58 56 57 57 82 95 94 80 80 84 79 76 72 73 73 72 71 69 69 68 67 65 67 67
74 76 69 67 68 74 79 82 83 90 92 92 89 81 68 64 59 56 60 58 56 56 55 52 81 94 96 96 95 95 84 76 72 75 75 74 74 75 76 77 74 70 69
86 75 73 67 68 80 85 84 79 86 93 93 91 85 78 62 59 57 60 55 53 53 52 52 51 65 89 95 95 96 92 80 76 70 74 75 76 76 81 83 84 81 73
85 81 73 72 71 77 81 82 81 83 86 89 90 85 74 69 63 55 52 52 51 51 52 53 52 52 57 87 91 94 94 90 86 83 83 82 84 85 89 89 90 91 85
78 78 79 74 73 75 74 78 84 86 86 86 94 99 92 81 75 69 52 48 50 50 50 50 51 50 52 52 74 89 90 88 88 86 82 80 80 80 82 84 82 90 94
80 85 76 77 78 81 82 81 80 85 85 85 87 87 87 87 88 80 59 50 48 47 48 48 48 50 53 53 52 60 82 88 88 84 81 79 80 78 81 79 77 82 90
75 87 74 80 88 87 83 78 72 74 74 73 85 85 83 83 86 85 79 72 63 53 49 49 50 49 51 52 54 53 52 56 76 82 83 79 78 76 79 79 72 80 85
68 88 82 89 89 84 79 64 62 71 76 74 82 89 95 90 92 86 81 77 78 75 72 69 54 52 51 50 53 53 52 52 56 74 81 77 70 67 70 74 64 80 84
76 73 78 81 82 74 69 68 68 77 82 81 83 80 99 97 91 80 78 77 76 80 78 76 66 60 55 55 53 53 51 53 51 53 74 86 77 70 70 73 83 76 82
87 91 90 79 72 73 72 67 72 78 81 90 93 83 77 80 88 88 79 81 82 85 80 79 75 72 67 61 62 58 55 48 49 52 54 74 84 69 74 70 75 75 83
91 93 93 92 96 88 86 100 86 95 99 97 97 99 92 87 92 97 92 84 73 69 66 69 68 69 63 64 63 60 58 58 48 52 52 62 78 91 77 74 72 70 84
100 89 82 100 96 100 100 100 100 99 98 99 100 100 100 99 98 99 98 88 84 77 76 72 68 70 68 66 61 58 58 55 54 53 55 63 66 89 72 78 74 74 84
97 90 92 91 90 99 98 98 96 97 96 99 100 100 99 100 100 100 97 89 88 78 77 75 73 70 68 67 64 61 60 60 60 59 58 71 74 87 78 72 71 80 86
81 77 80 84 87 82 77 81 79 80 82 85 87 86 92 98 92 98 100 99 96 90 82 79 74 74 71 68 67 65 63 61 60 61 59 62 70 88 74 71 72 78 84
46 55 51 52 55 46 45 44 50 51 51 58 56 58 63 76 75 86 99 95 99 97 93 85 86 85 86 79 68 65 64 67 66 69 71 70 75 68 74 73 66 70 64
36 35 36 38 40 45 48 46 52 52 54 60 59 59 71 80 71 88 71 88 94 97 96 88 90 84 80 95 99 89 74 69 74 78 81 78 82 83 74 75 69 67 70
32 32 31 31 33 35 44 41 45 48 53 58 59 61 67 68 91 69 54 84 90 91 94 88 87 87 89 76 88 97 99 89 85 86 83 82 86 72 78 76 74 71 71
33 34 35 36 35 33 43 41 35 39 48 50 51 56 62 75 85 72 70 90 90 91 92 91 84 89 90 87 86 89 97 100 100 97 93 92 92 92 72 95 81 77 81
37 38 39 40 41 38 47 46 46 49 50 55 56 58 60 63 63 62 83 89 91 89 89 92 90 89 90 82 94 94 92 90 97 100 100 100 99 87 87 88 95 85 89
41 43 45 47 48 41 50 57 62 67 63 62 60 63 66 65 58 72 66 72 89 91 92 92 91 88 84 82 84 99 98 98 96 91 94 98 99 100 100 100 97 92 96
44 45 47 47 48 48 54 62 66 70 73 64 68 68 66 62 61 65 69 86 80 78 85 91 87 84 84 92 91 93 96 95 94 94 96 94 95 94 91 90 89 88 90
50 51 54 58 58 58 66 69 70 72 73 68 73 69 66 66 61 63 80 77 75 77 81 85 86 90 88 89 88 93 93 94 96 96 100 99 100 97 90 88 91 94 96
53 55 56 58 58 58 71 71 74 74 69 71 72 66 62 58 60 61 71 71 65 71 71 73 80 81 86 84 90 92 92 95 92 88 90 94 96 100 98 93 98 98 97
54 54 53 54 54 52 61 68 69 67 71 68 68 70 66 64 61 65 64 69 68 66 73 74 71 71 73 75 75 81 87 93 95 89 79 97 96 98 96 96 97 100 98
53 53 53 53 54 52 53 68 62 65 69 73 71 70 70 68 65 68 63 70 71 69 68 71 83 83 77 77 79 84 89 96 85 82 84 90 89 97 99 97 94 99 100
54 53 54 55 56 57 59 65 67 69 71 72 71 77 78 75 73 70 69 72 77 76 73 84 78 56 63 68 73 84 91 99 96 81 81 97 99 99 97 93 93 95 100

GFSMA_925_rhum_120.txt.gz
RH
86 84 77 73 68 68 70 74 79 79 80 87 93 89 81 64 54 52 48 62 61 63 66 84 95 91 91 94 95 87 74 68 68 69 70 68 66 67 68 69 69 69 71
72 80 79 77 73 70 72 74 77 83 84 87 91 92 90 80 65 63 59 52 63 61 64 63 76 94 95 95 94 95 94 81 72 70 70 71 72 73 74 76 79 77 74
55 79 80 73 78 78 73 75 79 80 80 91 94 93 94 90 78 67 64 62 61 61 62 60 58 65 88 88 92 96 95 90 87 76 70 68 69 71 72 77 82 85 84
45 69 75 84 74 77 76 75 76 77 82 96 96 92 98 96 89 76 66 65 66 62 61 60 57 54 56 83 87 90 94 86 84 79 75 68 70 74 79 84 91 94 93
31 70 76 83 78 75 76 77 80 80 86 98 95 94 95 100 94 79 66 59 62 61 61 56 56 54 54 52 67 84 86 90 91 88 86 84 80 83 82 84 88 88 88
69 78 78 78 86 84 77 77 79 78 80 81 93 89 87 88 85 96 93 90 87 71 58 56 55 55 55 52 52 56 70 84 87 89 87 86 85 82 80 81 84 84 83
61 57 59 71 85 92 82 72 72 79 85 86 88 82 81 86 91 87 82 90 96 86 71 58 51 51 53 52 52 51 52 56 70 80 87 85 84 83 82 81 80 84 83
56 53 69 87 99 100 98 94 95 93 88 81 88 93 94 93 100 93 89 81 82 86 87 74 61 53 52 52 50 51 51 53 57 66 84 85 85 84 80 83 82 87 74
100 96 89 85 94 99 100 100 97 93 87 80 79 77 98 96 94 91 88 65 68 83 85 82 78 78 74 71 58 54 52 52 52 56 65 78 82 81 79 73 74 87 86
99 100 99 88 90 90 100 99 92 84 92 89 97 86 88 90 91 90 78 82 72 86 81 82 80 77 76 76 69 62 58 54 53 54 60 57 74 84 84 86 71 77 87
99 98 100 100 91 98 88 100 94 97 89 83 92 96 99 96 98 98 96 90 84 76 79 77 73 74 69 71 71 71 70 66 57 56 58 59 59 56 84 88 88 78 74
89 92 96 100 100 96 77 89 97 100 99 99 100 100 100 99 99 99 98 94 92 86 84 86 80 74 71 66 65 64 63 61 64 63 60 62 67 70 69 84 85 86 76
73 78 75 80 87 97 100 84 84 100 97 99 99 99 100 99 100 100 99 97 97 86 83 78 75 74 75 74 71 69 68 67 66 64 62 69 69 70 68 66 77 84 85
56 63 75 66 64 69 76 87 88 94 97 88 82 78 87 79 81 99 100 97 96 89 83 82 80 88 90 90 94 90 83 72 70 68 66 64 61 64 64 63 66 70 87
36 33 44 51 53 56 64 68 71 73 69 59 62 73 80 79 88 80 61 81 95 95 93 90 90 86 77 72 76 78 94 92 90 78 72 68 69 66 67 66 67 67 79
31 30 30 28 30 41 40 44 46 53 55 59 60 60 60 75 91 57 70 79 83 90 91 83 88 77 57 59 56 66 75 85 98 96 88 84 77 79 79 77 72 77 77
30 31 34 34 35 42 43 36 41 42 46 50 60 57 68 70 78 64 62 81 81 90 90 81 74 74 74 61 76 78 80 83 94 100 100 99 95 87 83 87 79 82 87
39 36 36 36 36 43 50 49 50 50 50 54 62 61 64 70 62 62 85 91 81 87 92 87 84 84 76 81 84 65 91 91 89 91 98 99 97 100 100 97 88 84 93
41 43 47 46 43 48 56 60 61 58 52 59 62 69 68 63 61 75 73 74 92 94 92 95 93 92 90 86 82 94 78 80 75 82 86 93 95 99 99 100 100 100 99
45 46 48 48 48 49 58 65 69 69 63 56 65 68 68 65 68 68 70 85 80 72 75 88 91 89 89 91 84 89 85 78 76 58 99 98 97 100 100 100 100 100 100
45 47 48 50 51 52 71 73 73 73 70 66 68 70 68 65 66 67 82 78 69 74 81 90 91 89 87 88 88 90 91 88 78 92 89 86 90 90 91 98 100 94 96
46 48 49 52 51 53 76 75 76 74 67 67 70 68 63 62 67 75 77 71 71 71 74 76 82 87 83 87 87 91 94 93 89 64 77 78 58 61 89 86 94 98 100
50 50 52 54 54 54 73 73 74 70 68 69 69 68 69 65 62 64 69 78 70 66 71 74 76 77 77 76 82 88 88 92 93 90 95 92 82 84 87 89 84 86 93
52 53 54 55 55 53 71 71 68 64 68 70 72 70 71 72 70 73 71 72 72 71 67 73 82 81 84 82 77 81 87 91 86 87 84 89 79 84 66 65 69 80 90
54 55 56 56 58 57 66 69 71 71 71 72 72 72 78 82 78 75 73 73 74 74 70 70 74 87 86 72 81 82 87 98 89 87 71 89 92 89 85 77 79 82 86
54 54 56 59 62 60 65 75 78 76 76 75 81 87 82 80 78 76 78 78 79 78 80 72 76 78 73 54 59 69 80 98 90 86 73 85 85 88 97 87 88 84 85